ftp/pub/palmer/observations_modified/2019/July/AR190701_BASE.txt

Download

Sample DateTime	Unit Id	WS Avg 2min	WD Avg 2min	WGS 10min	WGD 10min	Air Temp	Rel Humidity	Dew Point	Pyranometer	Quantum	Air Pressure	Snow Level	Rainfall	PW Current	Visibility	CBase 1	CBase 2	CBase 3	Vert Vis
2019/07/01  00:00:00  BASE  5.03328  87   5.83884  92   -10.4 89    -11.9 0     0     997.3    NA       0.0000   9999     0     0     0    
2019/07/01  00:01:00  BASE  4.95096  87   5.83884  92   -10.4 89    -11.9 0     0     997.3    NA       0.0000   9999     0     0     0    
2019/07/01  00:02:00  BASE  4.8216   86   5.83884  92   -10.5 89    -12.0 0     0     997.3    NA       0.0000   9999     0     0     0    
2019/07/01  00:03:00  BASE  4.7922   84   5.83884  92   -10.6 89    -12.0 0     0     997.3    NA       0.0000   9999     0     0     0    
2019/07/01  00:04:00  BASE  4.86864  84   5.83884  92   -10.5 89    -11.9 0     0     997.3    NA       0.0000   9999     0     0     0    
2019/07/01  00:05:00  BASE  4.97448  85   5.68596  91   -10.6 89    -12.0 0     0     997.3    NA       0.0000   9999     0     0     0    
2019/07/01  00:06:00  BASE  5.25672  87   5.71536  89   -10.6 90    -12.0 0     0     997.3    NA       0.0000   9999     0     0     0    
2019/07/01  00:07:00  BASE  5.34492  88   5.71536  89   -10.6 90    -11.9 0     0     997.3    NA       0.0000   9999     0     0     0    
2019/07/01  00:08:00  BASE  5.3214   90   5.71536  89   -10.6 90    -11.9 0     0     997.3    NA       0.0000   9999     0     0     0    
2019/07/01  00:09:00  BASE  5.22144  89   5.71536  89   -10.6 90    -12.0 0     0     997.3    NA       0.0000   9999     0     0     0    
2019/07/01  00:10:00  BASE  4.96272  86   5.71536  89   -10.7 90    -12.0 0     0     997.3    NA       0.0000   9999     0     0     0    
2019/07/01  00:11:00  BASE  4.95096  88   5.71536  89   -10.7 90    -12.0 0     0     997.3    NA       0.0000   9999     0     0     0    
2019/07/01  00:12:00  BASE  4.80396  87   5.71536  89   -10.7 90    -12.0 0     0     997.3    NA       0.0000   9999     0     0     0    
2019/07/01  00:13:00  BASE  4.40412  82   5.71536  89   -10.6 90    -11.9 0     0     997.2    NA       0.0000   9999     0     0     0    
2019/07/01  00:14:00  BASE  4.50996  82   5.71536  89   -10.5 91    -11.8 0     0     997.2    NA       0.0000   9999     0     0     0    
2019/07/01  00:15:00  BASE  4.704    81   5.71536  89   -10.4 91    -11.6 0     0     997.2    NA       0.0000   9999     0     0     0    
2019/07/01  00:16:00  BASE  4.49232  78   5.59776  87   -10.3 91    -11.5 0     0     997.2    NA       0.0000   9999     0     0     0    
2019/07/01  00:17:00  BASE  4.41     81   5.56836  91   -10.3 91    -11.5 0     0     997.2    NA       0.0000   9999     0     0     0    
2019/07/01  00:18:00  BASE  4.52172  82   5.44488  90   -10.3 91    -11.4 0     0     997.3    NA       0.0000   9999     0     0     0    
2019/07/01  00:19:00  BASE  4.52172  83   5.44488  90   -10.3 92    -11.4 0     0     997.3    NA       0.0000   9999     0     0     0    
2019/07/01  00:20:00  BASE  4.44528  86   5.44488  90   -10.4 92    -11.4 0     0     997.3    NA       0.0000   9999     0     0     0    
2019/07/01  00:21:00  BASE  4.60404  88   5.145    90   -10.4 92    -11.5 0     0     997.3    NA       0.0000   9999     0     0     0    
2019/07/01  00:22:00  BASE  4.65108  89   5.145    90   -10.4 92    -11.5 0     0     997.3    NA       0.0000   9999     0     0     0    
2019/07/01  00:23:00  BASE  4.54524  90   5.145    90   -10.5 92    -11.5 0     0     997.3    NA       0.0000   9999     0     0     0    
2019/07/01  00:24:00  BASE  4.63932  90   5.145    90   -10.5 92    -11.5 0     0     997.3    NA       0.0000   9999     0     0     0    
2019/07/01  00:25:00  BASE  4.69224  90   5.145    90   -10.5 92    -11.5 0     0     997.3    NA       0.0000   9999     0     0     0    
2019/07/01  00:26:00  BASE  4.6746   90   5.145    90   -10.5 93    -11.4 0     0     997.3    NA       0.0000   9999     0     0     0    
2019/07/01  00:27:00  BASE  4.72752  91   5.145    90   -10.4 93    -11.4 0     0     997.3    NA       0.0000   9999     0     0     0    
2019/07/01  00:28:00  BASE  4.78632  92   5.145    90   -10.4 93    -11.3 0     0     997.3    NA       0.0000   9999     0     0     0    
2019/07/01  00:29:00  BASE  4.6746   92   5.145    90   -10.4 93    -11.3 0     0     997.3    NA       0.0000   9999     0     0     0    
2019/07/01  00:30:00  BASE  4.59816  91   5.145    90   -10.4 93    -11.3 0     0     997.3    NA       0.0000   9999     0     0     0    
2019/07/01  00:31:00  BASE  4.59816  90   4.99212  93   -10.4 93    -11.3 0     0     997.3    NA       0.0000   9999     0     0     0    
2019/07/01  00:32:00  BASE  4.6452   90   4.99212  93   -10.4 94    -11.3 0     0     997.3    NA       0.0000   9999     0     0     0    
2019/07/01  00:33:00  BASE  4.72752  89   4.99212  93   -10.4 94    -11.2 0     0     997.3    NA       0.0000   9999     0     0     0    
2019/07/01  00:34:00  BASE  4.59228  87   4.99212  93   -10.4 94    -11.2 0     0     997.3    NA       0.0000   9999     0     0     0    
2019/07/01  00:35:00  BASE  4.53348  86   4.93332  90   -10.4 94    -11.2 0     0     997.3    NA       0.0000   9999     0     0     0    
2019/07/01  00:36:00  BASE  4.55112  86   4.93332  90   -10.4 94    -11.1 0     0     997.3    NA       0.0000   9999     0     0     0    
2019/07/01  00:37:00  BASE  4.5276   84   4.93332  90   -10.3 94    -11.1 0     0     997.3    NA       0.0000   9999     0     0     0    
2019/07/01  00:38:00  BASE  4.58052  82   4.86864  86   -10.3 94    -11.0 0     0     997.3    NA       0.0000   9999     0     0     0    
2019/07/01  00:39:00  BASE  4.43352  83   4.86864  86   -10.3 95    -11.0 0     0     997.4    NA       0.0000   9999     0     0     0    
2019/07/01  00:40:00  BASE  4.46292  88   4.86864  92   -10.2 95    -10.9 0     0     997.4    NA       0.0000   9999     0     0     0    
2019/07/01  00:41:00  BASE  4.66872  92   4.93332  93   -10.3 95    -10.9 0     0     997.5    NA       0.0000   9999     0     0     0    
2019/07/01  00:42:00  BASE  4.72752  95   5.02152  95   -10.3 95    -10.9 0     0     997.5    NA       0.0000   9999     0     0     0    
2019/07/01  00:43:00  BASE  4.76868  93   5.02152  95   -10.2 95    -10.9 0     0     997.5    NA       0.0000   9999     0     0     0    
2019/07/01  00:44:00  BASE  4.80396  91   5.02152  95   -10.2 95    -10.9 0     0     997.5    NA       0.0000   9999     0     0     0    
2019/07/01  00:45:00  BASE  4.69812  89   5.02152  95   -10.3 95    -10.9 0     0     997.5    NA       0.0000   9999     0     0     0    
2019/07/01  00:46:00  BASE  4.58052  88   5.02152  95   -10.2 95    -10.9 0     0     997.5    NA       0.0000   9999     0     0     0    
2019/07/01  00:47:00  BASE  4.52172  92   5.02152  95   -10.2 95    -10.8 0     0     997.5    NA       0.0000   9999     0     0     0    
2019/07/01  00:48:00  BASE  4.48056  95   5.02152  95   -10.2 95    -10.8 0     0     997.5    NA       0.0000   9999     0     0     0    
2019/07/01  00:49:00  BASE  4.51584  94   5.02152  95   -10.2 96    -10.8 0     0     997.5    NA       0.0000   9999     0     0     0    
2019/07/01  00:50:00  BASE  4.4982   91   5.02152  95   -10.2 96    -10.7 0     0     997.5    NA       0.0000   9999     0     0     0    
2019/07/01  00:51:00  BASE  4.4982   91   5.02152  95   -10.1 96    -10.7 0     0     997.5    NA       0.0000   9999     0     0     0    
2019/07/01  00:52:00  BASE  4.45116  89   4.99212  91   -10.1 96    -10.6 0     0     997.5    NA       0.0000   9999     0     0     0    
2019/07/01  00:53:00  BASE  4.32768  88   4.99212  91   -10.1 96    -10.6 0     0     997.5    NA       0.0000   9999     0     0     0    
2019/07/01  00:54:00  BASE  4.263    89   4.96272  93   -10.1 97    -10.5 0     0     997.5    NA       0.0000   9999     0     0     0    
2019/07/01  00:55:00  BASE  4.31004  92   4.96272  93   -10.1 97    -10.5 0     0     997.6    NA       0.0000   9999     0     0     0    
2019/07/01  00:56:00  BASE  4.39236  94   4.80984  93   -10.1 97    -10.5 0     0     997.6    NA       0.0000   9999     0     0     0    
2019/07/01  00:57:00  BASE  4.33356  94   4.80984  93   -10.2 97    -10.5 0     0     997.6    NA       0.0000   9999     0     0     0    
2019/07/01  00:58:00  BASE  4.25124  92   4.80984  93   -10.2 97    -10.6 0     0     997.6    NA       0.0000   9999     0     0     0    
2019/07/01  00:59:00  BASE  4.22184  91   4.68636  94   -10.2 97    -10.6 0     0     997.5    NA       0.0000   9999     0     0     0    
2019/07/01  01:00:00  BASE  4.22184  92   4.68636  94   -10.2 97    -10.6 0     0     997.5    NA       0.0000   9999     0     0     0    
2019/07/01  01:01:00  BASE  4.30416  91   4.65696  101  -10.2 97    -10.5 0     0     997.5    NA       0.0000   9999     0     0     0    
2019/07/01  01:02:00  BASE  4.48644  90   4.80984  90   -10.2 98    -10.5 0     0     997.5    NA       0.0000   9999     0     0     0    
2019/07/01  01:03:00  BASE  4.65108  90   4.93332  86   -10.1 98    -10.4 0     0     997.5    NA       0.0000   9999     0     0     0    
2019/07/01  01:04:00  BASE  4.6452   88   4.93332  86   -10.1 98    -10.3 0     0     997.5    NA       0.0000   9999     0     0     0    
2019/07/01  01:05:00  BASE  4.51584  86   4.93332  86   -10.0 98    -10.3 0     0     997.5    NA       0.0000   9999     0     0     0    
2019/07/01  01:06:00  BASE  4.48644  87   4.93332  86   -10.0 98    -10.3 0     0     997.5    NA       0.0000   9999     0     0     0    
2019/07/01  01:07:00  BASE  4.58052  87   4.93332  86   -10.0 98    -10.3 0     0     997.5    NA       0.0000   9999     0     0     0    
2019/07/01  01:08:00  BASE  4.557    87   4.93332  86   -10.1 98    -10.3 0     0     997.5    NA       0.0000   9999     0     0     0    
2019/07/01  01:09:00  BASE  4.44528  86   4.93332  86   -10.0 98    -10.2 0     0     997.5    NA       0.0000   9999     0     0     0    
2019/07/01  01:10:00  BASE  4.42176  88   4.93332  86   -10.0 98    -10.2 0     0     997.5    NA       0.0000   9999     0     0     0    
2019/07/01  01:11:00  BASE  4.53348  90   4.93332  86   -10.0 99    -10.1 0     0     997.5    NA       0.0000   9999     0     0     0    
2019/07/01  01:12:00  BASE  4.53936  86   4.93332  86   -9.9  99    -10.1 0     0     997.5    NA       0.0000   9999     0     0     0    
2019/07/01  01:13:00  BASE  4.49232  83   4.86864  84   -9.9  99    -10.0 0     0     997.5    NA       0.0000   9999     0     0     0    
2019/07/01  01:14:00  BASE  4.3512   83   4.83924  87   -9.8  99    -9.9  0     0     997.5    NA       0.0000   9999     0     0     0    
2019/07/01  01:15:01  BASE  4.11012  84   4.83924  87   -9.8  99    -9.9  0     0     997.5    NA       0.0000   9999     0     0     0    
2019/07/01  01:16:00  BASE  4.06896  84   4.83924  87   -9.8  99    -9.9  0     0     997.5    NA       0.0000   9999     0     0     0    
2019/07/01  01:17:00  BASE  4.22772  88   4.83924  87   -9.8  99    -9.9  0     0     997.5    NA       0.0000   9999     0     0     0    
2019/07/01  01:18:00  BASE  4.53348  92   5.10972  86   -9.9  99    -10.0 0     0     997.5    NA       0.0000   9999     0     0     0    
2019/07/01  01:19:00  BASE  4.6158   87   5.10972  86   -10.0 99    -10.0 0     0     997.5    NA       0.0000   9999     0     0     0    
2019/07/01  01:20:00  BASE  4.36296  82   5.10972  86   -9.9  99    -10.0 0     0     997.5    NA       0.0000   9999     0     0     0    
2019/07/01  01:21:00  BASE  4.18656  80   5.10972  86   -9.8  100   -9.9  0     0     997.5    NA       0.0000   9999     1410  0     0    
2019/07/01  01:22:00  BASE  4.13952  78   5.10972  86   -9.7  100   -9.7  0     0     997.5    NA       0.0000   9999     0     0     0    
2019/07/01  01:23:00  BASE  4.116    78   5.10972  86   -9.6  100   -9.6  0     0     997.5    NA       0.0000   9999     0     0     0    
2019/07/01  01:24:00  BASE  4.0572   79   5.10972  86   -9.5  100   -9.5  0     0     997.6    NA       0.0000   9999     0     0     0    
2019/07/01  01:25:00  BASE  3.99252  79   5.10972  86   -9.6  100   -9.6  0     0     997.6    NA       0.0000   9999     0     0     0    
2019/07/01  01:26:00  BASE  3.83964  79   5.10972  86   -9.6  100   -9.6  0     0     997.6    NA       0.0000   9999     0     0     0    
2019/07/01  01:27:00  BASE  3.54564  78   5.10972  86   -9.6  100   -9.6  0     0     997.6    NA       0.0000   9999     0     0     0    
2019/07/01  01:28:00  BASE  3.4398   79   4.96272  82   -9.6  100   -9.6  0     0     997.6    NA       0.0000   9999     1350  0     0    
2019/07/01  01:29:00  BASE  3.43392  83   4.35708  79   -9.6  100   -9.6  0     0     997.6    NA       0.0000   9999     1210  0     0    
2019/07/01  01:30:00  BASE  3.6162   86   4.35708  79   -9.6  100   -9.6  0     0     997.6    NA       0.0000   9999     1280  0     0    
2019/07/01  01:31:00  BASE  3.81024  84   4.35708  79   -9.6  100   -9.6  0     0     997.6    NA       0.0000   9999     1280  0     0    
2019/07/01  01:32:00  BASE  3.71028  81   4.35708  79   -9.6  100   -9.6  0     0     997.7    NA       0.0000   9999     1380  0     0    
2019/07/01  01:33:00  BASE  3.56916  82   4.263    90   -9.7  100   -9.7  0     0     997.7    NA       0.0000   9999     1280  0     0    
2019/07/01  01:34:00  BASE  3.69264  84   4.35708  87   -9.7  100   -9.7  0     0     997.7    NA       0.0000   9999     1280  0     0    
2019/07/01  01:35:00  BASE  3.98076  87   4.35708  87   -9.8  100   -9.8  0     0     997.7    NA       0.0000   9999     1210  0     0    
2019/07/01  01:36:00  BASE  3.9396   86   4.35708  87   -9.8  100   -9.8  0     0     997.7    NA       0.0000   9999     1210  0     0    
2019/07/01  01:37:00  BASE  3.65736  83   4.35708  87   -9.8  100   -9.8  0     0     997.7    NA       0.0000   9999     1210  0     0    
2019/07/01  01:38:00  BASE  3.43392  79   4.35708  87   -9.9  100   -9.9  0     0     997.7    NA       0.0000   9999     1210  0     0    
2019/07/01  01:39:00  BASE  3.51624  80   4.35708  87   -9.9  100   -9.9  0     0     997.8    NA       0.0000   9999     1310  0     0    
2019/07/01  01:40:00  BASE  3.57504  84   4.35708  87   -9.9  100   -9.9  0     0     997.8    NA       0.0000   9999     1250  0     0    
2019/07/01  01:41:00  BASE  3.51624  87   4.35708  87   -9.9  100   -9.9  0     0     997.8    NA       0.0000   9999     1250  0     0    
2019/07/01  01:42:00  BASE  3.61032  90   4.35708  87   -9.9  100   -9.9  0     0     997.8    NA       0.0000   9999     1280  0     0    
2019/07/01  01:43:00  BASE  3.61032  90   4.35708  87   -9.8  100   -9.8  0     0     997.8    NA       0.0000   9999     1210  0     0    
2019/07/01  01:44:00  BASE  3.38688  85   4.1748   85   -9.8  100   -9.8  0     0     997.8    NA       0.0000   9999     1180  0     0    
2019/07/01  01:45:00  BASE  3.4692   87   4.1748   85   -9.8  100   -9.8  0     0     997.8    NA       0.0000   9999     1150  0     0    
2019/07/01  01:46:00  BASE  3.66912  91   3.96312  96   -9.8  100   -9.8  0     0     997.8    NA       0.0000   9999     1150  0     0    
2019/07/01  01:47:00  BASE  3.42804  88   3.96312  96   -9.7  100   -9.7  0     0     997.8    NA       0.0000   9999     1080  0     0    
2019/07/01  01:48:00  BASE  3.087    85   3.96312  96   -9.7  100   -9.7  0     0     997.8    NA       0.0000   9999     1210  0     0    
2019/07/01  01:49:00  BASE  3.11052  85   3.96312  96   -9.7  100   -9.7  0     0     997.8    NA       0.0000   9999     1180  0     0    
2019/07/01  01:50:00  BASE  3.09288  83   3.96312  96   -9.6  100   -9.6  0     0     997.8    NA       0.0000   9999     1180  0     0    
2019/07/01  01:51:00  BASE  2.95176  80   3.96312  96   -9.6  100   -9.6  0     0     997.8    NA       0.0000   9999     1210  0     0    
2019/07/01  01:52:00  BASE  2.90472  83   3.81024  95   -9.6  100   -9.6  0     0     997.8    NA       0.0000   9999     1210  0     0    
2019/07/01  01:53:00  BASE  2.9106   91   3.81024  95   -9.5  100   -9.5  0     0     997.8    NA       0.0000   9999     1310  0     0    
2019/07/01  01:54:00  BASE  2.97528  98   3.81024  95   -9.5  100   -9.5  0     0     997.8    NA       0.0000   9999     0     0     0    
2019/07/01  01:55:00  BASE  3.09876  100  3.81024  95   -9.6  100   -9.6  0     0     997.8    NA       0.0000   9999     0     0     0    
2019/07/01  01:56:00  BASE  3.26928  99   3.90432  106  -9.7  100   -9.7  0     0     997.8    NA       0.0000   9999     0     0     0    
2019/07/01  01:57:00  BASE  3.27516  97   3.90432  106  -9.8  100   -9.8  0     0     997.8    NA       0.0000   9999     0     0     0    
2019/07/01  01:58:00  BASE  3.05172  94   3.90432  106  -9.9  100   -9.9  0     0     997.8    NA       0.0000   9999     0     0     0    
2019/07/01  01:59:00  BASE  2.95176  90   3.90432  106  -9.8  100   -9.8  0     0     997.8    NA       0.0000   9999     0     0     0    
2019/07/01  02:00:00  BASE  2.98704  90   3.90432  106  -9.7  100   -9.7  0     0     997.8    NA       0.0000   9999     0     0     0    
2019/07/01  02:01:00  BASE  2.85768  88   3.90432  106  -9.6  100   -9.6  0     0     997.8    NA       0.0000   9999     0     0     0    
2019/07/01  02:02:00  BASE  2.74008  82   3.90432  106  -9.4  100   -9.4  0     0     997.8    NA       0.0000   9999     1050  0     0    
2019/07/01  02:03:00  BASE  2.68128  77   3.90432  106  -9.3  100   -9.3  0     0     997.8    NA       0.0000   9999     1020  0     0    
2019/07/01  02:04:00  BASE  2.60484  80   3.90432  106  -9.2  100   -9.2  0     0     997.8    NA       0.0000   9999     980   0     0    
2019/07/01  02:05:00  BASE  2.44608  87   3.90432  106  -9.2  100   -9.2  0     0     997.8    NA       0.0000   9999     1020  0     0    
2019/07/01  02:06:00  BASE  2.2932   91   3.48096  99   -9.1  100   -9.1  0     0     997.9    NA       0.0000   9999     950   0     0    
2019/07/01  02:07:00  BASE  2.35788  93   3.234    87   -9.1  100   -9.1  0     0     997.9    NA       0.0000   9999     980   0     0    
2019/07/01  02:08:00  BASE  2.499    101  3.234    87   -9.1  100   -9.1  0     0     997.9    NA       0.0000   9999     980   0     0    
2019/07/01  02:09:00  BASE  2.63424  97   3.234    87   -9.1  100   -9.1  0     0     997.9    NA       0.0000   9999     1020  0     0    
2019/07/01  02:10:00  BASE  2.84592  90   3.234    87   -9.2  100   -9.2  0     0     997.9    NA       0.0000   9999     980   0     0    
2019/07/01  02:11:00  BASE  2.75184  90   3.234    87   -9.3  100   -9.3  0     0     997.9    NA       0.0000   9999     920   0     0    
2019/07/01  02:12:00  BASE  2.49312  90   3.087    93   -9.3  100   -9.3  0     0     997.9    NA       0.0000   9999     950   0     0    
2019/07/01  02:13:00  BASE  2.37552  92   3.087    93   -9.3  100   -9.3  0     0     997.9    NA       0.0000   9999     950   0     0    
2019/07/01  02:14:00  BASE  2.39904  89   3.087    93   -9.3  100   -9.3  0     0     997.9    NA       0.0000   9999     1020  0     0    
2019/07/01  02:15:00  BASE  2.47548  85   3.087    93   -9.3  100   -9.3  0     0     997.9    NA       0.0000   9999     1050  0     0    
2019/07/01  02:16:00  BASE  2.36964  82   3.087    93   -9.3  100   -9.3  0     0     997.9    NA       0.0000   9999     0     0     0    
2019/07/01  02:17:00  BASE  2.26968  75   3.087    93   -9.3  100   -9.3  0     0     998.0    NA       0.0000   9999     1020  0     0    
2019/07/01  02:18:00  BASE  2.28144  66   3.087    93   -9.3  100   -9.3  0     0     998.0    NA       0.0000   9999     980   0     0    
2019/07/01  02:19:00  BASE  2.28144  60   3.087    93   -9.3  100   -9.3  0     0     998.0    NA       0.0000   9999     1020  0     0    
2019/07/01  02:20:00  BASE  2.1756   62   2.90472  88   -9.2  100   -9.2  0     0     998.0    NA       0.0000   9999     1020  0     0    
2019/07/01  02:21:00  BASE  2.11092  60   2.78124  92   -9.2  100   -9.2  0     0     998.0    NA       0.0000   9999     1020  0     0    
2019/07/01  02:22:00  BASE  2.25204  54   2.78124  92   -9.2  100   -9.2  0     0     997.9    NA       0.0000   9999     1020  0     0    
2019/07/01  02:23:00  BASE  2.7636   55   3.81024  48   -9.3  100   -9.3  0     0     997.9    NA       0.0000   9999     1020  0     0    
2019/07/01  02:24:00  BASE  3.25164  53   3.81024  48   -9.3  100   -9.3  0     0     997.9    NA       0.0000   9999     1020  0     0    
2019/07/01  02:25:00  BASE  3.21636  51   3.81024  48   -9.4  100   -9.4  0     0     997.9    NA       0.0000   9999     1020  0     0    
2019/07/01  02:26:00  BASE  2.94588  50   3.81024  48   -9.5  100   -9.5  0     0     997.9    NA       0.0000   9999     1020  0     0    
2019/07/01  02:27:00  BASE  2.74008  54   3.81024  48   -9.5  100   -9.5  0     0     997.9    NA       0.0000   9999     950   0     0    
2019/07/01  02:28:00  BASE  2.7048   60   3.81024  48   -9.5  100   -9.5  0     0     997.9    NA       0.0000   9999     980   0     0    
2019/07/01  02:29:00  BASE  2.7636   63   3.81024  48   -9.5  100   -9.5  0     0     997.9    NA       0.0000   9999     1020  0     0    
2019/07/01  02:30:01  BASE  2.84592  63   3.81024  48   -9.4  100   -9.4  0     0     997.9    NA       0.0000   9999     1050  0     0    
2019/07/01  02:31:00  BASE  2.53428  70   3.81024  48   -9.3  100   -9.3  0     0     997.9    NA       0.0000   9999     0     0     0    
2019/07/01  02:32:00  BASE  2.33436  71   3.81024  48   -9.2  100   -9.2  0     0     998.0    NA       0.0000   9999     1020  0     0    
2019/07/01  02:33:00  BASE  2.499    64   3.41628  51   -9.2  100   -9.2  0     0     997.9    NA       0.0000   9999     1020  0     0    
2019/07/01  02:34:00  BASE  2.44608  66   3.35748  54   -9.1  100   -9.1  0     0     997.9    NA       0.0000   9999     980   0     0    
2019/07/01  02:35:00  BASE  2.54604  65   3.1458   62   -9.0  100   -9.0  0     0     998.0    NA       0.0000   9999     950   0     0    
2019/07/01  02:36:00  BASE  2.83416  60   3.26928  57   -9.0  100   -9.0  0     0     998.0    NA       0.0000   9999     890   0     0    
2019/07/01  02:37:00  BASE  3.01644  56   3.26928  57   -9.0  100   -9.0  0     0     998.0    NA       0.0000   9999     890   0     0    
2019/07/01  02:38:00  BASE  2.94588  53   3.26928  57   -9.0  100   -9.0  0     0     998.0    NA       0.0000   9999     950   0     0    
2019/07/01  02:39:00  BASE  2.8224   52   3.26928  57   -9.0  100   -9.0  0     0     998.0    NA       0.0000   9999     980   0     0    
2019/07/01  02:40:00  BASE  2.86944  52   3.26928  57   -9.1  100   -9.1  0     0     998.0    NA       0.0000   9999     950   0     0    
2019/07/01  02:41:00  BASE  2.75772  54   3.26928  57   -9.1  100   -9.1  0     0     998.1    NA       0.0000   9999     950   0     0    
2019/07/01  02:42:00  BASE  2.57544  53   3.26928  57   -9.1  100   -9.1  0     0     998.2    NA       0.0000   9999     1020  0     0    
2019/07/01  02:43:00  BASE  2.5284   51   3.26928  57   -9.1  100   -9.1  0     0     998.2    NA       0.0000   9999     1020  0     0    
2019/07/01  02:44:00  BASE  2.55192  49   3.26928  57   -9.1  100   -9.1  0     0     998.2    NA       0.0000   9999     1080  0     0    
2019/07/01  02:45:00  BASE  2.4696   48   3.26928  57   -9.2  100   -9.2  0     0     998.2    NA       0.0000   9999     1150  0     0    
2019/07/01  02:46:00  BASE  2.42256  52   3.234    54   -9.2  100   -9.2  0     0     998.2    NA       0.0000   9999     1180  0     0    
2019/07/01  02:47:00  BASE  2.31084  53   3.1164   52   -9.2  100   -9.2  0     0     998.2    NA       0.0000   9999     1180  0     0    
2019/07/01  02:48:00  BASE  2.05212  50   3.087    54   -9.1  100   -9.1  0     0     998.2    NA       0.0000   9999     1150  0     0    
2019/07/01  02:49:00  BASE  1.94628  46   3.087    54   -9.1  100   -9.1  0     0     998.2    NA       0.0000   9999     1210  0     0    
2019/07/01  02:50:00  BASE  1.94628  46   2.93412  33   -9.1  100   -9.1  0     0     998.2    NA       0.0000   9999     1250  0     0    
2019/07/01  02:51:00  BASE  1.98744  43   2.93412  33   -9.1  100   -9.1  0     0     998.2    NA       0.0000   9999     1310  0     0    
2019/07/01  02:52:00  BASE  2.1756   45   2.93412  33   -9.2  100   -9.2  0     0     998.2    NA       0.0000   9999     1150  0     0    
2019/07/01  02:53:00  BASE  2.35788  54   2.93412  33   -9.2  100   -9.2  0     0     998.3    NA       0.0000   9999     1180  0     0    
2019/07/01  02:54:00  BASE  2.3814   60   2.75184  43   -9.3  100   -9.3  0     0     998.3    NA       0.0000   9999     1210  0     0    
2019/07/01  02:55:00  BASE  2.2932   59   2.75184  43   -9.3  100   -9.3  0     0     998.3    NA       0.0000   9999     1250  0     0    
2019/07/01  02:56:00  BASE  2.25792  55   2.75184  43   -9.4  100   -9.4  0     0     998.3    NA       0.0000   9999     1120  0     0    
2019/07/01  02:57:00  BASE  2.28144  49   2.75184  43   -9.4  100   -9.4  0     0     998.3    NA       0.0000   9999     1080  0     0    
2019/07/01  02:58:00  BASE  2.22264  57   2.75184  43   -9.4  100   -9.4  0     0     998.4    NA       0.0000   9999     1150  0     0    
2019/07/01  02:59:00  BASE  2.2638   60   2.75184  43   -9.4  100   -9.4  0     0     998.4    NA       0.0000   9999     0     0     0    
2019/07/01  03:00:00  BASE  2.39316  52   2.75184  53   -9.5  100   -9.5  0     0     998.4    NA       0.0000   9999     0     0     0    
2019/07/01  03:01:00  BASE  2.42844  51   2.75184  53   -9.4  100   -9.4  0     0     998.4    NA       0.0000   9999     0     0     0    
2019/07/01  03:02:00  BASE  2.16384  51   2.75184  53   -9.4  100   -9.4  0     0     998.4    NA       0.0000   9999     0     0     0    
2019/07/01  03:03:00  BASE  1.95216  52   2.75184  53   -9.4  100   -9.4  0     0     998.4    NA       0.0000   9999     0     0     0    
2019/07/01  03:04:00  BASE  2.06388  54   2.75184  53   -9.4  100   -9.4  0     0     998.4    NA       0.0000   9999     1150  0     0    
2019/07/01  03:05:00  BASE  2.1462   56   2.75184  53   -9.4  100   -9.4  0     0     998.5    NA       0.0000   9999     0     0     0    
2019/07/01  03:06:00  BASE  2.33436  54   2.96352  50   -9.4  100   -9.4  0     0     998.5    NA       0.0000   9999     1080  0     0    
2019/07/01  03:07:00  BASE  2.5578   54   2.96352  54   -9.3  100   -9.3  0     0     998.5    NA       0.0000   9999     0     0     0    
2019/07/01  03:08:00  BASE  2.39904  55   2.96352  54   -9.3  100   -9.3  0     0     998.5    NA       0.0000   9999     1080  0     0    
2019/07/01  03:09:00  BASE  1.98156  53   2.96352  54   -9.3  100   -9.3  0     0     998.5    NA       0.0000   9999     1080  0     0    
2019/07/01  03:10:00  BASE  1.71108  58   2.96352  54   -9.3  100   -9.3  0     0     998.5    NA       0.0000   9999     1120  0     0    
2019/07/01  03:11:00  BASE  2.05212  55   2.96352  54   -9.2  100   -9.2  0     0     998.6    NA       0.0000   9999     1120  0     0    
2019/07/01  03:12:00  BASE  2.60484  45   3.087    37   -9.2  100   -9.2  0     0     998.6    NA       0.0000   9999     1120  0     0    
2019/07/01  03:13:00  BASE  2.85768  39   3.1164   40   -9.2  100   -9.2  0     0     998.6    NA       0.0000   9999     1120  0     0    
2019/07/01  03:14:00  BASE  2.98116  38   3.26928  41   -9.3  100   -9.3  0     0     998.6    NA       0.0000   9999     1150  0     0    
2019/07/01  03:15:00  BASE  2.83416  45   3.26928  41   -9.3  100   -9.3  0     0     998.6    NA       0.0000   9999     1120  0     0    
2019/07/01  03:16:00  BASE  2.54016  47   3.26928  41   -9.4  100   -9.4  0     0     998.7    NA       0.0000   9999     0     0     0    
2019/07/01  03:17:00  BASE  2.50488  39   3.29868  37   -9.5  100   -9.5  0     0     998.8    NA       0.0000   9999     0     0     0    
2019/07/01  03:18:00  BASE  2.5284   35   3.29868  37   -9.5  100   -9.5  0     0     998.8    NA       0.0000   9999     1210  0     0    
2019/07/01  03:19:00  BASE  2.39316  36   3.29868  37   -9.5  100   -9.5  0     0     998.8    NA       0.0000   9999     1210  0     0    
2019/07/01  03:20:00  BASE  2.52252  37   3.29868  37   -9.4  100   -9.4  0     0     998.8    NA       0.0000   9999     1180  0     0    
2019/07/01  03:21:00  BASE  2.69304  39   3.29868  37   -9.5  100   -9.5  0     0     998.8    NA       0.0000   9999     1150  0     0    
2019/07/01  03:22:00  BASE  2.43432  40   3.29868  37   -9.5  100   -9.5  0     0     998.8    NA       0.0000   9999     0     0     0    
2019/07/01  03:23:00  BASE  2.31084  39   3.29868  37   -9.5  100   -9.5  0     0     998.8    NA       0.0000   9999     0     0     0    
2019/07/01  03:24:00  BASE  2.21676  41   3.29868  37   -9.5  100   -9.5  0     0     998.8    NA       0.0000   9999     0     0     0    
2019/07/01  03:25:00  BASE  2.39904  43   3.29868  37   -9.6  100   -9.6  0     0     998.8    NA       0.0000   9999     0     0     0    
2019/07/01  03:26:00  BASE  2.44608  43   3.29868  37   -9.5  100   -9.5  0     0     998.8    NA       0.0000   9999     0     0     0    
2019/07/01  03:27:00  BASE  2.44608  40   3.087    48   -9.5  100   -9.5  0     0     998.8    NA       0.0000   9999     0     0     0    
2019/07/01  03:28:00  BASE  2.9694   37   3.48096  42   -9.4  100   -9.4  0     0     998.8    NA       0.0000   9999     0     0     0    
2019/07/01  03:29:00  BASE  3.0282   41   3.48096  42   -9.4  100   -9.4  0     0     998.8    NA       0.0000   9999     0     0     0    
2019/07/01  03:30:00  BASE  2.94588  43   3.48096  42   -9.3  100   -9.3  0     0     998.8    NA       0.0000   9999     0     0     0    
2019/07/01  03:31:00  BASE  2.94588  43   3.48096  42   -9.3  100   -9.3  0     0     998.8    NA       0.0000   9999     0     0     0    
2019/07/01  03:32:00  BASE  2.8518   43   3.48096  42   -9.3  100   -9.3  0     0     998.9    NA       0.0000   9999     0     0     0    
2019/07/01  03:33:00  BASE  2.65188  41   3.48096  42   -9.3  100   -9.3  0     0     998.9    NA       0.0000   9999     0     0     0    
2019/07/01  03:34:00  BASE  2.62836  42   3.48096  42   -9.4  100   -9.4  0     0     998.9    NA       0.0000   9999     0     0     0    
2019/07/01  03:35:00  BASE  2.68716  43   3.48096  42   -9.4  100   -9.4  0     0     998.9    NA       0.0000   9999     0     0     0    
2019/07/01  03:36:00  BASE  2.50488  41   3.48096  42   -9.4  100   -9.4  0     0     998.9    NA       0.0000   9999     1610  0     0    
2019/07/01  03:37:00  BASE  2.28144  42   3.48096  42   -9.4  100   -9.4  0     0     999.0    NA       0.0000   9999     1640  0     0    
2019/07/01  03:38:00  BASE  2.19324  42   3.2046   41   -9.4  100   -9.4  0     0     999.0    NA       0.0000   9999     1570  0     0    
2019/07/01  03:39:00  BASE  2.15208  41   3.2046   41   -9.4  100   -9.4  0     0     999.0    NA       0.0000   9999     1640  0     0    
2019/07/01  03:40:00  BASE  2.01096  43   3.087    42   -9.4  100   -9.4  0     0     999.0    NA       0.0000   9999     1540  0     0    
2019/07/01  03:41:00  BASE  2.12856  45   2.96352  42   -9.3  100   -9.3  0     0     999.0    NA       0.0000   9999     1480  0     0    
2019/07/01  03:42:00  BASE  2.25204  44   2.93412  36   -9.3  100   -9.3  0     0     999.1    NA       0.0000   9999     1540  0     0    
2019/07/01  03:43:00  BASE  1.93452  42   2.93412  36   -9.3  100   -9.3  0     0     999.1    NA       0.0000   9999     1440  0     0    
2019/07/01  03:44:00  BASE  1.617    38   2.81064  37   -9.2  100   -9.2  0     0     999.1    NA       0.0000   9999     1410  0     0    
2019/07/01  03:45:00  BASE  1.4994   35   2.54016  51   -9.2  100   -9.2  0     0     999.1    NA       0.0000   9999     1250  0     0    
2019/07/01  03:46:00  BASE  1.42884  39   2.54016  51   -9.1  100   -9.1  0     0     999.1    NA       0.0000   9999     1180  0     0    
2019/07/01  03:47:00  BASE  1.34652  42   2.54016  51   -9.1  100   -9.1  0     0     999.1    NA       0.0000   9999     1050  0     0    
2019/07/01  03:48:00  BASE  1.09368  43   2.51076  41   -9.0  100   -9.0  0     0     999.1    NA       0.0000   9999     1150  0     0    
2019/07/01  03:49:00  BASE  0.98196  42   2.51076  41   -9.0  100   -9.0  0     0     999.1    NA       0.0000   9999     1250  0     0    
2019/07/01  03:50:00  BASE  1.0584   44   2.51076  41   -9.0  100   -9.0  0     0     999.2    NA       0.0000   9999     1050  0     0    
2019/07/01  03:51:00  BASE  1.1172   48   2.38728  40   -8.9  100   -8.9  0     0     999.2    NA       0.0000   9999     1180  0     0    
2019/07/01  03:52:00  BASE  1.1466   46   1.87572  36   -8.9  100   -8.9  0     0     999.2    NA       0.0000   9999     1210  0     0    
2019/07/01  03:53:00  BASE  1.21128  45   1.87572  36   -8.8  100   -8.8  0     0     999.2    NA       0.0000   9999     980   0     0    
2019/07/01  03:54:00  BASE  1.18776  39   1.69344  51   -8.8  100   -8.8  0     0     999.2    NA       0.0000   9999     980   0     0    
2019/07/01  03:55:00  BASE  1.1172   40   1.69344  51   -8.8  100   -8.8  0     0     999.2    NA       0.0000   9999     1020  0     0    
2019/07/01  03:56:00  BASE  1.17012  48   1.69344  51   -8.8  100   -8.8  0     0     999.3    NA       0.0000   9999     920   0     0    
2019/07/01  03:57:00  BASE  1.01136  50   1.51116  38   -8.8  100   -8.8  0     0     999.4    NA       0.0000   9999     1020  0     0    
2019/07/01  03:58:00  BASE  0.9702   54   1.51116  38   -8.8  100   -8.8  0     0     999.4    NA       0.0000   9999     950   0     0    
2019/07/01  03:59:00  BASE  1.18188  58   1.51116  38   -8.8  100   -8.8  0     0     999.4    NA       0.0000   9999     920   0     0    
2019/07/01  04:00:00  BASE  1.34064  58   1.54056  60   -8.8  100   -8.8  0     0     999.5    NA       0.0000   9999     980   0     0    
2019/07/01  04:01:00  BASE  1.42296  57   1.57584  58   -8.8  100   -8.8  0     0     999.5    NA       0.0000   9999     1080  0     0    
2019/07/01  04:02:00  BASE  1.41708  52   1.69344  36   -8.8  100   -8.8  0     0     999.5    NA       0.0000   9999     950   0     0    
2019/07/01  04:03:00  BASE  1.57584  36   2.0286   13   -8.8  100   -8.8  0     0     999.5    NA       0.0000   9999     850   0     0    
2019/07/01  04:04:00  BASE  1.7346   27   2.0286   13   -8.8  100   -8.8  0     0     999.5    NA       0.0000   9999     920   0     0    
2019/07/01  04:05:00  BASE  1.6464   27   2.0286   13   -8.8  100   -8.8  0     0     999.5    NA       0.0000   9999     980   0     0    
2019/07/01  04:06:00  BASE  1.56996  24   2.0286   13   -8.8  100   -8.8  0     0     999.6    NA       0.0000   9999     850   0     0    
2019/07/01  04:07:00  BASE  1.5582   26   2.0286   13   -8.8  100   -8.8  0     0     999.6    NA       0.0000   9999     890   0     0    
2019/07/01  04:08:00  BASE  1.50528  31   2.0286   13   -8.7  100   -8.7  0     0     999.6    NA       0.0000   9999     920   0     0    
2019/07/01  04:09:00  BASE  1.42296  35   2.0286   13   -8.7  100   -8.7  0     0     999.7    NA       0.0000   9999     720   0     0    
2019/07/01  04:10:00  BASE  1.45824  38   2.0286   13   -8.7  100   -8.7  0     0     999.7    NA       0.0000   9999     790   0     0    
2019/07/01  04:11:00  BASE  1.37592  40   2.0286   13   -8.6  100   -8.6  0     0     999.7    NA       0.0000   9999     890   0     0    
2019/07/01  04:12:00  BASE  1.2936   37   2.0286   13   -8.6  100   -8.6  0     0     999.7    NA       0.0000   9999     720   0     0    
2019/07/01  04:13:00  BASE  1.47     33   1.96392  23   -8.5  100   -8.5  0     0     999.7    NA       0.0000   9999     690   0     0    
2019/07/01  04:14:00  BASE  1.63464  30   1.84632  11   -8.5  100   -8.5  0     0     999.7    NA       0.0000   9999     920   0     0    
2019/07/01  04:15:00  BASE  1.75224  30   2.1462   40   -8.5  100   -8.5  0     0     999.7    NA       0.0000   9999     850   0     0    
2019/07/01  04:16:00  BASE  2.04624  32   2.66364  23   -8.5  100   -8.5  0     0     999.7    NA       0.0000   9999     820   0     0    
2019/07/01  04:17:00  BASE  2.45784  34   2.96352  31   -8.4  100   -8.4  0     0     999.7    NA       0.0000   9999     720   0     0    
2019/07/01  04:18:00  BASE  2.76948  38   3.32808  40   -8.4  100   -8.4  0     0     999.7    NA       0.0000   9999     980   0     0    
2019/07/01  04:19:00  BASE  2.8224   41   3.32808  40   -8.4  100   -8.4  0     0     999.8    NA       0.0000   9999     1020  0     0    
2019/07/01  04:20:00  BASE  2.75184  42   3.32808  40   -8.4  100   -8.4  0     0     999.8    NA       0.0000   9999     1120  0     0    
2019/07/01  04:21:00  BASE  2.8518   41   3.32808  40   -8.3  100   -8.3  0     0     999.8    NA       0.0000   9999     1180  0     0    
2019/07/01  04:22:00  BASE  2.71068  39   3.32808  40   -8.3  100   -8.3  0     0     999.8    NA       0.0000   9999     980   0     0    
2019/07/01  04:23:00  BASE  2.47548  38   3.32808  40   -8.3  100   -8.3  0     0     999.8    NA       0.0000   9999     950   0     0    
2019/07/01  04:24:00  BASE  2.41668  42   3.32808  40   -8.3  100   -8.3  0     0     999.9    NA       0.0000   9999     850   0     0    
2019/07/01  04:25:00  BASE  2.11092  51   3.32808  40   -8.3  100   -8.3  0     0     999.9    NA       0.0000   9999     950   0     0    
2019/07/01  04:26:00  BASE  1.85808  56   3.32808  40   -8.2  100   -8.2  0     0     999.9    NA       0.0000   9999     850   0     0    
2019/07/01  04:27:00  BASE  1.78752  62   3.32808  40   -8.2  100   -8.2  0     0     999.9    NA       0.0000   9999     720   0     0    
2019/07/01  04:28:00  BASE  1.7934   72   3.234    45   -8.1  100   -8.1  0     0     999.9    NA       0.0000   9999     620   0     0    
2019/07/01  04:29:00  BASE  1.64052  71   3.2046   51   -8.1  100   -8.1  0     0     1000.0   NA       0.0000   9999     590   0     0    
2019/07/01  04:30:00  BASE  1.22304  63   3.2046   51   -8.1  100   -8.1  0     0     1000.1   NA       0.0000   9999     750   0     0    
2019/07/01  04:31:00  BASE  1.13484  58   2.75184  43   -8.1  100   -8.1  0     0     1000.1   NA       0.0000   9999     820   0     0    
2019/07/01  04:32:00  BASE  1.19364  52   2.75184  43   -8.1  100   -8.1  0     0     1000.1   NA       0.0000   9999     720   0     0    
2019/07/01  04:33:00  BASE  1.12308  42   2.75184  43   -8.1  100   -8.1  0     0     1000.1   NA       0.0000   9999     720   0     0    
2019/07/01  04:34:00  BASE  1.29948  35   2.1462   59   -8.1  100   -8.1  0     0     1000.1   NA       0.0000   9999     850   0     0    
2019/07/01  04:35:00  BASE  1.4406   34   2.1462   59   -8.1  100   -8.1  0     0     1000.1   NA       0.0000   9999     850   0     0    
2019/07/01  04:36:00  BASE  1.4112   40   1.9992   65   -8.1  100   -8.1  0     0     1000.1   NA       0.0000   9999     1050  0     0    
2019/07/01  04:37:00  BASE  1.62876  46   1.9992   65   -8.0  100   -8.0  0     0     1000.1   NA       0.0000   9999     950   0     0    
2019/07/01  04:38:00  BASE  1.66404  49   1.96392  48   -8.0  100   -8.0  0     0     1000.1   NA       0.0000   9999     950   0     0    
2019/07/01  04:39:00  BASE  1.68168  47   2.51076  32   -8.0  100   -8.0  0     0     1000.1   NA       0.0000   9999     980   0     0    
2019/07/01  04:40:00  BASE  1.94628  38   2.69304  21   -8.0  100   -8.0  0     0     1000.1   NA       0.0000   9999     1020  0     0    
2019/07/01  04:41:00  BASE  1.77576  27   2.69304  21   -8.0  100   -8.0  0     0     1000.1   NA       0.0000   9999     1120  0     0    
2019/07/01  04:42:00  BASE  1.24656  26   2.69304  21   -7.9  100   -7.9  0     0     1000.2   NA       0.0000   9999     1080  0     0    
2019/07/01  04:43:00  BASE  0.89376  15   2.69304  21   -7.9  100   -7.9  0     0     1000.2   NA       0.0000   9999     950   0     0    
2019/07/01  04:44:00  BASE  0.7644   358  2.69304  21   -7.9  100   -7.9  0     0     1000.2   NA       0.0000   9999     850   0     0    
2019/07/01  04:45:01  BASE  0.34692  8    2.69304  21   -7.8  100   -7.8  0     0     1000.2   NA       0.0000   9999     820   0     0    
2019/07/01  04:46:00  BASE  0        18   2.69304  21   -7.8  100   -7.8  0     0     1000.2   NA       0.0000   9999     750   0     0    
2019/07/01  04:47:00  BASE  0        35   2.69304  21   -7.8  100   -7.8  0     0     1000.3   NA       0.0000   9999     720   0     0    
2019/07/01  04:48:00  BASE  0        142  2.69304  21   -7.7  100   -7.7  0     0     1000.3   NA       0.0000   9999     620   0     0    
2019/07/01  04:49:00  BASE  0.31752  219  2.69304  21   -7.7  100   -7.7  0     0     1000.3   NA       0.0000   9999     720   0     0    
2019/07/01  04:50:00  BASE  0.78204  248  1.75224  26   -7.6  100   -7.6  0     0     1000.3   NA       0.0000   9999     920   0     0    
2019/07/01  04:51:00  BASE  0.87612  255  1.42296  24   -7.6  100   -7.6  0     0     1000.3   NA       0.0000   9999     890   0     0    
2019/07/01  04:52:00  BASE  0.72324  262  1.24068  349  -7.5  100   -7.5  0     0     1000.3   NA       0.0000   9999     750   0     0    
2019/07/01  04:53:00  BASE  0.31164  277  1.1172   236  -7.5  100   -7.5  0     0     1000.3   NA       0.0000   9999     820   0     0    
2019/07/01  04:54:00  BASE  0        310  1.1172   236  -7.4  100   -7.4  0     0     1000.3   NA       0.0000   9999     850   0     0    
2019/07/01  04:55:00  BASE  0        348  1.1172   236  -7.5  100   -7.5  0     0     1000.3   NA       0.0000   9999     660   0     0    
2019/07/01  04:56:00  BASE  0.17052  356  1.1172   236  -7.5  100   -7.5  0     0     1000.3   NA       0.0000   9999     750   0     0    
2019/07/01  04:57:00  BASE  0.71148  351  1.48176  13   -7.5  100   -7.5  0     0     1000.3   NA       0.0000   9999     890   0     0    
2019/07/01  04:58:00  BASE  1.42884  352  2.24028  340  -7.5  100   -7.5  0     0     1000.3   NA       0.0000   9999     1020  0     0    
2019/07/01  04:59:00  BASE  1.81104  358  2.24028  30   -7.5  100   -7.5  0     0     1000.3   NA       0.0000   9999     1080  0     0    
2019/07/01  05:00:00  BASE  2.16384  17   2.69304  23   -7.5  100   -7.5  0     0     1000.3   NA       0.0000   9999     1080  0     0    
2019/07/01  05:01:00  BASE  2.3226   22   2.69304  31   -7.5  100   -7.5  0     0     1000.4   NA       0.0000   9999     1050  0     0    
2019/07/01  05:02:00  BASE  1.9404   19   2.69304  31   -7.5  100   -7.5  0     0     1000.4   NA       0.0000   9999     1050  0     0    
2019/07/01  05:03:00  BASE  1.8816   19   2.69304  31   -7.5  100   -7.5  0     0     1000.4   NA       0.0000   9999     980   0     0    
2019/07/01  05:04:00  BASE  1.94628  22   2.69304  31   -7.5  100   -7.5  0     0     1000.4   NA       0.0000   9999     980   0     0    
2019/07/01  05:05:00  BASE  1.617    20   2.69304  31   -7.6  100   -7.6  0     0     1000.4   NA       0.0000   9999     1020  0     0    
2019/07/01  05:06:00  BASE  1.28772  29   2.69304  31   -7.6  100   -7.6  0     0     1000.4   NA       0.0000   9999     980   0     0    
2019/07/01  05:07:00  BASE  0.59976  42   2.69304  31   -7.6  100   -7.6  0     0     1000.5   NA       0.0000   9999     920   0     0    
2019/07/01  05:08:00  BASE  0.5292   42   2.69304  31   -7.5  100   -7.5  0     0     1000.5   NA       0.0000   9999     950   0     0    
2019/07/01  05:09:00  BASE  1.05252  38   2.69304  31   -7.5  100   -7.5  0     0     1000.5   NA       0.0000   9999     890   0     0    
2019/07/01  05:10:00  BASE  0.9996   31   2.69304  31   -7.5  100   -7.5  0     0     1000.5   NA       0.0000   9999     1020  0     0    
2019/07/01  05:11:00  BASE  0.9996   16   2.32848  15   -7.5  100   -7.5  0     0     M        NA       0.0000   9999     980   0     0    
2019/07/01  05:12:00  BASE  0.82908  17   2.32848  15   -7.5  100   -7.5  0     0     1000.5   NA       0.0000   9999     1050  0     0    
2019/07/01  05:13:00  BASE  1.06428  43   2.1756   12   -7.5  100   -7.5  0     0     1000.5   NA       0.0000   9999     1080  0     0    
2019/07/01  05:14:00  BASE  1.9698   32   2.81064  18   -7.5  100   -7.5  0     0     1000.5   NA       0.0000   9999     1020  0     0    
2019/07/01  05:15:00  BASE  2.39904  17   2.81064  18   -7.5  100   -7.5  0     0     1000.5   NA       0.0000   9999     1020  0     0    
2019/07/01  05:16:00  BASE  2.34612  18   2.81064  18   -7.5  100   -7.5  0     0     1000.5   NA       0.0000   9999     1120  0     0    
2019/07/01  05:17:00  BASE  2.12268  23   2.81064  18   -7.6  100   -7.6  0     0     1000.6   NA       0.0000   9999     1020  0     0    
2019/07/01  05:18:00  BASE  1.83456  30   2.81064  18   -7.6  100   -7.6  0     0     1000.7   NA       0.0000   9999     1120  0     0    
2019/07/01  05:19:00  BASE  1.8816   29   2.81064  18   -7.6  100   -7.6  0     0     1000.7   NA       0.0000   9999     950   0     0    
2019/07/01  05:20:01  BASE  2.13444  28   2.81064  18   -7.5  100   -7.5  0     0     1000.7   NA       0.0000   9999     950   0     0    
2019/07/01  05:21:00  BASE  2.2344   30   2.81064  18   -7.5  100   -7.5  0     0     1000.7   NA       0.0000   9999     890   0     0    
2019/07/01  05:22:00  BASE  2.42844  32   2.87532  35   -7.5  100   -7.5  0     0     1000.7   NA       0.0000   9999     920   0     0    
2019/07/01  05:23:00  BASE  2.64012  38   2.90472  36   -7.5  100   -7.5  0     0     1000.7   NA       0.0000   9999     950   0     0    
2019/07/01  05:24:00  BASE  2.66364  42   2.90472  46   -7.5  100   -7.5  0     0     1000.7   NA       0.0000   9999     980   0     0    
2019/07/01  05:25:00  BASE  2.59308  44   2.90472  46   -7.5  100   -7.5  0     0     1000.8   NA       0.0000   9999     920   0     0    
2019/07/01  05:26:00  BASE  2.46372  46   2.90472  46   -7.6  100   -7.6  0     0     1000.8   NA       0.0000   9999     790   0     0    
2019/07/01  05:27:00  BASE  2.2638   49   2.90472  46   -7.6  100   -7.6  0     0     1000.8   NA       0.0000   9999     620   0     0    
2019/07/01  05:28:00  BASE  2.25204  51   2.90472  46   -7.6  100   -7.6  0     0     1000.8   NA       0.0000   9999     890   0     0    
2019/07/01  05:29:00  BASE  2.352    54   2.90472  46   -7.6  100   -7.6  0     0     1000.8   NA       0.0000   9999     950   0     0    
2019/07/01  05:30:00  BASE  2.2344   58   2.90472  46   -7.6  100   -7.6  0     0     1000.9   NA       0.0000   9999     890   0     0    
2019/07/01  05:31:00  BASE  2.1168   54   2.90472  46   -7.6  100   -7.6  0     0     1000.9   NA       0.0000   9999     790   0     0    
2019/07/01  05:32:00  BASE  1.81104  51   2.90472  46   -7.6  100   -7.6  0     0     1000.9   NA       0.0000   9999     690   0     0    
2019/07/01  05:33:00  BASE  1.74636  53   2.90472  46   -7.6  100   -7.6  0     0     1000.9   NA       0.0000   9999     560   0     0    
2019/07/01  05:34:00  BASE  1.98156  49   2.81064  43   -7.6  100   -7.6  0     0     1000.9   NA       0.0000   9999     1020  0     0    
2019/07/01  05:35:00  BASE  1.7934   36   2.66364  56   -7.6  100   -7.6  0     0     1000.9   NA       0.0000   9999     1080  0     0    
2019/07/01  05:36:00  BASE  1.5876   34   2.66364  56   -7.6  100   -7.6  0     0     1000.9   NA       0.0000   9999     1080  0     0    
2019/07/01  05:37:00  BASE  1.46412  36   2.66364  56   -7.6  100   -7.6  0     0     1000.9   NA       0.0000   9999     950   0     0    
2019/07/01  05:38:00  BASE  1.19952  38   2.54016  47   -7.6  100   -7.6  0     0     1000.9   NA       0.0000   9999     980   0     0    
2019/07/01  05:39:00  BASE  1.0878   57   2.35788  59   -7.6  100   -7.6  0     0     1000.9   NA       0.0000   9999     980   0     0    
2019/07/01  05:40:00  BASE  1.14072  69   2.35788  59   -7.6  100   -7.6  0     0     1000.9   NA       0.0000   9999     920   0     0    
2019/07/01  05:41:00  BASE  1.176    69   2.21088  42   -7.6  100   -7.6  0     0     1000.9   NA       0.0000   9999     850   0     0    
2019/07/01  05:42:00  BASE  1.09956  65   2.21088  42   -7.5  100   -7.5  0     0     1001.0   NA       0.0000   9999     750   0     0    
2019/07/01  05:43:00  BASE  1.11132  65   2.21088  42   -7.5  100   -7.5  0     0     1001.0   NA       0.0000   9999     890   0     0    
2019/07/01  05:44:00  BASE  1.08192  68   1.84632  32   -7.5  100   -7.5  0     0     1001.0   NA       0.0000   9999     890   0     0    
2019/07/01  05:45:00  BASE  0.81144  59   1.72284  46   -7.5  100   -7.5  0     0     1001.0   NA       0.0000   9999     890   0     0    
2019/07/01  05:46:00  BASE  0.81732  58   1.57584  79   -7.5  100   -7.5  0     0     1001.0   NA       0.0000   9999     920   0     0    
2019/07/01  05:47:00  BASE  1.18776  59   1.63464  59   -7.5  100   -7.5  0     0     1001.0   NA       0.0000   9999     950   0     0    
2019/07/01  05:48:00  BASE  1.39356  48   1.63464  59   -7.5  100   -7.5  0     0     1001.0   NA       0.0000   9999     920   0     0    
2019/07/01  05:49:00  BASE  1.17012  52   1.63464  59   -7.5  100   -7.5  0     0     1001.0   NA       0.0000   9999     1050  0     0    
2019/07/01  05:50:00  BASE  0.87024  69   1.63464  59   -7.4  100   -7.4  0     0     1001.0   NA       0.0000   9999     980   0     0    
2019/07/01  05:51:00  BASE  0.75264  78   1.63464  59   -7.5  100   -7.5  0     0     1001.1   NA       0.0000   9999     980   0     0    
2019/07/01  05:52:00  BASE  0.89964  82   1.63464  59   -7.5  100   -7.5  0     0     1001.1   NA       0.0000   9999     920   0     0    
2019/07/01  05:53:00  BASE  1.029    90   1.63464  59   -7.5  100   -7.5  0     0     1001.1   NA       0.0000   9999     690   0     0    
2019/07/01  05:54:00  BASE  0.79968  90   1.63464  59   -7.5  100   -7.5  0     0     1001.1   NA       0.0000   9999     660   0     0    
2019/07/01  05:55:00  BASE  0.39396  97   1.63464  59   -7.4  100   -7.4  0     0     1001.1   NA       0.0000   9999     750   0     0    
2019/07/01  05:56:00  BASE  0.19992  107  1.63464  59   -7.4  100   -7.4  0     0     1001.2   NA       0.0000   9999     750   0     0    
2019/07/01  05:57:00  BASE  0.59976  106  1.60524  51   -7.3  100   -7.3  0     0     1001.3   NA       0.0000   9999     950   0     0    
2019/07/01  05:58:00  BASE  0.89376  115  1.29948  44   -7.3  100   -7.3  0     0     1001.3   NA       0.0000   9999     950   0     0    
2019/07/01  05:59:00  BASE  0.63504  148  1.24068  87   -7.3  100   -7.3  0     0     1001.3   NA       0.0000   9999     980   0     0    
2019/07/01  06:00:00  BASE  0.6174   170  1.24068  87   -7.4  100   -7.4  0     0     1001.3   NA       0.0000   9999     1050  0     0    
2019/07/01  06:01:00  BASE  0.86436  173  1.24068  188  -7.4  100   -7.4  0     0     1001.4   NA       0.0000   9999     1020  0     0    
2019/07/01  06:02:00  BASE  1.029    185  1.54056  199  -7.4  100   -7.4  0     0     1001.4   NA       0.0000   9999     950   0     0    
2019/07/01  06:03:00  BASE  1.18776  207  1.54056  199  -7.3  100   -7.3  0     0     1001.4   NA       0.0000   9999     950   0     0    
2019/07/01  06:04:00  BASE  0.75852  217  1.54056  199  -7.2  100   -7.2  0     0     1001.4   NA       0.0000   9999     950   0     0    
2019/07/01  06:05:00  BASE  0.13524  217  1.54056  199  -7.2  100   -7.2  0     0     1001.4   NA       0.0000   9999     1080  0     0    
2019/07/01  06:06:00  BASE  0.147    216  1.54056  199  -7.1  100   -7.1  0     0     1001.4   NA       0.0000   9999     1120  0     0    
2019/07/01  06:07:00  BASE  0.147    201  1.54056  199  -7.1  100   -7.1  0     0     1001.5   NA       0.0000   9999     1120  0     0    
2019/07/01  06:08:00  BASE  0        197  1.54056  199  -7.0  100   -7.0  0     0     1001.5   NA       0.0000   9999     1080  0     0    
2019/07/01  06:09:00  BASE  0.41748  206  1.54056  199  -7.0  100   -7.0  0     0     1001.5   NA       0.0000   9999     1080  0     0    
2019/07/01  06:10:00  BASE  0.5292   212  1.54056  199  -7.0  100   -7.0  0     0     1001.5   NA       0.0000   9999     1050  0     0    
2019/07/01  06:11:00  BASE  0.4116   238  1.54056  199  -7.0  100   -7.0  0     0     1001.5   NA       0.0000   9999     1080  0     0    
2019/07/01  06:12:00  BASE  0.63504  279  1.51116  206  -7.0  100   -7.0  0     0     1001.6   NA       0.0000   9999     1020  0     0    
2019/07/01  06:13:00  BASE  0.92904  294  1.54056  287  -6.9  100   -6.9  0     0     1001.6   NA       0.0000   9999     1050  0     0    
2019/07/01  06:14:00  BASE  1.11132  295  1.54056  287  -6.9  100   -6.9  0     0     1001.6   NA       0.0000   9999     1080  0     0    
2019/07/01  06:15:00  BASE  0.71148  294  1.54056  287  -6.9  100   -6.9  0     0     1001.6   NA       0.0000   9999     1050  0     0    
2019/07/01  06:16:00  BASE  0.31164  284  1.54056  287  -6.9  100   -6.9  0     0     1001.6   NA       0.0000   9999     1020  0     0    
2019/07/01  06:17:00  BASE  0.1176   273  1.54056  287  -7.0  100   -7.0  0     0     1001.6   NA       0.0000   9999     1020  0     0    
2019/07/01  06:18:00  BASE  0        235  1.54056  287  -7.0  100   -7.0  0     0     1001.6   NA       0.0000   9999     950   0     0    
2019/07/01  06:19:00  BASE  0.04116  172  1.54056  287  -7.0  100   -7.0  0     0     1001.6   NA       0.0000   9999     950   0     0    
2019/07/01  06:20:00  BASE  0.48216  160  1.54056  287  -7.0  100   -7.0  0     0     1001.6   NA       0.0000   9999     820   0     0    
2019/07/01  06:21:00  BASE  0.9408   160  1.54056  287  -7.0  100   -7.0  0     0     1001.6   NA       0.0000   9999     950   0     0    
2019/07/01  06:22:00  BASE  0.72324  151  1.54056  287  -7.0  100   -7.0  0     0     1001.6   NA       0.0000   9999     1020  0     0    
2019/07/01  06:23:00  BASE  0.72324  151  1.27008  151  -7.0  100   -7.0  0     0     1001.7   NA       0.0000   9999     1050  0     0    
2019/07/01  06:24:00  BASE  1.2936   155  2.38728  164  -7.0  100   -7.0  0     0     1001.7   NA       0.0000   9999     920   0     0    
2019/07/01  06:25:00  BASE  1.33476  152  2.38728  164  -7.0  100   -7.0  0     0     1001.7   NA       0.0000   9999     1020  0     0    
2019/07/01  06:26:00  BASE  1.12308  144  2.38728  164  -7.0  100   -7.0  0     0     1001.7   NA       0.0000   9999     1020  0     0    
2019/07/01  06:27:00  BASE  1.13484  137  2.38728  164  -7.0  100   -7.0  0     0     1001.7   NA       0.0000   9999     980   0     0    
2019/07/01  06:28:00  BASE  1.07604  128  2.38728  164  -7.0  100   -7.0  0     0     1001.7   NA       0.0000   9999     1050  0     0    
2019/07/01  06:29:00  BASE  1.15836  119  2.38728  164  -7.0  100   -7.0  0     0     1001.7   NA       0.0000   9999     1020  0     0    
2019/07/01  06:30:00  BASE  1.17012  118  2.38728  164  -7.0  100   -7.0  0     0     1001.8   NA       0.0000   9999     920   0     0    
2019/07/01  06:31:00  BASE  0.97608  124  2.38728  164  -7.0  100   -7.0  0     0     1001.8   NA       0.0000   9999     980   0     0    
2019/07/01  06:32:00  BASE  0.882    142  2.38728  164  -7.0  100   -7.0  0     0     1001.8   NA       0.0000   9999     1050  0     0    
2019/07/01  06:33:00  BASE  0.95256  158  2.38728  164  -7.0  100   -7.0  0     0     1001.8   NA       0.0000   9999     1050  0     0    
2019/07/01  06:34:00  BASE  1.11132  166  1.60524  123  -7.0  100   -7.0  0     0     1001.8   NA       0.0000   9999     1080  0     0    
2019/07/01  06:35:00  BASE  1.29948  170  1.60524  123  -7.0  100   -7.0  0     0     1001.8   NA       0.0000   9999     1050  0     0    
2019/07/01  06:36:00  BASE  1.48764  170  1.93452  175  -6.9  100   -6.9  0     0     1001.9   NA       0.0000   9999     1020  0     0    
2019/07/01  06:37:00  BASE  1.69344  179  2.21088  207  -6.9  100   -6.9  0     0     1002.0   NA       0.0000   9999     980   0     0    
2019/07/01  06:38:00  BASE  1.5582   179  2.21088  207  -6.9  100   -6.9  0     0     1002.0   NA       0.0000   9999     980   0     0    
2019/07/01  06:39:00  BASE  1.25832  165  2.21088  207  -6.9  100   -6.9  0     0     1002.0   NA       0.0000   9999     1050  0     0    
2019/07/01  06:40:00  BASE  1.25832  142  2.21088  207  -6.9  100   -6.9  0     0     1002.0   NA       0.0000   9999     980   0     0    
2019/07/01  06:41:00  BASE  1.31712  133  2.21088  207  -6.9  100   -6.9  0     0     1002.0   NA       0.0000   9999     980   0     0    
2019/07/01  06:42:00  BASE  1.48176  141  2.21088  207  -7.0  100   -7.0  0     0     1002.1   NA       0.0000   9999     1050  0     0    
2019/07/01  06:43:00  BASE  1.99332  148  2.63424  157  -7.0  100   -7.0  0     0     1002.1   NA       0.0000   9999     1050  0     0    
2019/07/01  06:44:00  BASE  2.39316  161  2.69304  162  -7.0  100   -7.0  0     0     1002.1   NA       0.0000   9999     980   0     0    
2019/07/01  06:45:00  BASE  2.2638   168  2.69304  162  -7.0  100   -7.0  0     0     1002.2   NA       0.0000   9999     950   0     0    
2019/07/01  06:46:00  BASE  2.03448  176  2.69304  162  -7.0  100   -7.0  0     0     1002.2   NA       0.0000   9999     950   0     0    
2019/07/01  06:47:00  BASE  2.06388  181  2.69304  162  -7.0  100   -7.0  0     0     1002.2   NA       0.0000   9999     980   0     0    
2019/07/01  06:48:00  BASE  2.16972  180  2.69304  162  -6.9  100   -6.9  0     0     1002.2   NA       0.0000   9999     1120  0     0    
2019/07/01  06:49:00  BASE  1.95216  180  2.69304  162  -6.9  100   -6.9  0     0     1002.2   NA       0.0000   9999     1150  0     0    
2019/07/01  06:50:00  BASE  1.91688  186  2.69304  162  -6.9  100   -6.9  0     0     1002.2   NA       0.0000   9999     1050  0     0    
2019/07/01  06:51:00  BASE  1.86396  200  2.69304  162  -6.9  100   -6.9  0     0     1002.2   NA       0.0000   9999     1050  0     0    
2019/07/01  06:52:00  BASE  1.58172  199  2.69304  162  -6.9  100   -6.9  0     0     1002.2   NA       0.0000   9999     1120  0     0    
2019/07/01  06:53:00  BASE  2.05212  200  2.90472  205  -6.9  100   -6.9  0     0     1002.2   NA       0.0000   9999     1080  0     0    
2019/07/01  06:54:00  BASE  2.51664  205  2.93412  202  -6.9  100   -6.9  0     0     1002.2   NA       0.0000   9999     1080  0     0    
2019/07/01  06:55:00  BASE  2.34612  206  2.93412  221  -6.9  100   -6.9  0     0     1002.2   NA       0.0000   9999     1050  0     0    
2019/07/01  06:56:00  BASE  2.499    217  3.41628  232  -6.9  100   -6.9  0     0     1002.2   NA       0.0000   9999     1050  0     0    
2019/07/01  06:57:00  BASE  2.78712  222  3.41628  232  -6.9  100   -6.9  0     0     1002.2   NA       0.0000   9999     1020  0     0    
2019/07/01  06:58:00  BASE  2.43432  217  3.41628  232  -6.9  100   -6.9  0     0     1002.2   NA       0.0000   9999     950   0     0    
2019/07/01  06:59:00  BASE  2.00508  218  3.41628  232  -6.9  100   -6.9  0     0     1002.2   NA       0.0000   9999     1150  0     0    
2019/07/01  07:00:00  BASE  1.82868  213  3.41628  232  -6.9  100   -6.9  0     0     1002.2   NA       0.0000   9999     1050  0     0    
2019/07/01  07:01:00  BASE  1.65228  196  3.41628  232  -6.9  100   -6.9  0     0     1002.2   NA       0.0000   9999     1020  0     0    
2019/07/01  07:02:00  BASE  1.56996  187  3.41628  232  -6.9  100   -6.9  0     0     1002.3   NA       0.0000   9999     1050  0     0    
2019/07/01  07:03:00  BASE  1.1172   191  3.41628  232  -6.9  100   -6.9  0     0     1002.3   NA       0.0000   9999     980   0     0    
2019/07/01  07:04:00  BASE  0.79968  192  3.41628  232  -6.9  100   -6.9  0     0     1002.3   NA       0.0000   9999     1050  0     0    
2019/07/01  07:05:00  BASE  0.54096  190  3.41628  232  -6.9  100   -6.9  0     0     1002.4   NA       0.0000   9999     1050  0     0    
2019/07/01  07:06:00  BASE  0.08232  188  3.087    224  -6.9  99    -6.9  0     0     1002.5   NA       0.0000   9999     1050  0     0    
2019/07/01  07:07:00  BASE  0        212  2.72244  200  -6.9  99    -7.0  0     0     1002.5   NA       0.0000   9999     1050  0     0    
2019/07/01  07:08:00  BASE  0.2646   337  2.35788  210  -6.9  99    -7.0  0     0     1002.5   NA       0.0000   9999     1080  0     0    
2019/07/01  07:09:00  BASE  0.77616  347  2.21088  184  -6.9  99    -7.0  0     0     1002.5   NA       0.0000   9999     1050  0     0    
2019/07/01  07:10:00  BASE  1.06428  355  2.21088  184  -6.9  99    -7.0  0     0     1002.5   NA       0.0000   9999     1120  0     0    
2019/07/01  07:11:00  BASE  1.323    351  1.78752  194  -6.9  99    -7.1  0     0     1002.5   NA       0.0000   9999     1120  0     0    
2019/07/01  07:12:00  BASE  1.42296  348  1.63464  346  -6.9  99    -7.0  0     0     1002.6   NA       0.0000   9999     1210  0     0    
2019/07/01  07:13:00  BASE  1.1172   352  1.63464  346  -6.9  99    -7.0  0     0     1002.6   NA       0.0000   9999     1210  0     0    
2019/07/01  07:14:00  BASE  0.51744  352  1.63464  346  -6.8  99    -7.0  0     0     1002.6   NA       0.0000   9999     1210  0     0    
2019/07/01  07:15:00  BASE  0.62328  349  1.63464  346  -6.8  98    -7.0  0     0     1002.6   NA       0.0000   9999     1180  0     0    
2019/07/01  07:16:00  BASE  1.30536  348  1.93452  6    -6.8  98    -7.0  0     0     1002.6   NA       0.0000   9999     1180  0     0    
2019/07/01  07:17:00  BASE  1.49352  7    1.93452  6    -6.8  98    -7.0  0     0     1002.6   NA       0.0000   9999     1210  0     0    
2019/07/01  07:18:00  BASE  1.22892  25   1.93452  6    -6.8  98    -7.1  0     0     1002.7   NA       0.0000   9999     1210  0     0    
2019/07/01  07:19:00  BASE  0.74088  37   1.93452  6    -6.8  98    -7.1  0     0     1002.7   NA       0.0000   9999     1210  0     0    
2019/07/01  07:20:00  BASE  0.31752  48   1.93452  6    -6.8  98    -7.1  0     0     1002.7   NA       0.0000   9999     1180  0     0    
2019/07/01  07:21:00  BASE  0.2058   51   1.93452  6    -6.8  98    -7.1  0     0     1002.8   NA       0.0000   9999     1150  0     0    
2019/07/01  07:22:00  BASE  0.75852  36   1.93452  6    -6.8  98    -7.1  0     0     1002.7   NA       0.0000   9999     1150  0     0    
2019/07/01  07:23:00  BASE  1.2054   2    1.93452  6    -6.8  98    -7.1  0     0     1002.7   NA       0.0000   9999     1180  0     0    
2019/07/01  07:24:00  BASE  0.9408   347  1.93452  6    -6.8  98    -7.0  0     0     1002.7   NA       0.0000   9999     1120  0     0    
2019/07/01  07:25:01  BASE  1.32888  351  2.54016  345  -6.8  98    -7.0  0     0     1002.8   NA       0.0000   9999     1150  0     0    
2019/07/01  07:26:00  BASE  2.25204  349  2.93412  341  -6.7  98    -7.0  0     0     1002.8   NA       0.0000   9999     1180  0     0    
2019/07/01  07:27:00  BASE  2.68716  351  3.087    85   -6.7  98    -6.9  0     0     1002.8   NA       0.0000   9999     1080  0     0    
2019/07/01  07:28:00  BASE  2.87532  344  3.26928  321  -6.6  99    -6.8  0     0     1002.8   NA       0.0000   9999     1050  0     0    
2019/07/01  07:29:00  BASE  2.96352  313  3.41628  278  -6.6  99    -6.8  0     0     1002.8   NA       0.0000   9999     1020  0     0    
2019/07/01  07:30:00  BASE  3.06348  285  3.51036  266  -6.6  99    -6.7  0     0     1002.7   NA       0.0000   9999     1050  0     0    
2019/07/01  07:31:00  BASE  2.84592  261  3.51036  266  -6.6  99    -6.7  0     0     1002.8   NA       0.0000   9999     1120  0     0    
2019/07/01  07:32:00  BASE  2.15796  249  3.51036  266  -6.6  99    -6.8  0     0     1002.8   NA       0.0000   9999     1120  0     0    
2019/07/01  07:33:00  BASE  1.53468  261  3.51036  266  -6.7  99    -6.8  0     0     1002.8   NA       0.0000   9999     1210  0     0    
2019/07/01  07:34:00  BASE  1.34652  273  3.51036  266  -6.7  99    -6.8  0     0     1002.8   NA       0.0000   9999     1280  0     0    
2019/07/01  07:35:00  BASE  1.8816   260  3.51036  266  -6.7  99    -6.8  0     0     1002.8   NA       0.0000   9999     1280  0     0    
2019/07/01  07:36:00  BASE  1.92276  229  3.51036  266  -6.7  99    -6.8  0     0     1002.9   NA       0.0000   9999     1310  0     0    
2019/07/01  07:37:00  BASE  1.09956  212  3.51036  266  -6.7  99    -6.8  0     0     1002.9   NA       0.0000   9999     1280  0     0    
2019/07/01  07:38:00  BASE  0.8232   207  3.51036  266  -6.7  99    -6.9  0     0     1002.9   NA       0.0000   9999     1280  0     0    
2019/07/01  07:39:00  BASE  0.87612  198  3.51036  266  -6.8  99    -6.9  0     0     1002.9   NA       0.0000   9999     1280  0     0    
2019/07/01  07:40:01  BASE  1.13484  199  3.26928  252  -6.8  99    -6.9  0     0     1002.9   NA       0.0000   9999     1280  0     0    
2019/07/01  07:41:00  BASE  1.43472  192  2.81064  252  -6.8  99    -6.9  0     0     1002.9   NA       0.0000   9999     1310  0     0    
2019/07/01  07:42:00  BASE  1.31124  176  2.81064  252  -6.8  99    -6.9  0     0     1002.9   NA       0.0000   9999     1280  0     0    
2019/07/01  07:43:00  BASE  1.08192  181  2.81064  252  -6.8  99    -7.0  0     0     1002.9   NA       0.0000   9999     1280  0     0    
2019/07/01  07:44:00  BASE  1.02312  180  2.81064  252  -6.9  99    -7.0  0     0     1002.9   NA       0.0000   9999     1250  0     0    
2019/07/01  07:45:00  BASE  0.98784  171  1.84632  209  -6.9  99    -7.0  0     0     1002.9   NA       0.0000   9999     1210  0     0    
2019/07/01  07:46:00  BASE  1.08192  158  1.84632  209  -6.9  99    -7.1  0     0     1002.9   NA       0.0000   9999     1120  0     0    
2019/07/01  07:47:00  BASE  1.30536  151  1.84632  209  -6.9  99    -7.1  0     0     1003.0   NA       0.0000   9999     1050  0     0    
2019/07/01  07:48:00  BASE  1.2054   156  1.84632  209  -6.9  98    -7.1  0     0     1003.0   NA       0.0000   9999     1080  0     0    
2019/07/01  07:49:00  BASE  0.99372  148  1.84632  209  -6.9  98    -7.1  0     0     1003.0   NA       0.0000   9999     1210  0     0    
2019/07/01  07:50:01  BASE  0.82908  137  1.63464  179  -6.9  98    -7.2  0     0     1003.1   NA       0.0000   9999     1210  0     0    
2019/07/01  07:51:00  BASE  0.35868  110  1.51116  156  -6.9  98    -7.1  0     0     1003.1   NA       0.0000   9999     1210  0     0    
2019/07/01  07:52:00  BASE  0.24696  63   1.51116  156  -6.9  98    -7.1  0     0     1003.2   NA       0.0000   9999     1210  0     0    
2019/07/01  07:53:00  BASE  0.71736  68   1.51116  156  -6.8  98    -7.1  0     0     1003.2   NA       0.0000   9999     1210  0     0    
2019/07/01  07:54:00  BASE  1.25244  95   1.87572  101  -6.8  98    -7.1  0     0     1003.2   NA       0.0000   9999     1250  0     0    
2019/07/01  07:55:00  BASE  1.46412  93   1.87572  84   -6.8  98    -7.1  0     0     1003.2   NA       0.0000   9999     1210  0     0    
2019/07/01  07:56:00  BASE  1.8522   86   2.99292  79   -6.8  98    -7.1  0     0     1003.2   NA       0.0000   9999     1250  0     0    
2019/07/01  07:57:00  BASE  2.352    83   2.99292  79   -6.8  98    -7.1  0     0     1003.2   NA       0.0000   9999     1250  0     0    
2019/07/01  07:58:00  BASE  2.41668  78   2.99292  79   -6.9  98    -7.2  0     0     1003.2   NA       0.0000   9999     1250  0     0    
2019/07/01  07:59:00  BASE  2.47548  76   2.99292  79   -6.9  98    -7.2  0     0     1003.2   NA       0.0000   9999     1250  0     0    
2019/07/01  08:00:00  BASE  1.92276  50   2.99292  79   -6.9  98    -7.2  0     0     1003.2   NA       0.0000   9999     1250  0     0    
2019/07/01  08:01:00  BASE  1.4994   33   2.99292  79   -6.9  98    -7.2  0     0     1003.2   NA       0.0000   9999     1210  0     0    
2019/07/01  08:02:00  BASE  1.7346   66   2.99292  79   -6.9  98    -7.2  0     0     1003.2   NA       0.0000   9999     1210  0     0    
2019/07/01  08:03:00  BASE  2.0286   82   2.99292  79   -6.9  98    -7.2  0     0     1003.2   NA       0.0000   9999     1210  0     0    
2019/07/01  08:04:00  BASE  2.2344   78   2.99292  79   -6.9  98    -7.2  0     0     1003.2   NA       0.0000   9999     1250  0     0    
2019/07/01  08:05:00  BASE  1.98156  54   2.99292  79   -6.9  98    -7.1  0     0     1003.3   NA       0.0000   9999     1250  0     0    
2019/07/01  08:06:00  BASE  1.3524   44   2.96352  72   -7.0  99    -7.1  0     0     1003.3   NA       0.0000   9999     1210  0     0    
2019/07/01  08:07:00  BASE  0.8232   18   2.96352  72   -6.9  99    -7.1  0     0     1003.3   NA       0.0000   9999     1180  0     0    
2019/07/01  08:08:00  BASE  1.04076  328  2.75184  76   -6.9  99    -7.1  0     0     1003.3   NA       0.0000   9999     1210  0     0    
2019/07/01  08:09:00  BASE  1.2348   327  2.69304  75   -6.9  99    -7.0  0     0     1003.3   NA       0.0000   9999     1210  0     0    
2019/07/01  08:10:00  BASE  0.82908  328  2.69304  75   -6.9  99    -7.0  0     0     1003.3   NA       0.0000   9999     1150  0     0    
2019/07/01  08:11:01  BASE  0.54096  321  2.69304  75   -6.8  99    -7.0  0     0     1003.3   NA       0.0000   9999     1180  0     0    
2019/07/01  08:12:01  BASE  0.6174   313  2.69304  75   -6.8  99    -7.0  0     0     1003.3   NA       0.0000   9999     1210  0     0    
2019/07/01  08:13:00  BASE  0.92904  319  2.69304  75   -6.8  99    -7.0  0     0     1003.4   NA       0.0000   9999     1210  0     0    
2019/07/01  08:14:00  BASE  0.94668  339  2.38728  36   -6.8  99    -7.0  0     0     1003.4   NA       0.0000   9999     1280  0     0    
2019/07/01  08:15:00  BASE  0.40572  335  1.96392  306  -6.8  99    -6.9  0     0     1003.4   NA       0.0000   9999     1210  0     0    
2019/07/01  08:16:00  BASE  0.0588   324  1.96392  306  -6.9  100   -6.9  0     0     1003.4   NA       0.0000   9999     1280  0     0    
2019/07/01  08:17:00  BASE  0.0588   39   1.96392  306  -6.8  100   -6.9  0     0     1003.4   NA       0.0000   9999     1250  0     0    
2019/07/01  08:18:00  BASE  0.39984  74   1.42296  346  -6.8  100   -6.8  0     0     1003.4   NA       0.0000   9999     1180  0     0    
2019/07/01  08:19:00  BASE  0.94668  53   1.48176  65   -6.8  100   -6.8  0     0     1003.4   NA       0.0000   9999     1120  0     0    
2019/07/01  08:20:00  BASE  1.01724  69   1.48176  65   -6.9  100   -6.9  0     0     1003.4   NA       0.0000   9999     1080  0     0    
2019/07/01  08:21:00  BASE  1.0878   75   1.48176  65   -6.9  100   -6.9  0     0     1003.4   NA       0.0000   9999     1150  0     0    
2019/07/01  08:22:00  BASE  1.24656  69   1.54056  59   -6.9  100   -6.9  0     0     1003.4   NA       0.0000   9999     1250  0     0    
2019/07/01  08:23:00  BASE  1.56408  61   2.24028  48   -7.0  100   -7.0  0     0     1003.4   NA       0.0000   9999     1250  0     0    
2019/07/01  08:24:00  BASE  1.90512  53   2.24028  48   -7.0  100   -7.0  0     0     1003.5   NA       0.0000   9999     1250  0     0    
2019/07/01  08:25:00  BASE  1.84632  47   2.24028  48   -7.0  100   -7.0  0     0     1003.5   NA       0.0000   9999     1210  0     0    
2019/07/01  08:26:00  BASE  1.78164  51   2.24028  48   -7.1  100   -7.1  0     0     1003.5   NA       0.0000   9999     1210  0     0    
2019/07/01  08:27:00  BASE  1.92276  55   2.42256  48   -7.0  100   -7.0  0     0     1003.5   NA       0.0000   9999     1250  0     0    
2019/07/01  08:28:00  BASE  2.03448  53   2.42256  48   -7.1  100   -7.1  0     0     1003.5   NA       0.0000   9999     1180  0     0    
2019/07/01  08:29:00  BASE  2.11092  57   2.48136  52   -7.1  100   -7.1  0     0     1003.5   NA       0.0000   9999     1180  0     0    
2019/07/01  08:30:00  BASE  2.058    64   2.48136  52   -7.1  100   -7.1  0     0     1003.5   NA       0.0000   9999     1250  0     0    
2019/07/01  08:31:00  BASE  1.7346   58   2.48136  52   -7.0  100   -7.0  0     0     1003.5   NA       0.0000   9999     1210  0     0    
2019/07/01  08:32:00  BASE  1.62288  59   2.48136  52   -7.0  100   -7.0  0     0     1003.5   NA       0.0000   9999     1250  0     0    
2019/07/01  08:33:00  BASE  1.8228   65   2.56956  57   -7.0  100   -7.0  0     0     1003.5   NA       0.0000   9999     1250  0     0    
2019/07/01  08:34:00  BASE  1.84044  61   2.56956  57   -7.0  100   -7.0  0     0     1003.6   NA       0.0000   9999     1180  0     0    
2019/07/01  08:35:00  BASE  1.81692  62   2.56956  57   -7.0  100   -7.0  0     0     1003.6   NA       0.0000   9999     1150  0     0    
2019/07/01  08:36:00  BASE  1.86396  61   2.56956  57   -7.1  100   -7.1  0     0     1003.6   NA       0.0000   9999     1150  0     0    
2019/07/01  08:37:00  BASE  2.03448  58   2.56956  57   -7.1  100   -7.1  0     0     1003.6   NA       0.0000   9999     1150  0     0    
2019/07/01  08:38:00  BASE  2.14032  64   2.56956  57   -7.1  100   -7.1  0     0     1003.6   NA       0.0000   9999     1120  0     0    
2019/07/01  08:39:00  BASE  1.96392  67   2.56956  57   -7.1  100   -7.1  0     0     1003.6   NA       0.0000   9999     1150  0     0    
2019/07/01  08:40:00  BASE  1.86984  64   2.56956  57   -7.0  100   -7.0  0     0     1003.6   NA       0.0000   9999     1080  0     0    
2019/07/01  08:41:00  BASE  2.0874   65   2.56956  57   -7.0  100   -7.0  0     0     1003.7   NA       0.0000   9999     1120  0     0    
2019/07/01  08:42:00  BASE  2.1462   65   2.56956  57   -7.0  100   -7.0  0     0     1003.8   NA       0.0000   9999     1150  0     0    
2019/07/01  08:43:00  BASE  1.911    67   2.54016  68   -7.0  100   -7.0  0     0     1003.8   NA       0.0000   9999     1150  0     0    
2019/07/01  08:44:00  BASE  1.98744  74   2.69304  76   -7.0  100   -7.0  0     0     1003.9   NA       0.0000   9999     1120  0     0    
2019/07/01  08:45:00  BASE  2.47548  77   3.1164   76   -7.0  100   -7.0  0     0     1003.8   NA       0.0000   9999     1080  0     0    
2019/07/01  08:46:00  BASE  2.65188  72   3.1164   76   -7.0  100   -7.0  0     0     1003.8   NA       0.0000   9999     1080  0     0    
2019/07/01  08:47:00  BASE  2.44608  63   3.1164   76   -7.0  100   -7.0  0     0     1003.8   NA       0.0000   9999     1080  0     0    
2019/07/01  08:48:00  BASE  2.25204  60   3.1164   76   -7.1  100   -7.1  0     0     1003.8   NA       0.0000   9999     1080  0     0    
2019/07/01  08:49:00  BASE  2.08152  65   3.1164   76   -7.1  100   -7.1  0     0     1003.9   NA       0.0000   9999     1120  0     0    
2019/07/01  08:50:00  BASE  2.11092  70   3.1164   76   -7.1  100   -7.1  0     0     1004.0   NA       0.0000   9999     1150  0     0    
2019/07/01  08:51:01  BASE  2.33436  72   3.1164   76   -7.1  100   -7.1  0     0     1004.0   NA       0.0000   9999     1150  0     0    
2019/07/01  08:52:01  BASE  2.46372  69   3.1164   76   -7.1  100   -7.1  0     0     1004.0   NA       0.0000   9999     1120  0     0    
2019/07/01  08:53:01  BASE  2.4402   67   3.1164   76   -7.1  100   -7.1  0     0     1004.0   NA       0.0000   9999     1150  0     0    
2019/07/01  08:54:01  BASE  2.36376  69   3.1164   76   -7.1  100   -7.1  0     0     1004.0   NA       0.0000   9999     1150  0     0    
2019/07/01  08:55:01  BASE  2.06976  66   2.96352  73   -7.1  100   -7.1  0     0     1004.1   NA       0.0000   9999     1150  0     0    
2019/07/01  08:56:01  BASE  1.84044  62   2.81064  68   -7.0  100   -7.0  0     0     1004.1   NA       0.0000   9999     1180  0     0    
2019/07/01  08:57:01  BASE  1.77576  65   2.81064  68   -7.0  100   -7.0  0     0     1004.1   NA       0.0000   9999     1210  0     0    
2019/07/01  08:58:01  BASE  1.86396  74   2.81064  68   -7.0  100   -7.0  0     0     1004.1   NA       0.0000   9999     1210  0     0    
2019/07/01  08:59:00  BASE  2.01684  73   2.81064  68   -7.0  100   -7.0  0     0     1004.1   NA       0.0000   9999     1210  0     0    
2019/07/01  09:00:01  BASE  1.9404   68   2.81064  68   -7.0  100   -7.0  0     0     1004.1   NA       0.0000   9999     1210  0     0    
2019/07/01  09:01:00  BASE  1.84044  73   2.81064  68   -7.1  100   -7.1  0     0     1004.1   NA       0.0000   9999     1210  0     0    
2019/07/01  09:02:00  BASE  1.93452  81   2.81064  68   -7.1  100   -7.1  0     0     1004.1   NA       0.0000   9999     1120  0     0    
2019/07/01  09:03:00  BASE  2.205    87   2.56956  85   -7.1  100   -7.1  0     0     1004.1   NA       0.0000   9999     1080  0     0    
2019/07/01  09:04:01  BASE  2.31084  88   2.56956  85   -7.2  100   -7.2  0     0     1004.1   NA       0.0000   9999     1050  0     0    
2019/07/01  09:05:01  BASE  1.96392  89   2.56956  85   -7.2  100   -7.2  0     0     1004.1   NA       0.0000   9999     1080  0     0    
2019/07/01  09:06:01  BASE  1.53468  90   2.56956  85   -7.2  100   -7.2  0     0     1004.1   NA       0.0000   9999     1150  0     0    
2019/07/01  09:07:01  BASE  1.59348  86   2.56956  85   -7.2  100   -7.2  0     0     1004.2   NA       0.0000   9999     1210  0     0    
2019/07/01  09:08:00  BASE  1.72872  80   2.56956  85   -7.1  100   -7.1  0     0     1004.2   NA       0.0000   9999     1280  0     0    
2019/07/01  09:09:00  BASE  1.7346   81   2.56956  85   -7.1  100   -7.1  0     0     1004.2   NA       0.0000   9999     1280  0     0    
2019/07/01  09:10:00  BASE  1.74636  83   2.59896  81   -7.0  100   -7.0  0     0     1004.2   NA       0.0000   9999     1280  0     0    
2019/07/01  09:11:00  BASE  1.76988  75   2.59896  81   -7.0  100   -7.0  0     0     1004.2   NA       0.0000   9999     1280  0     0    
2019/07/01  09:12:00  BASE  1.84044  65   2.59896  81   -7.0  100   -7.0  0     0     1004.3   NA       0.0000   9999     1280  0     0    
2019/07/01  09:13:00  BASE  1.97568  56   2.59896  81   -7.1  100   -7.1  0     0     1004.4   NA       0.0000   9999     1280  0     0    
2019/07/01  09:14:00  BASE  2.18736  47   2.59896  81   -7.1  100   -7.1  0     0     1004.4   NA       0.0000   9999     1250  0     0    
2019/07/01  09:15:00  BASE  2.16384  47   2.59896  81   -7.1  100   -7.1  0     0     1004.4   NA       0.0000   9999     1310  0     0    
2019/07/01  09:16:01  BASE  2.1462   48   2.59896  81   -7.1  100   -7.1  0     0     1004.4   NA       0.0000   9999     1310  0     0    
2019/07/01  09:17:01  BASE  2.31084  49   2.84592  50   -7.1  100   -7.1  0     0     1004.4   NA       0.0000   9999     1280  0     0    
2019/07/01  09:18:01  BASE  2.4402   53   2.84592  50   -7.2  100   -7.2  0     0     1004.4   NA       0.0000   9999     1250  0     0    
2019/07/01  09:19:01  BASE  2.36964  50   2.84592  50   -7.2  100   -7.2  0     0     1004.4   NA       0.0000   9999     1120  0     0    
2019/07/01  09:20:01  BASE  2.27556  45   2.84592  50   -7.2  100   -7.2  0     0     1004.4   NA       0.0000   9999     1180  0     0    
2019/07/01  09:21:01  BASE  2.31672  42   2.84592  50   -7.2  100   -7.2  0     0     1004.4   NA       0.0000   9999     1280  0     0    
2019/07/01  09:22:01  BASE  2.43432  43   2.84592  50   -7.2  100   -7.2  0     0     1004.4   NA       0.0000   9999     1280  0     0    
2019/07/01  09:23:00  BASE  2.44608  42   2.84592  50   -7.2  100   -7.2  0     0     1004.5   NA       0.0000   9999     1210  0     0    
2019/07/01  09:24:00  BASE  2.35788  38   2.84592  50   -7.2  100   -7.2  0     0     1004.5   NA       0.0000   9999     1020  0     0    
2019/07/01  09:25:00  BASE  2.26968  36   2.84592  50   -7.2  100   -7.2  0     0     1004.5   NA       0.0000   9999     1050  0     0    
2019/07/01  09:26:00  BASE  2.1462   33   2.84592  50   -7.2  100   -7.2  0     0     1004.5   NA       0.0000   9999     1150  0     0    
2019/07/01  09:27:00  BASE  2.39316  32   2.87532  32   -7.2  100   -7.2  0     0     1004.5   NA       0.0000   9999     1210  0     0    
2019/07/01  09:28:00  BASE  2.55192  32   2.87532  32   -7.2  100   -7.2  0     0     1004.5   NA       0.0000   9999     1210  0     0    
2019/07/01  09:29:00  BASE  2.63424  31   3.087    26   -7.1  100   -7.1  0     0     1004.5   NA       0.0000   9999     1210  0     0    
2019/07/01  09:30:00  BASE  2.87532  29   3.087    34   -7.1  100   -7.1  0     0     1004.5   NA       0.0000   9999     1210  0     0    
2019/07/01  09:31:00  BASE  2.7342   30   3.087    34   -7.1  100   -7.1  0     0     1004.6   NA       0.0000   9999     1210  0     0    
2019/07/01  09:32:00  BASE  2.646    33   3.087    34   -7.1  100   -7.1  0     0     1004.6   NA       0.0000   9999     1210  0     0    
2019/07/01  09:33:00  BASE  2.5578   36   3.087    34   -7.1  100   -7.1  0     0     1004.7   NA       0.0000   9999     1250  0     0    
2019/07/01  09:34:00  BASE  2.42844  34   3.087    34   -7.2  100   -7.2  0     0     1004.7   NA       0.0000   9999     1250  0     0    
2019/07/01  09:35:00  BASE  2.38728  31   3.087    34   -7.2  100   -7.2  0     0     1004.7   NA       0.0000   9999     1150  0     0    
2019/07/01  09:36:00  BASE  2.205    29   3.087    34   -7.2  100   -7.2  0     0     1004.7   NA       0.0000   9999     1180  0     0    
2019/07/01  09:37:00  BASE  2.18148  29   3.087    34   -7.2  100   -7.2  0     0     1004.7   NA       0.0000   9999     1150  0     0    
2019/07/01  09:38:00  BASE  2.1462   33   3.087    34   -7.2  100   -7.2  0     0     1004.7   NA       0.0000   9999     1150  0     0    
2019/07/01  09:39:01  BASE  2.09916  37   3.087    34   -7.2  100   -7.2  0     0     1004.7   NA       0.0000   9999     1250  0     0    
2019/07/01  09:40:01  BASE  2.24028  37   3.0576   38   -7.2  100   -7.2  0     0     1004.7   NA       0.0000   9999     1280  0     0    
2019/07/01  09:41:01  BASE  2.31672  39   3.0576   38   -7.2  100   -7.2  0     0     1004.7   NA       0.0000   9999     1310  0     0    
2019/07/01  09:42:01  BASE  2.30496  44   2.69304  28   -7.2  100   -7.2  0     0     1004.7   NA       0.0000   9999     1280  0     0    
2019/07/01  09:43:01  BASE  2.31084  46   2.69304  28   -7.2  100   -7.2  0     0     1004.7   NA       0.0000   9999     1280  0     0    
2019/07/01  09:44:01  BASE  2.38728  47   2.72244  43   -7.2  100   -7.2  0     0     1004.7   NA       0.0000   9999     1280  0     0    
2019/07/01  09:45:01  BASE  2.41668  52   2.75184  55   -7.2  100   -7.2  0     0     1004.8   NA       0.0000   9999     1280  0     0    
2019/07/01  09:46:00  BASE  2.42256  57   2.75184  55   -7.2  100   -7.2  0     0     1004.8   NA       0.0000   9999     1310  0     0    
2019/07/01  09:47:00  BASE  2.499    59   2.75184  55   -7.2  100   -7.2  0     0     1004.9   NA       0.0000   9999     1310  0     0    
2019/07/01  09:48:00  BASE  2.28144  60   2.75184  55   -7.2  100   -7.2  0     0     1004.9   NA       0.0000   9999     1250  0     0    
2019/07/01  09:49:00  BASE  1.95216  62   2.75184  55   -7.2  100   -7.2  0     0     1005.0   NA       0.0000   9999     1280  0     0    
2019/07/01  09:50:00  BASE  1.51704  65   2.75184  55   -7.2  100   -7.2  0     0     1005.1   NA       0.0000   9999     1310  0     0    
2019/07/01  09:51:00  BASE  0.96432  70   2.75184  55   -7.2  100   -7.2  0     0     1005.1   NA       0.0000   9999     1310  0     0    
2019/07/01  09:52:00  BASE  0.95844  73   2.75184  55   -7.2  100   -7.2  0     0     1005.1   NA       0.0000   9999     1280  0     0    
2019/07/01  09:53:00  BASE  1.21716  68   2.75184  55   -7.1  100   -7.1  0     0     1005.1   NA       0.0000   9999     1280  0     0    
2019/07/01  09:54:00  BASE  1.07016  62   2.75184  55   -7.1  100   -7.1  0     0     1005.2   NA       0.0000   9999     1210  0     0    
2019/07/01  09:55:00  BASE  0.92316  61   2.72244  58   -7.1  100   -7.1  0     0     1005.2   NA       0.0000   9999     1250  0     0    
2019/07/01  09:56:00  BASE  0.90552  60   2.72244  58   -7.1  100   -7.1  0     0     1005.2   NA       0.0000   9999     1210  0     0    
2019/07/01  09:57:01  BASE  1.06428  53   2.29908  68   -7.0  100   -7.0  0     0     1005.2   NA       0.0000   9999     1210  0     0    
2019/07/01  09:58:01  BASE  1.22304  51   2.29908  68   -7.0  100   -7.0  0     0     1005.2   NA       0.0000   9999     1210  0     0    
2019/07/01  09:59:00  BASE  1.19952  61   1.54056  52   -7.0  100   -7.0  0     0     1005.2   NA       0.0000   9999     1210  0     0    
2019/07/01  10:00:00  BASE  1.25832  67   1.69344  71   -7.1  100   -7.1  0     0     1005.3   NA       0.0000   9999     1210  0     0    
2019/07/01  10:01:00  BASE  1.4112   70   1.69344  74   -7.1  100   -7.1  0     0     1005.3   NA       0.0000   9999     1210  0     0    
2019/07/01  10:02:00  BASE  1.45824  72   1.69344  74   -7.1  100   -7.1  0     0     1005.3   NA       0.0000   9999     1180  0     0    
2019/07/01  10:03:00  BASE  1.42884  69   1.69344  74   -7.1  100   -7.1  0     0     1005.3   NA       0.0000   9999     1180  0     0    
2019/07/01  10:04:00  BASE  1.52292  72   1.81692  78   -7.0  100   -7.0  0     0     1005.3   NA       0.0000   9999     1180  0     0    
2019/07/01  10:05:00  BASE  1.15248  92   1.81692  78   -7.0  100   -7.0  0     0     1005.3   NA       0.0000   9999     1210  0     0    
2019/07/01  10:06:01  BASE  0.39984  134  1.81692  78   -7.0  100   -7.0  0     0     1005.3   NA       0.0000   9999     1180  0     0    
2019/07/01  10:07:00  BASE  0.1176   241  1.81692  78   -7.0  100   -7.0  0     0     1005.3   NA       0.0000   9999     1180  0     0    
2019/07/01  10:08:00  BASE  0.1764   333  1.81692  78   -7.0  100   -7.0  0     0     1005.3   NA       0.0000   9999     1150  0     0    
2019/07/01  10:09:00  BASE  0.08232  11   1.81692  78   -7.0  100   -7.0  0     0     1005.3   NA       0.0000   9999     1180  0     0    
2019/07/01  10:10:00  BASE  0.22932  31   1.81692  78   -6.9  100   -6.9  0     0     1005.3   NA       0.0000   9999     1180  0     0    
2019/07/01  10:11:00  BASE  0.81144  4    1.81692  78   -6.9  100   -6.9  0     0     1005.3   NA       0.0000   9999     1180  0     0    
2019/07/01  10:12:00  BASE  0.79968  353  1.81692  78   -6.9  100   -6.9  0     0     1005.4   NA       0.0000   9999     1180  0     0    
2019/07/01  10:13:00  BASE  0.59388  353  1.81692  78   -6.9  100   -6.9  0     0     1005.4   NA       0.0000   9999     1250  0     0    
2019/07/01  10:14:00  BASE  0.98784  343  1.42296  329  -6.9  100   -6.9  0     0     1005.4   NA       0.0000   9999     1250  0     0    
2019/07/01  10:15:00  BASE  1.42296  340  1.9992   337  -6.9  100   -6.9  0     0     1005.4   NA       0.0000   9999     1250  0     0    
2019/07/01  10:16:00  BASE  1.59348  350  1.9992   337  -6.9  100   -6.9  0     0     1005.4   NA       0.0000   9999     1210  0     0    
2019/07/01  10:17:00  BASE  1.56996  352  2.058    336  -6.9  100   -6.9  0     0     1005.5   NA       0.0000   9999     1150  0     0    
2019/07/01  10:18:00  BASE  1.27596  336  2.058    336  -6.9  100   -6.9  0     0     1005.5   NA       0.0000   9999     1180  0     0    
2019/07/01  10:19:01  BASE  1.01724  322  2.058    336  -6.8  100   -6.9  0     0     1005.6   NA       0.0000   9999     1150  0     0    
2019/07/01  10:20:01  BASE  0.65268  302  2.058    336  -6.8  99    -6.9  0     0     1005.6   NA       0.0000   9999     1120  0     0    
2019/07/01  10:21:01  BASE  0.19992  292  2.058    336  -6.8  99    -6.9  0     0     1005.6   NA       0.0000   9999     1150  0     0    
2019/07/01  10:22:01  BASE  0.2352   309  2.058    336  -6.8  99    -6.9  0     0     1005.6   NA       0.0000   9999     1210  0     0    
2019/07/01  10:23:01  BASE  0.84084  339  2.24028  343  -6.8  99    -7.0  0     0     1005.6   NA       0.0000   9999     1280  0     0    
2019/07/01  10:24:01  BASE  1.80516  336  2.48136  306  -6.8  99    -7.0  0     0     1005.6   NA       0.0000   9999     1250  0     0    
2019/07/01  10:25:01  BASE  1.97568  333  2.48136  306  -6.9  99    -7.0  0     0     1005.6   NA       0.0000   9999     1250  0     0    
2019/07/01  10:26:01  BASE  1.54056  349  2.48136  306  -6.9  99    -7.0  0     0     1005.6   NA       0.0000   9999     1210  0     0    
2019/07/01  10:27:00  BASE  0.8526   0    2.48136  306  -6.9  99    -7.0  0     0     1005.7   NA       0.0000   9999     1210  0     0    
2019/07/01  10:28:00  BASE  1.4406   9    2.93412  12   -6.9  99    -7.0  0     0     1005.7   NA       0.0000   9999     1180  0     0    
2019/07/01  10:29:00  BASE  2.8224   18   3.59856  31   -6.9  99    -7.0  0     0     1005.6   NA       0.0000   9999     1180  0     0    
2019/07/01  10:30:01  BASE  2.64012  13   3.59856  31   -6.9  99    -7.0  0     0     1005.6   NA       0.0000   9999     1210  0     0    
2019/07/01  10:31:01  BASE  2.16384  344  3.59856  31   -6.9  99    -7.0  0     0     1005.6   NA       0.0000   9999     1210  0     0    
2019/07/01  10:32:00  BASE  1.86984  322  3.59856  31   -6.9  99    -7.0  0     0     1005.7   NA       0.0000   9999     1250  0     0    
2019/07/01  10:33:00  BASE  1.47588  302  3.59856  31   -6.9  99    -7.0  0     0     1005.7   NA       0.0000   9999     1250  0     0    
2019/07/01  10:34:00  BASE  1.176    296  3.59856  31   -6.9  99    -7.0  0     0     1005.7   NA       0.0000   9999     1250  0     0    
2019/07/01  10:35:00  BASE  1.01724  314  3.59856  31   -6.9  99    -7.0  0     0     1005.7   NA       0.0000   9999     1250  0     0    
2019/07/01  10:36:00  BASE  0.92904  310  3.59856  31   -6.9  99    -7.1  0     0     1005.7   NA       0.0000   9999     1210  0     0    
2019/07/01  10:37:00  BASE  0.75264  285  3.59856  31   -6.9  99    -7.1  0     0     1005.7   NA       0.0000   9999     1250  0     0    
2019/07/01  10:38:00  BASE  0.46452  279  3.59856  31   -6.9  98    -7.1  0     0     1005.7   NA       0.0000   9999     1210  0     0    
2019/07/01  10:39:00  BASE  1.09956  329  2.56956  14   -6.9  98    -7.1  0     0     1005.7   NA       0.0000   9999     1180  0     0    
2019/07/01  10:40:00  BASE  1.9698   16   2.38728  319  -6.9  98    -7.2  0     0     1005.7   NA       0.0000   9999     1150  0     0    
2019/07/01  10:41:00  BASE  1.55232  30   2.35788  18   -6.9  98    -7.2  0     0     1005.7   NA       0.0000   9999     1150  0     0    
2019/07/01  10:42:00  BASE  0.5586   53   2.35788  18   -6.9  98    -7.2  0     0     1005.8   NA       0.0000   9999     1120  0     0    
2019/07/01  10:43:00  BASE  0.22344  72   2.35788  18   -6.9  98    -7.2  0     0     1005.8   NA       0.0000   9999     1150  0     0    
2019/07/01  10:44:00  BASE  0.40572  72   2.35788  18   -6.9  98    -7.2  0     0     1005.9   NA       0.0000   9999     1150  0     0    
2019/07/01  10:45:00  BASE  1.07016  56   2.35788  18   -7.0  98    -7.2  0     0     1005.9   NA       0.0000   9999     1120  0     0    
2019/07/01  10:46:00  BASE  1.77576  44   2.35788  18   -6.9  98    -7.2  0     0     1005.9   NA       0.0000   9999     1120  0     0    
2019/07/01  10:47:00  BASE  2.00508  43   3.38688  44   -7.0  98    -7.2  0     0     1005.9   NA       0.0000   9999     1120  0     0    
2019/07/01  10:48:00  BASE  2.72244  43   3.83964  45   -7.0  98    -7.3  0     0     1005.9   NA       0.0000   9999     1050  0     0    
2019/07/01  10:49:00  BASE  3.22224  43   3.83964  45   -7.0  98    -7.3  0     0     1005.9   NA       0.0000   9999     1020  0     0    
2019/07/01  10:50:00  BASE  2.793    42   3.83964  45   -7.1  98    -7.3  0     0     1005.9   NA       0.0000   9999     1020  0     0    
2019/07/01  10:51:00  BASE  2.058    44   3.83964  45   -7.1  98    -7.4  0     0     1006.0   NA       0.0000   9999     1050  0     0    
2019/07/01  10:52:00  BASE  1.9404   47   3.83964  45   -7.2  98    -7.4  0     0     1006.0   NA       0.0000   9999     1050  0     0    
2019/07/01  10:53:00  BASE  1.8816   53   3.83964  45   -7.2  98    -7.4  0     0     1006.0   NA       0.0000   9999     1120  0     0    
2019/07/01  10:54:00  BASE  1.75812  51   3.83964  45   -7.2  98    -7.4  0     0     1005.9   NA       0.0000   9999     1180  0     0    
2019/07/01  10:55:00  BASE  1.27008  46   3.83964  45   -7.2  98    -7.4  0     0     1005.9   NA       0.0000   9999     1150  0     0    
2019/07/01  10:56:00  BASE  1.03488  46   3.83964  45   -7.1  98    -7.4  0     0     1005.9   NA       0.0000   9999     1120  0     0    
2019/07/01  10:57:00  BASE  1.81692  42   3.83964  45   -7.1  98    -7.4  0     0     1005.9   NA       0.0000   9999     1080  0     0    
2019/07/01  10:58:00  BASE  1.98156  38   3.53976  35   -7.1  98    -7.3  0     0     1005.9   NA       0.0000   9999     1180  0     0    
2019/07/01  10:59:01  BASE  2.28732  32   3.234    41   -7.1  98    -7.3  0     0     1005.9   NA       0.0000   9999     1150  0     0    
2019/07/01  11:00:00  BASE  2.91648  32   3.35748  40   -7.1  98    -7.3  0     0     1005.9   NA       0.0000   9999     1120  0     0    
2019/07/01  11:01:01  BASE  2.94588  34   3.35748  40   -7.1  98    -7.4  0     0     1005.9   NA       0.0000   9999     1120  0     0    
2019/07/01  11:02:01  BASE  2.97528  32   3.41628  21   -7.2  98    -7.4  0     0     1005.9   NA       0.0000   9999     1180  0     0    
2019/07/01  11:03:01  BASE  3.1164   31   3.59856  26   -7.2  98    -7.4  0     0     1005.9   NA       0.0000   9999     1150  0     0    
2019/07/01  11:04:00  BASE  3.3516   32   3.69264  34   -7.2  98    -7.4  0     0     1005.9   NA       0.0000   9999     1210  0     0    
2019/07/01  11:05:00  BASE  3.38688  34   3.69264  34   -7.2  99    -7.4  0     0     1006.0   NA       0.0000   9999     1280  0     0    
2019/07/01  11:06:00  BASE  3.28692  33   3.69264  34   -7.2  99    -7.4  0     0     1006.1   NA       0.0000   9999     1180  0     0    
2019/07/01  11:07:00  BASE  3.25164  33   3.69264  34   -7.3  99    -7.4  0     0     1006.1   NA       0.0000   9999     1180  0     0    
2019/07/01  11:08:00  BASE  3.13992  38   3.69264  34   -7.3  99    -7.4  0     0     1006.1   NA       0.0000   9999     1210  0     0    
2019/07/01  11:09:00  BASE  3.03996  36   3.69264  34   -7.3  99    -7.5  0     0     1006.1   NA       0.0000   9999     1150  0     0    
2019/07/01  11:10:00  BASE  2.9988   30   3.69264  34   -7.3  99    -7.5  0     0     1006.1   NA       0.0000   9999     1210  0     0    
2019/07/01  11:11:00  BASE  3.22224  30   3.69264  34   -7.4  99    -7.5  0     0     1006.1   NA       0.0000   9999     1250  0     0    
2019/07/01  11:12:00  BASE  3.33396  31   3.69264  34   -7.4  99    -7.6  0     0     1006.1   NA       0.0000   9999     1280  0     0    
2019/07/01  11:13:00  BASE  3.1164   32   3.69264  34   -7.5  99    -7.6  0     0     1006.3   NA       0.0000   9999     1280  0     0    
2019/07/01  11:14:00  BASE  2.8518   30   3.62796  37   -7.5  99    -7.6  0     0     1006.3   NA       0.0000   9999     1280  0     0    
2019/07/01  11:15:00  BASE  2.86944  27   3.62796  37   -7.5  99    -7.6  0     0     1006.4   NA       0.0000   9999     1210  0     0    
2019/07/01  11:16:00  BASE  2.81064  24   3.62796  37   -7.5  99    -7.6  0     0     1006.4   NA       0.0000   9999     1150  0     0    
2019/07/01  11:17:00  BASE  2.81652  27   3.59856  31   -7.6  100   -7.6  0     0     1006.4   NA       0.0000   9999     1210  0     0    
2019/07/01  11:18:00  BASE  3.08112  33   3.59856  31   -7.6  100   -7.6  0     0     1006.5   NA       0.0000   9999     1280  0     0    
2019/07/01  11:19:00  BASE  3.06348  36   3.59856  31   -7.6  100   -7.6  0     0     1006.6   NA       0.0000   9999     1210  0     0    
2019/07/01  11:20:00  BASE  3.04584  38   3.59856  31   -7.6  100   -7.6  0     0     1006.6   NA       0.0000   9999     1250  0     0    
2019/07/01  11:21:00  BASE  3.19872  39   3.48096  29   -7.7  100   -7.7  0     0     1006.6   NA       0.0000   9999     1120  0     0    
2019/07/01  11:22:00  BASE  3.25164  38   3.44568  37   -7.7  100   -7.7  0     0     1006.6   NA       0.0000   9999     1080  0     0    
2019/07/01  11:23:00  BASE  3.18696  36   3.44568  37   -7.7  100   -7.7  0     0     1006.6   NA       0.0000   9999     1120  0     0    
2019/07/01  11:24:00  BASE  3.087    37   3.44568  37   -7.7  100   -7.7  0     0     1006.6   NA       0.0000   9999     1250  0     0    
2019/07/01  11:25:01  BASE  2.92824  40   3.48096  48   -7.6  100   -7.6  0     0     1006.6   NA       0.0000   9999     1150  0     0    
2019/07/01  11:26:00  BASE  3.18108  44   3.81024  44   -7.6  100   -7.6  0     0     1006.6   NA       0.0000   9999     1150  0     0    
2019/07/01  11:27:00  BASE  3.08112  62   3.81024  44   -7.7  100   -7.7  0     0     1006.6   NA       0.0000   9999     1210  0     0    
2019/07/01  11:28:00  BASE  2.65188  80   3.81024  44   -7.7  100   -7.7  0     0     1006.7   NA       0.0000   9999     1150  0     0    
2019/07/01  11:29:00  BASE  2.65776  80   3.81024  44   -7.7  100   -7.7  0     0     1006.7   NA       0.0000   9999     1120  0     0    
2019/07/01  11:30:00  BASE  2.499    78   3.81024  44   -7.7  100   -7.7  0     0     1006.7   NA       0.0000   9999     1120  0     0    
2019/07/01  11:31:00  BASE  2.53428  75   3.81024  44   -7.8  100   -7.8  0     0     1006.7   NA       0.0000   9999     1150  0     0    
2019/07/01  11:32:00  BASE  2.7636   70   3.81024  44   -7.8  100   -7.8  0     0     1006.7   NA       0.0000   9999     1180  0     0    
2019/07/01  11:33:00  BASE  2.74008  67   3.81024  44   -7.8  100   -7.8  0     0     1006.7   NA       0.0000   9999     1180  0     0    
2019/07/01  11:34:00  BASE  2.52252  65   3.81024  44   -7.8  100   -7.8  0     0     1006.8   NA       0.0000   9999     1210  0     0    
2019/07/01  11:35:00  BASE  2.48136  62   3.81024  44   -7.8  100   -7.8  0     0     1006.9   NA       0.0000   9999     1210  0     0    
2019/07/01  11:36:00  BASE  2.43432  68   3.48096  56   -7.8  100   -7.8  0     0     1006.9   NA       0.0000   9999     1180  0     0    
2019/07/01  11:37:00  BASE  2.12856  77   3.1458   59   -7.8  100   -7.8  0     0     1006.9   NA       0.0000   9999     1210  0     0    
2019/07/01  11:38:00  BASE  1.85808  76   3.1458   59   -7.7  100   -7.7  0     0     1006.9   NA       0.0000   9999     1250  0     0    
2019/07/01  11:39:00  BASE  2.07564  74   3.1458   59   -7.7  100   -7.7  0     0     1006.9   NA       0.0000   9999     1280  0     0    
2019/07/01  11:40:00  BASE  2.37552  72   3.1458   59   -7.7  100   -7.7  0     0     1006.9   NA       0.0000   9999     1250  0     0    
2019/07/01  11:41:00  BASE  2.32848  70   3.1458   59   -7.7  100   -7.7  0     0     1006.9   NA       0.0000   9999     1210  0     0    
2019/07/01  11:42:00  BASE  2.2932   69   3.1458   59   -7.7  100   -7.7  0     0     1007.0   NA       0.0000   9999     1250  0     0    
2019/07/01  11:43:00  BASE  2.31672  70   3.1458   59   -7.7  100   -7.7  0     0     1007.0   NA       0.0000   9999     1210  0     0    
2019/07/01  11:44:00  BASE  2.40492  70   3.1458   59   -7.7  100   -7.7  0     0     1007.1   NA       0.0000   9999     1180  0     0    
2019/07/01  11:45:00  BASE  2.59308  68   3.02232  63   -7.6  100   -7.6  0     0     1007.1   NA       0.0000   9999     1150  0     0    
2019/07/01  11:46:00  BASE  2.62248  70   3.02232  63   -7.6  100   -7.6  0     0     1007.1   NA       0.0000   9999     1150  0     0    
2019/07/01  11:47:00  BASE  2.54604  70   3.02232  63   -7.6  100   -7.6  0     0     1007.1   NA       0.0000   9999     1150  0     0    
2019/07/01  11:48:00  BASE  2.62248  74   3.02232  63   -7.6  100   -7.6  0     0     1007.1   NA       0.0000   9999     1180  0     0    
2019/07/01  11:49:00  BASE  2.65776  81   3.02232  63   -7.6  100   -7.6  0     0     1007.2   NA       0.0000   9999     1180  0     0    
2019/07/01  11:50:00  BASE  2.69892  80   3.02232  63   -7.5  100   -7.5  0     0     1007.2   NA       0.0000   9999     1210  0     0    
2019/07/01  11:51:00  BASE  2.82828  78   3.02232  78   -7.5  100   -7.5  0     0     1007.2   NA       0.0000   9999     1210  0     0    
2019/07/01  11:52:00  BASE  2.69892  82   3.02232  78   -7.5  100   -7.5  0     0     1007.2   NA       0.0000   9999     1180  0     0    
2019/07/01  11:53:00  BASE  2.31084  83   3.02232  78   -7.5  100   -7.5  0     0     1007.2   NA       0.0000   9999     1120  0     0    
2019/07/01  11:54:00  BASE  2.18736  77   3.02232  78   -7.5  100   -7.5  0     0     1007.2   NA       0.0000   9999     1120  0     0    
2019/07/01  11:55:00  BASE  2.37552  73   3.02232  78   -7.5  100   -7.5  0     0     1007.2   NA       0.0000   9999     1150  0     0    
2019/07/01  11:56:00  BASE  2.56956  70   3.02232  78   -7.6  100   -7.6  0     0     1007.2   NA       0.0000   9999     1150  0     0    
2019/07/01  11:57:00  BASE  2.64012  71   3.02232  78   -7.6  100   -7.6  0     0     1007.2   NA       0.0000   9999     1180  0     0    
2019/07/01  11:58:00  BASE  2.55192  75   3.02232  78   -7.6  100   -7.6  0     0     1007.3   NA       0.0000   9999     1180  0     0    
2019/07/01  11:59:00  BASE  2.57544  80   3.02232  78   -7.6  100   -7.6  0     0     1007.3   NA       0.0000   9999     1210  0     0    
2019/07/01  12:00:00  BASE  2.69892  80   3.02232  78   -7.6  100   -7.6  0     0     1007.3   NA       0.0000   9999     1210  0     0    
2019/07/01  12:01:00  BASE  2.75184  76   2.93412  78   -7.6  100   -7.6  0     0     1007.2   NA       0.0000   9999     1210  0     0    
2019/07/01  12:02:00  BASE  2.7636   74   2.99292  75   -7.6  100   -7.6  0     0     1007.3   NA       0.0000   9999     1180  0     0    
2019/07/01  12:03:00  BASE  2.72244  72   2.99292  75   -7.6  100   -7.6  0     0     1007.3   NA       0.0000   9999     1180  0     0    
2019/07/01  12:04:00  BASE  2.646    78   3.087    84   -7.6  100   -7.6  0     0     1007.3   NA       0.0000   9999     1180  0     0    
2019/07/01  12:05:00  BASE  2.8224   87   3.29868  91   -7.6  100   -7.6  0     0     1007.3   NA       0.0000   9999     1150  0     0    
2019/07/01  12:06:00  BASE  3.16932  86   3.53976  81   -7.7  100   -7.7  0     0     1007.4   NA       0.0000   9999     1120  0     0    
2019/07/01  12:07:00  BASE  3.28104  81   3.53976  81   -7.7  100   -7.7  0     0     1007.5   NA       0.0000   9999     1180  0     0    
2019/07/01  12:08:00  BASE  2.94     80   3.53976  81   -7.6  100   -7.6  0     0     1007.5   NA       0.0000   9999     1150  0     0    
2019/07/01  12:09:00  BASE  2.34024  87   3.53976  81   -7.6  100   -7.6  0     0     1007.5   NA       0.0000   9999     1150  0     0    
2019/07/01  12:10:00  BASE  2.21676  88   3.53976  81   -7.7  100   -7.7  0     0     1007.5   NA       0.0000   9999     1120  0     0    
2019/07/01  12:11:00  BASE  2.54016  84   3.53976  81   -7.7  100   -7.7  0     0     1007.5   NA       0.0000   9999     1120  0     0    
2019/07/01  12:12:00  BASE  2.61072  82   3.53976  81   -7.8  100   -7.8  0     0     1007.5   NA       0.0000   9999     1120  0     0    
2019/07/01  12:13:00  BASE  2.64012  81   3.53976  81   -7.8  100   -7.8  0     0     1007.5   NA       0.0000   9999     1150  0     0    
2019/07/01  12:14:00  BASE  2.59308  82   3.53976  81   -7.9  100   -7.9  0     0     1007.6   NA       0.0000   9999     1180  0     0    
2019/07/01  12:15:00  BASE  2.39904  85   3.53976  81   -7.8  100   -7.8  0     0     1007.6   NA       0.0000   9999     1180  0     0    
2019/07/01  12:16:00  BASE  2.21088  85   3.41628  81   -7.8  100   -7.8  0     0     1007.6   NA       0.0000   9999     1210  0     0    
2019/07/01  12:17:00  BASE  2.21676  80   3.0576   96   -7.7  100   -7.7  0     0     1007.6   NA       0.0000   9999     1180  0     0    
2019/07/01  12:18:00  BASE  2.24028  81   3.0576   96   -7.6  100   -7.6  0     0     1007.7   NA       0.0000   9999     1150  0     0    
2019/07/01  12:19:00  BASE  2.22264  90   3.0576   96   -7.5  100   -7.5  0     0     1007.7   NA       0.0000   9999     1120  0     0    
2019/07/01  12:20:00  BASE  2.38728  95   3.0576   96   -7.5  100   -7.5  0     0     1007.7   NA       0.0000   9999     1120  0     0    
2019/07/01  12:21:00  BASE  2.42256  91   3.0576   96   -7.5  100   -7.5  0     0     1007.8   NA       0.0000   9999     1150  0     0    
2019/07/01  12:22:00  BASE  2.62248  91   3.29868  113  -7.6  100   -7.6  0     0     1007.8   NA       0.0000   9999     1080  0     0    
2019/07/01  12:23:00  BASE  2.60484  92   3.29868  113  -7.6  100   -7.6  0     0     1007.8   NA       0.0000   9999     1120  0     0    
2019/07/01  12:24:00  BASE  2.25792  85   3.29868  113  -7.6  100   -7.6  0     0     1007.8   NA       0.0000   9999     1120  0     0    
2019/07/01  12:25:00  BASE  2.24616  80   3.29868  113  -7.6  100   -7.6  0     0     1007.8   NA       0.0000   9999     1120  0     0    
2019/07/01  12:26:00  BASE  2.32848  84   3.29868  113  -7.6  100   -7.6  0     0     1007.8   NA       0.0000   9999     1080  0     0    
2019/07/01  12:27:00  BASE  2.29908  85   3.29868  113  -7.5  100   -7.5  0     0     1007.8   NA       0.0000   9999     1120  0     0    
2019/07/01  12:28:00  BASE  2.1756   85   3.29868  113  -7.5  100   -7.5  0     0     1007.8   NA       0.0000   9999     1080  0     0    
2019/07/01  12:29:00  BASE  2.27556  87   3.29868  113  -7.5  100   -7.5  0     0     1007.8   NA       0.0000   9999     1120  0     0    
2019/07/01  12:30:00  BASE  2.54016  91   3.38688  101  -7.5  100   -7.5  0     0     1007.9   NA       0.0000   9999     1180  0     0    
2019/07/01  12:31:00  BASE  2.46372  88   3.38688  101  -7.5  100   -7.5  0     0     1007.9   NA       0.0000   9999     1120  0     0    
2019/07/01  12:32:00  BASE  1.99332  83   3.38688  101  -7.5  100   -7.5  0     0     1007.9   NA       0.0000   9999     1120  0     0    
2019/07/01  12:33:00  BASE  1.77576  78   3.38688  101  -7.5  100   -7.5  0     0     1007.9   NA       0.0000   9999     1180  0     0    
2019/07/01  12:34:00  BASE  2.03448  80   3.38688  101  -7.5  100   -7.5  0     0     1007.9   NA       0.0000   9999     1150  0     0    
2019/07/01  12:35:06  BASE  2.13444  89   3.38688  101  -7.6  100   -7.6  0     0     1008.0   NA       0.0000   9999     1150  0     0    
2019/07/01  12:36:00  BASE  2.07564  85   3.38688  101  -7.7  99    -7.7  0     0     1008.0   NA       0.0000   9999     1150  0     0    
2019/07/01  12:37:00  BASE  2.19324  79   3.38688  101  -7.8  99    -7.9  0     0     1008.0   NA       0.0000   9999     1120  0     0    
2019/07/01  12:38:00  BASE  2.42844  77   3.38688  101  -7.9  99    -8.0  0     0     1008.0   NA       0.0000   9999     1180  0     0    
2019/07/01  12:39:00  BASE  2.56368  80   3.38688  101  -7.9  100   -8.0  0     0     1008.1   NA       0.0000   9999     1180  0     0    
2019/07/01  12:40:00  BASE  2.37552  83   2.72244  91   -7.8  100   -7.8  0     0     1008.2   NA       0.0000   9999     1280  0     0    
2019/07/01  12:41:00  BASE  2.39316  87   2.99292  103  -7.8  100   -7.8  0     0     1008.3   NA       0.0000   9999     1210  0     0    
2019/07/01  12:42:00  BASE  2.31084  92   2.99292  103  -7.9  100   -7.9  0     0     1008.3   NA       0.0000   9999     1250  0     0    
2019/07/01  12:43:00  BASE  2.04624  92   2.99292  103  -8.0  100   -8.0  0     0     1008.3   NA       0.0000   9999     1280  0     0    
2019/07/01  12:44:00  BASE  2.205    86   2.99292  103  -8.0  100   -8.1  0     0     1008.3   NA       0.0000   9999     1250  0     0    
2019/07/01  12:45:00  BASE  2.27556  82   2.99292  103  -8.1  100   -8.1  0     0     1008.3   NA       0.0000   9999     1280  0     0    
2019/07/01  12:46:00  BASE  2.2932   86   2.99292  103  -8.2  99    -8.3  0     0     1008.3   NA       0.0000   9999     1250  0     0    
2019/07/01  12:47:00  BASE  2.42256  92   2.99292  103  -8.3  99    -8.4  0     0     1008.3   NA       0.0000   9999     1250  0     0    
2019/07/01  12:48:00  BASE  2.34612  94   2.99292  103  -8.3  100   -8.3  0     0     1008.3   NA       0.0000   9999     1250  0     0    
2019/07/01  12:49:00  BASE  2.22852  94   2.99292  103  -8.3  100   -8.4  0     0     1008.4   NA       0.0000   9999     1280  0     0    
2019/07/01  12:50:00  BASE  2.28144  100  2.99292  103  -8.4  100   -8.4  0     0     1008.4   NA       0.0000   9999     1250  0     0    
2019/07/01  12:51:00  BASE  2.3226   104  2.84592  93   -8.3  100   -8.4  0     0     1008.4   NA       0.0000   9999     1210  0     0    
2019/07/01  12:52:00  BASE  2.36376  104  2.84592  93   -8.3  100   -8.3  0     0     1008.4   NA       0.0000   9999     1250  0     0    
2019/07/01  12:53:00  BASE  2.41668  107  2.84592  93   -8.3  100   -8.3  0     0     1008.4   NA       0.0000   9999     1210  0     0    
2019/07/01  12:54:00  BASE  2.65188  116  2.93412  133  -8.4  100   -8.4  0     0     1008.5   NA       0.0000   9999     1180  0     0    
2019/07/01  12:55:00  BASE  2.76948  123  2.93412  119  -8.3  100   -8.3  0     0     1008.6   NA       0.0000   9999     1080  0     0    
2019/07/01  12:56:00  BASE  2.74008  121  3.02232  121  -8.3  100   -8.3  0     0     1008.6   NA       0.0000   9999     1050  0     0    
2019/07/01  12:57:00  BASE  2.81652  117  3.1458   112  -8.3  100   -8.3  0     0     1008.6   NA       0.0000   9999     1210  0     0    
2019/07/01  12:58:00  BASE  2.78712  116  3.1458   112  -8.3  100   -8.3  0     0     1008.6   NA       0.0000   9999     1210  0     0    
2019/07/01  12:59:00  BASE  2.793    114  3.2046   105  -8.3  100   -8.3  0     0     1008.6   NA       0.0000   9999     1210  0     0    
2019/07/01  13:00:00  BASE  2.86356  108  3.2046   110  -8.5  100   -8.5  0     0     1008.6   NA       0.0000   9999     1210  0     0    
2019/07/01  13:01:00  BASE  2.8224   108  3.2046   110  -8.6  100   -8.6  0     0     1008.6   NA       0.0000   9999     1180  0     0    
2019/07/01  13:02:00  BASE  2.7342   106  3.2046   110  -8.6  100   -8.6  0     0     1008.6   NA       0.0000   9999     1180  0     0    
2019/07/01  13:03:00  BASE  2.68128  103  3.2046   110  -8.6  100   -8.6  0     0     1008.6   NA       0.0000   9999     1120  0     0    
2019/07/01  13:04:00  BASE  2.78124  103  3.2046   110  -8.7  100   -8.7  0     0     1008.6   NA       0.0000   9999     1150  0     0    
2019/07/01  13:05:00  BASE  3.03408  106  3.48096  107  -8.7  100   -8.7  0     0     1008.6   NA       0.0000   9999     1150  0     0    
2019/07/01  13:06:00  BASE  3.33396  104  3.83964  95   -8.8  100   -8.8  0     0     1008.6   NA       0.0000   9999     1210  0     0    
2019/07/01  13:07:00  BASE  3.29868  98   3.83964  95   -8.9  100   -8.9  0     0     1008.5   NA       0.0000   9999     1280  0     0    
2019/07/01  13:08:00  BASE  3.13992  92   3.83964  95   -9.0  100   -9.0  0     0     1008.4   NA       0.0000   9999     1280  0     0    
2019/07/01  13:09:00  BASE  3.12816  88   3.83964  95   -9.0  100   -9.0  0     0     1008.4   NA       0.0000   9999     1280  0     0    
2019/07/01  13:10:00  BASE  3.11052  89   3.83964  95   -9.0  100   -9.0  0     0     1008.4   NA       0.0000   9999     1310  0     0    
2019/07/01  13:11:00  BASE  3.00468  90   3.83964  95   -8.9  100   -8.9  0     0     1008.4   NA       0.0000   9999     1380  0     0    
2019/07/01  13:12:00  BASE  2.89296  89   3.83964  95   -8.9  100   -8.9  0     0     1008.4   NA       0.0000   9999     1310  0     0    
2019/07/01  13:13:00  BASE  2.81652  88   3.83964  95   -8.8  100   -8.8  0     0     1008.5   NA       0.0000   9999     1310  0     0    
2019/07/01  13:14:00  BASE  2.78712  87   3.83964  95   -8.8  100   -8.8  0     0     1008.5   NA       0.0000   9999     0     0     0    
2019/07/01  13:15:00  BASE  2.75772  86   3.83964  95   -8.8  100   -8.8  0     0     1008.6   NA       0.0000   9999     0     0     0    
2019/07/01  13:16:00  BASE  2.68716  91   3.41628  102  -8.7  100   -8.7  0     0     1008.6   NA       0.0000   9999     0     0     0    
2019/07/01  13:17:00  BASE  2.69304  95   3.38688  90   -8.7  100   -8.7  1     0     1008.6   NA       0.0000   9999     0     0     0    
2019/07/01  13:18:00  BASE  2.72244  93   3.38688  90   -8.7  100   -8.7  1     0     1008.6   NA       0.0000   9999     0     0     0    
2019/07/01  13:19:00  BASE  2.83416  89   3.38688  90   -8.6  100   -8.6  1     0     1008.6   NA       0.0000   9999     1210  0     0    
2019/07/01  13:20:00  BASE  2.89296  88   3.087    89   -8.6  100   -8.6  1     0     1008.7   NA       0.0000   9999     1280  0     0    
2019/07/01  13:21:00  BASE  2.80476  88   3.087    89   -8.6  100   -8.6  1     0     1008.7   NA       0.0000   9999     0     0     0    
2019/07/01  13:22:00  BASE  2.7048   88   3.087    89   -8.6  100   -8.6  1     0     1008.7   NA       0.0000   9999     0     0     0    
2019/07/01  13:23:00  BASE  2.646    88   3.087    89   -8.6  100   -8.6  1     0     1008.7   NA       0.0000   9999     0     0     0    
2019/07/01  13:24:00  BASE  2.64012  88   3.087    89   -8.7  100   -8.7  1     0     1008.7   NA       0.0000   9999     0     0     0    
2019/07/01  13:25:00  BASE  2.68716  88   3.1458   93   -8.7  100   -8.7  1     0     1008.7   NA       0.0000   9999     0     0     0    
2019/07/01  13:26:00  BASE  2.76948  87   3.1458   93   -8.7  100   -8.7  1     0     1008.7   NA       0.0000   9999     0     0     0    
2019/07/01  13:27:00  BASE  2.84592  86   3.1458   93   -8.7  100   -8.7  1     0     1008.8   NA       0.0000   9999     0     0     0    
2019/07/01  13:28:00  BASE  2.76948  86   3.1458   93   -8.8  100   -8.8  1     0     1008.8   NA       0.0000   9999     0     0     0    
2019/07/01  13:29:00  BASE  2.57544  84   3.1458   93   -8.8  100   -8.8  1     0     1008.8   NA       0.0000   9999     0     0     0    
2019/07/01  13:30:00  BASE  2.39316  80   3.1458   93   -8.8  100   -8.8  2     0     1008.8   NA       0.0000   9999     0     0     0    
2019/07/01  13:31:00  BASE  2.29908  77   3.1458   93   -8.8  100   -8.8  2     0     1008.8   NA       0.0000   9999     0     0     0    
2019/07/01  13:32:00  BASE  2.19324  75   3.1458   93   -8.8  100   -8.8  2     0     1008.9   NA       0.0000   9999     0     0     0    
2019/07/01  13:33:00  BASE  2.1462   73   3.1458   93   -8.8  100   -8.8  2     0     1008.9   NA       0.0000   9999     0     0     0    
2019/07/01  13:34:00  BASE  2.0874   68   3.1458   93   -8.8  100   -8.8  2     0     1008.9   NA       0.0000   9999     0     0     0    
2019/07/01  13:35:00  BASE  2.15208  60   3.0576   90   -8.7  100   -8.7  2     0     1008.9   NA       0.0000   9999     0     0     0    
2019/07/01  13:36:00  BASE  2.31084  58   2.96352  88   -8.7  100   -8.7  3     0     1008.9   NA       0.0000   9999     0     0     0    
2019/07/01  13:37:00  BASE  2.34612  59   2.81064  89   -8.6  99    -8.7  3     0     1008.9   NA       0.0000   9999     0     0     0    
2019/07/01  13:38:00  BASE  2.22264  57   2.63424  83   -8.6  99    -8.8  3     0     1009.0   NA       0.0000   9999     0     0     0    
2019/07/01  13:39:00  BASE  2.1168   57   2.51076  49   -8.6  98    -8.8  3     0     1009.0   NA       0.0000   9999     0     0     0    
2019/07/01  13:40:00  BASE  2.10504  60   2.51076  49   -8.7  98    -8.9  3     0     1009.0   NA       0.0000   9999     0     0     0    
2019/07/01  13:41:00  BASE  2.34024  60   2.72244  61   -8.7  98    -9.0  3     0     1009.0   NA       0.0000   9999     0     0     0    
2019/07/01  13:42:00  BASE  2.5578   57   2.81064  62   -8.7  97    -9.0  4     0     1009.0   NA       0.0000   9999     1280  0     0    
2019/07/01  13:43:00  BASE  2.49312  57   2.81064  62   -8.7  97    -9.1  4     0     1009.0   NA       0.0000   9999     1250  0     0    
2019/07/01  13:44:00  BASE  2.41668  60   2.81064  62   -8.7  97    -9.2  4     0     1009.0   NA       0.0000   9999     1210  0     0    
2019/07/01  13:45:00  BASE  2.47548  60   2.81064  66   -8.7  96    -9.2  4     0     1009.0   NA       0.0000   9999     1210  0     0    
2019/07/01  13:46:00  BASE  2.68716  61   3.1752   70   -8.8  96    -9.3  4     0     1009.1   NA       0.0000   9999     1150  0     0    
2019/07/01  13:47:00  BASE  2.54604  64   3.1752   70   -8.8  96    -9.3  4     0     1009.1   NA       0.0000   9999     0     0     0    
2019/07/01  13:48:00  BASE  2.53428  64   3.1752   70   -8.8  96    -9.3  4     0     1009.1   NA       0.0000   9999     0     0     0    
2019/07/01  13:49:00  BASE  2.79888  62   3.1752   70   -8.8  96    -9.4  4     0     1009.1   NA       0.0000   9999     0     0     0    
2019/07/01  13:50:00  BASE  2.8518   60   3.1752   70   -8.8  95    -9.4  5     0     1009.1   NA       0.0000   9999     0     0     0    
2019/07/01  13:51:00  BASE  2.71656  58   3.1752   70   -8.8  95    -9.4  5     0     1009.1   NA       0.0000   9999     0     0     0    
2019/07/01  13:52:00  BASE  2.5578   57   3.1752   70   -8.7  95    -9.4  5     0     1009.1   NA       0.0000   9999     0     0     0    
2019/07/01  13:53:00  BASE  2.44608  58   3.1752   70   -8.7  95    -9.4  5     0     1009.1   NA       0.0000   9999     0     0     0    
2019/07/01  13:54:00  BASE  2.42844  60   3.1752   70   -8.7  95    -9.4  5     0     1009.2   NA       0.0000   9999     0     0     0    
2019/07/01  13:55:00  BASE  2.49312  61   3.1752   70   -8.7  94    -9.5  5     0     1009.3   NA       0.0000   9999     0     0     0    
2019/07/01  13:56:00  BASE  2.42256  58   3.02232  58   -8.7  94    -9.5  5     0     1009.4   NA       0.0000   9999     0     0     0    
2019/07/01  13:57:00  BASE  2.53428  58   3.0576   61   -8.7  94    -9.5  5     0     1009.4   NA       0.0000   9999     0     0     0    
2019/07/01  13:58:00  BASE  2.81064  59   3.29868  53   -8.7  94    -9.5  5     0     1009.4   NA       0.0000   9999     0     0     0    
2019/07/01  13:59:00  BASE  2.81064  55   3.29868  53   -8.8  94    -9.6  5     0     1009.4   NA       0.0000   9999     0     0     0    
2019/07/01  14:00:00  BASE  2.76948  50   3.29868  53   -8.8  94    -9.6  6     0     1009.4   NA       0.0000   9999     0     0     0    
2019/07/01  14:01:00  BASE  2.78712  50   3.29868  53   -8.8  93    -9.7  6     0     1009.4   NA       0.0000   9999     0     0     0    
2019/07/01  14:02:00  BASE  2.81652  51   3.29868  53   -8.9  93    -9.8  6     0     1009.4   NA       0.0000   9999     0     0     0    
2019/07/01  14:03:00  BASE  2.7342   50   3.29868  53   -9.0  93    -9.9  6     0     1009.5   NA       0.0000   9999     0     0     0    
2019/07/01  14:04:00  BASE  2.61072  51   3.29868  53   -9.0  93    -9.9  6     0     1009.5   NA       0.0000   9999     0     0     0    
2019/07/01  14:05:00  BASE  2.7048   50   3.29868  53   -9.1  93    -10.0 6     0     1009.5   NA       0.0000   9999     0     0     0    
2019/07/01  14:06:00  BASE  2.71068  50   3.29868  53   -9.1  93    -10.0 6     0     1009.5   NA       0.0000   9999     0     0     0    
2019/07/01  14:07:00  BASE  2.60484  52   3.29868  53   -9.1  93    -10.0 6     0     1009.5   NA       0.0000   9999     0     0     0    
2019/07/01  14:08:00  BASE  2.50488  54   3.234    49   -9.1  93    -10.0 6     0     1009.6   NA       0.0000   9999     0     0     0    
2019/07/01  14:09:00  BASE  2.48136  54   3.234    49   -9.1  93    -10.0 6     0     1009.6   NA       0.0000   9999     0     0     0    
2019/07/01  14:10:00  BASE  2.56956  54   3.234    49   -9.1  93    -10.0 7     0     1009.6   NA       0.0000   9999     0     0     0    
2019/07/01  14:11:00  BASE  2.6754   55   3.234    49   -9.1  93    -10.0 7     0     1009.6   NA       0.0000   9999     0     0     0    
2019/07/01  14:12:00  BASE  2.72832  56   3.234    64   -9.1  93    -10.0 7     0     1009.7   NA       0.0000   9999     0     0     0    
2019/07/01  14:13:00  BASE  2.75184  63   3.234    64   -9.1  93    -10.1 7     0     1009.7   NA       0.0000   9999     1120  0     0    
2019/07/01  14:14:00  BASE  2.77536  67   3.234    64   -9.2  93    -10.1 7     0     1009.7   NA       0.0000   9999     1150  0     0    
2019/07/01  14:15:00  BASE  2.76948  65   3.234    64   -9.2  93    -10.1 7     0     1009.7   NA       0.0000   9999     1150  0     0    
2019/07/01  14:16:00  BASE  2.61072  66   3.234    64   -9.1  93    -10.1 7     0     1009.7   NA       0.0000   9999     1120  0     0    
2019/07/01  14:17:00  BASE  2.52252  69   3.234    64   -9.1  93    -10.1 7     0     1009.7   NA       0.0000   9999     1120  0     0    
2019/07/01  14:18:00  BASE  2.58132  71   3.234    64   -9.1  93    -10.1 7     0     1009.7   NA       0.0000   9999     1080  0     0    
2019/07/01  14:19:00  BASE  2.6754   73   3.234    70   -9.0  93    -10.0 7     0     1009.8   NA       0.0000   9999     1050  0     0    
2019/07/01  14:20:00  BASE  2.81652  74   3.234    70   -9.0  92    -10.0 7     0     1009.8   NA       0.0000   9999     980   0     0    
2019/07/01  14:21:00  BASE  2.78124  78   3.234    70   -8.9  93    -9.9  8     0     1009.9   NA       0.0000   9999     980   0     0    
2019/07/01  14:22:00  BASE  2.3226   81   3.234    70   -8.8  93    -9.7  8     0     1010.0   NA       0.0000   9999     950   0     0    
2019/07/01  14:23:00  BASE  1.62876  82   3.234    70   -8.6  93    -9.6  8     0     1010.0   NA       0.0000   9999     1020  0     0    
2019/07/01  14:24:00  BASE  1.64052  77   3.234    70   -8.5  93    -9.4  8     0     1010.1   NA       0.0000   9999     1080  0     0    
2019/07/01  14:25:00  BASE  2.0286   72   3.234    70   -8.4  93    -9.3  8     0     1010.1   NA       0.0000   9999     980   0     0    
2019/07/01  14:26:00  BASE  2.1756   74   3.234    70   -8.3  93    -9.3  8     0     1010.1   NA       0.0000   9999     1020  0     0    
2019/07/01  14:27:00  BASE  2.42256  67   3.234    70   -8.3  93    -9.3  8     0     1010.1   NA       0.0000   9999     1020  0     0    
2019/07/01  14:28:00  BASE  2.646    56   3.234    70   -8.4  93    -9.4  8     0     1010.1   NA       0.0000   9999     980   0     0    
2019/07/01  14:29:00  BASE  2.49312  57   3.1458   73   -8.4  93    -9.4  8     0     1010.1   NA       0.0000   9999     920   0     0    
2019/07/01  14:30:00  BASE  2.5578   61   3.087    62   -8.4  93    -9.4  8     0     1010.1   NA       0.0000   9999     920   0     0    
2019/07/01  14:31:00  BASE  2.79888  60   3.087    62   -8.4  93    -9.3  8     0     1010.1   NA       0.0000   9999     950   0     0    
2019/07/01  14:32:00  BASE  2.6754   69   3.087    62   -8.5  93    -9.4  8     0     1010.1   NA       0.0000   9999     950   0     0    
2019/07/01  14:33:00  BASE  2.7342   75   3.1164   71   -8.5  93    -9.4  8     0     1010.1   NA       0.0000   9999     1020  0     0    
2019/07/01  14:34:00  BASE  2.71068  74   3.1458   76   -8.5  93    -9.4  8     0     1010.1   NA       0.0000   9999     980   0     0    
2019/07/01  14:35:00  BASE  2.27556  78   3.1458   76   -8.4  93    -9.3  8     0     1010.2   NA       0.0000   9999     920   0     0    
2019/07/01  14:36:00  BASE  2.4696   79   3.1458   86   -8.4  93    -9.3  9     0     1010.2   NA       0.0000   9999     980   0     0    
2019/07/01  14:37:00  BASE  2.82828  80   3.1458   86   -8.3  93    -9.2  9     0     1010.2   NA       0.0000   9999     950   0     0    
2019/07/01  14:38:00  BASE  2.77536  77   3.1458   86   -8.4  93    -9.2  9     0     1010.2   NA       0.0000   9999     980   0     0    
2019/07/01  14:39:00  BASE  2.6754   70   3.1458   86   -8.3  94    -9.2  9     0     1010.2   NA       0.0000   9999     1020  0     0    
2019/07/01  14:40:00  BASE  2.43432  64   3.1458   86   -8.4  94    -9.2  9     0     1010.2   NA       0.0000   9999     1020  0     0    
2019/07/01  14:41:00  BASE  2.43432  63   3.1458   86   -8.4  94    -9.2  10    0     1010.2   NA       0.0000   9999     980   0     0    
2019/07/01  14:42:00  BASE  2.53428  66   3.1458   86   -8.4  94    -9.2  10    0     1010.3   NA       0.0000   9999     1050  0     0    
2019/07/01  14:43:00  BASE  2.63424  66   3.1458   86   -8.4  94    -9.2  10    0     1010.3   NA       0.0000   9999     1020  0     0    
2019/07/01  14:44:00  BASE  2.66952  61   3.1458   86   -8.4  94    -9.2  10    0     1010.3   NA       0.0000   9999     980   0     0    
2019/07/01  14:45:00  BASE  2.60484  61   3.1458   86   -8.4  94    -9.2  10    0     1010.3   NA       0.0000   9999     850   0     0    
2019/07/01  14:46:00  BASE  2.56956  60   3.087    83   -8.5  94    -9.3  10    0     1010.3   NA       0.0000   9999     850   0     0    
2019/07/01  14:47:00  BASE  2.55192  57   3.087    83   -8.5  94    -9.3  10    0     1010.3   NA       0.0000   9999     950   0     0    
2019/07/01  14:48:00  BASE  2.65188  56   3.087    50   -8.5  94    -9.3  10    0     1010.3   NA       0.0000   9999     920   0     0    
2019/07/01  14:49:00  BASE  2.7048   56   3.087    50   -8.5  94    -9.2  11    0     1010.3   NA       0.0000   9999     950   0     0    
2019/07/01  14:50:00  BASE  2.54016  62   3.087    50   -8.4  94    -9.1  11    0     1010.3   NA       0.0000   9999     950   0     0    
2019/07/01  14:51:00  BASE  2.39904  72   3.087    50   -8.3  95    -9.0  11    0     1010.3   NA       0.0000   9999     920   0     0    
2019/07/01  14:52:00  BASE  2.499    73   3.087    50   -8.3  95    -9.0  12    0     1010.3   NA       0.0000   9999     950   0     0    
2019/07/01  14:53:00  BASE  2.646    70   3.087    50   -8.2  95    -8.9  12    0     1010.3   NA       0.0000   9999     950   0     0    
2019/07/01  14:54:00  BASE  2.59896  72   3.087    50   -8.3  95    -8.9  13    0     1010.4   NA       0.0000   9999     890   0     0    
2019/07/01  14:55:00  BASE  2.54604  71   3.087    50   -8.3  95    -8.9  13    0     1010.4   NA       0.0000   9999     820   0     0    
2019/07/01  14:56:00  BASE  2.75184  69   3.26928  85   -8.3  95    -8.9  13    0     1010.4   NA       0.0000   9999     890   0     0    
2019/07/01  14:57:00  BASE  2.54604  69   3.26928  85   -8.2  95    -8.8  13    0     1010.4   NA       0.0000   9999     920   0     0    
2019/07/01  14:58:00  BASE  2.3226   66   3.26928  85   -8.2  95    -8.8  13    0     1010.4   NA       0.0000   9999     920   0     0    
2019/07/01  14:59:00  BASE  2.41668  70   3.26928  85   -8.2  95    -8.8  13    0     1010.5   NA       0.0000   9999     920   0     0    
2019/07/01  15:00:00  BASE  2.39904  75   3.26928  85   -8.2  95    -8.8  14    0     1010.5   NA       0.0000   9999     950   0     0    
2019/07/01  15:01:00  BASE  2.39904  77   3.26928  85   -8.2  95    -8.8  14    0     1010.6   NA       0.0000   9999     950   0     0    
2019/07/01  15:02:00  BASE  2.36964  80   3.26928  85   -8.3  95    -8.9  14    0     1010.6   NA       0.0000   9999     950   0     0    
2019/07/01  15:03:00  BASE  2.46372  82   3.26928  85   -8.4  96    -9.0  14    0     1010.6   NA       0.0000   9999     950   0     0    
2019/07/01  15:04:00  BASE  2.5578   79   3.26928  85   -8.4  96    -9.0  14    0     1010.7   NA       0.0000   9999     950   0     0    
2019/07/01  15:05:00  BASE  2.68128  72   3.26928  85   -8.4  96    -9.0  14    0     1010.7   NA       0.0000   9999     920   0     0    
2019/07/01  15:06:00  BASE  2.51076  73   2.96352  73   -8.4  96    -8.9  14    0     1010.7   NA       0.0000   9999     950   0     0    
2019/07/01  15:07:00  BASE  2.21088  76   2.96352  73   -8.4  96    -8.9  15    0     1010.7   NA       0.0000   9999     980   0     0    
2019/07/01  15:08:00  BASE  2.39316  78   2.96352  73   -8.4  97    -8.9  16    0     1010.7   NA       0.0000   9999     980   0     0    
2019/07/01  15:09:00  BASE  2.59896  74   2.96352  73   -8.3  97    -8.8  17    0     1010.7   NA       0.0000   9999     980   0     0    
2019/07/01  15:10:00  BASE  2.58132  65   2.96352  73   -8.3  97    -8.7  18    0     1010.6   NA       0.0000   9999     950   0     0    
2019/07/01  15:11:00  BASE  2.6166   61   2.96352  73   -8.3  97    -8.7  17    0     1010.7   NA       0.0000   9999     980   0     0    
2019/07/01  15:12:00  BASE  2.66364  58   2.96352  73   -8.3  97    -8.7  17    0     1010.7   NA       0.0000   9999     980   0     0    
2019/07/01  15:13:00  BASE  2.66364  58   2.96352  73   -8.3  97    -8.7  17    0     1010.7   NA       0.0000   9999     980   0     0    
2019/07/01  15:14:00  BASE  2.61072  63   2.96352  73   -8.3  97    -8.7  16    0     1010.7   NA       0.0000   9999     1020  0     0    
2019/07/01  15:15:00  BASE  2.499    64   2.87532  82   -8.3  97    -8.7  16    0     1010.7   NA       0.0000   9999     1020  0     0    
2019/07/01  15:16:00  BASE  2.69304  61   3.1458   52   -8.2  97    -8.6  16    0     1010.7   NA       0.0000   9999     980   0     0    
2019/07/01  15:17:00  BASE  3.16344  59   3.65736  56   -8.2  97    -8.6  16    0     1010.7   NA       0.0000   9999     1020  0     0    
2019/07/01  15:18:00  BASE  3.0282   58   3.65736  56   -8.2  97    -8.5  16    0     1010.7   NA       0.0000   9999     1020  0     0    
2019/07/01  15:19:00  BASE  2.63424  61   3.65736  56   -8.1  97    -8.5  16    0     1010.8   NA       0.0000   9999     1020  0     0    
2019/07/01  15:20:00  BASE  2.499    60   3.65736  56   -8.1  97    -8.5  15    0     1010.8   NA       0.0000   9999     1020  0     0    
2019/07/01  15:21:00  BASE  2.45196  59   3.65736  56   -8.1  97    -8.5  15    0     1010.8   NA       0.0000   9999     950   0     0    
2019/07/01  15:22:00  BASE  2.61072  56   3.65736  56   -8.1  97    -8.5  15    0     1010.8   NA       0.0000   9999     1020  0     0    
2019/07/01  15:23:00  BASE  2.68716  54   3.65736  56   -8.1  97    -8.5  16    0     1010.8   NA       0.0000   9999     980   0     0    
2019/07/01  15:24:00  BASE  2.38728  57   3.65736  56   -8.1  97    -8.4  16    0     1010.9   NA       0.0000   9999     1020  0     0    
2019/07/01  15:25:00  BASE  2.42256  56   3.65736  56   -8.1  97    -8.4  16    0     1010.9   NA       0.0000   9999     980   0     0    
2019/07/01  15:26:00  BASE  2.51664  56   3.65736  56   -8.1  97    -8.5  16    0     1010.9   NA       0.0000   9999     950   0     0    
2019/07/01  15:27:00  BASE  2.38728  62   3.48096  58   -8.1  97    -8.5  15    0     1010.9   NA       0.0000   9999     920   0     0    
2019/07/01  15:28:00  BASE  2.48136  71   2.99292  52   -8.1  97    -8.5  14    0     1010.9   NA       0.0000   9999     980   0     0    
2019/07/01  15:29:00  BASE  2.41668  76   2.99292  52   -8.1  97    -8.5  13    0     1010.9   NA       0.0000   9999     980   0     0    
2019/07/01  15:30:00  BASE  2.48136  78   2.99292  52   -8.1  97    -8.5  13    0     1010.9   NA       0.0000   9999     980   0     0    
2019/07/01  15:31:00  BASE  2.59308  83   2.99292  52   -8.1  97    -8.5  14    0     1010.9   NA       0.0000   9999     1020  0     0    
2019/07/01  15:32:00  BASE  2.40492  78   2.96352  56   -8.0  97    -8.4  15    0     1010.9   NA       0.0000   9999     980   0     0    
2019/07/01  15:33:00  BASE  2.61072  75   3.087    81   -8.1  97    -8.4  15    0     1010.9   NA       0.0000   9999     1020  0     0    
2019/07/01  15:34:00  BASE  2.63424  77   3.087    81   -8.0  97    -8.4  16    0     1010.9   NA       0.0000   9999     980   0     0    
2019/07/01  15:35:00  BASE  2.45196  75   3.087    81   -8.0  98    -8.3  16    0     1010.9   NA       0.0000   9999     950   0     0    
2019/07/01  15:36:00  BASE  2.60484  81   3.1752   85   -7.9  98    -8.2  15    0     1010.9   NA       0.0000   9999     950   0     0    
2019/07/01  15:37:00  BASE  2.646    82   3.1752   85   -7.9  98    -8.2  16    0     1010.9   NA       0.0000   9999     1020  0     0    
2019/07/01  15:38:00  BASE  2.62836  81   3.1752   85   -7.8  98    -8.1  16    0     1010.9   NA       0.0000   9999     1020  0     0    
2019/07/01  15:39:00  BASE  2.77536  85   3.32808  94   -7.8  98    -8.0  16    0     1010.9   NA       0.0000   9999     1020  0     0    
2019/07/01  15:40:00  BASE  2.84004  86   3.32808  94   -7.7  98    -8.0  17    0     1010.9   NA       0.0000   9999     1020  0     0    
2019/07/01  15:41:00  BASE  2.79888  84   3.32808  94   -7.7  98    -8.0  16    0     1010.9   NA       0.0000   9999     1020  0     0    
2019/07/01  15:42:00  BASE  2.95764  87   3.38688  112  -7.7  98    -8.0  16    0     1010.9   NA       0.0000   9999     1020  0     0    
2019/07/01  15:43:00  BASE  3.1164   94   3.38688  112  -7.8  98    -8.0  16    0     1010.9   NA       0.0000   9999     980   0     0    
2019/07/01  15:44:00  BASE  3.18696  94   3.48096  85   -7.8  98    -8.1  16    0     1010.9   NA       0.0000   9999     980   0     0    
2019/07/01  15:45:00  BASE  3.13992  91   3.48096  91   -7.9  98    -8.2  15    0     1011.0   NA       0.0000   9999     980   0     0    
2019/07/01  15:46:00  BASE  3.13404  92   3.48096  91   -8.0  98    -8.2  15    0     1011.0   NA       0.0000   9999     980   0     0    
2019/07/01  15:47:00  BASE  3.13992  93   3.48096  91   -8.0  98    -8.2  15    0     1011.1   NA       0.0000   9999     920   0     0    
2019/07/01  15:48:00  BASE  3.06348  90   3.48096  91   -8.1  99    -8.3  15    0     1011.1   NA       0.0000   9999     980   0     0    
2019/07/01  15:49:00  BASE  3.02232  95   3.72204  110  -8.1  99    -8.2  16    0     1011.2   NA       0.0000   9999     920   0     0    
2019/07/01  15:50:00  BASE  2.77536  99   3.72204  110  -8.1  99    -8.2  16    0     1011.2   NA       0.0000   9999     920   0     0    
2019/07/01  15:51:00  BASE  2.60484  94   3.72204  110  -8.1  99    -8.2  16    0     1011.2   NA       0.0000   9999     950   0     0    
2019/07/01  15:52:00  BASE  2.74596  90   3.72204  110  -8.1  99    -8.2  16    0     1011.1   NA       0.0000   9999     1020  0     0    
2019/07/01  15:53:00  BASE  2.8518   89   3.72204  110  -8.0  99    -8.1  15    0     1011.1   NA       0.0000   9999     950   0     0    
2019/07/01  15:54:00  BASE  2.78124  90   3.72204  110  -7.9  99    -8.0  15    0     1011.1   NA       0.0000   9999     950   0     0    
2019/07/01  15:55:00  BASE  2.72244  89   3.72204  110  -7.9  100   -8.0  15    0     1011.1   NA       0.0000   9999     920   0     0    
2019/07/01  15:56:00  BASE  2.7636   90   3.72204  110  -7.9  100   -7.9  15    0     1011.1   NA       0.0000   9999     950   0     0    
2019/07/01  15:57:00  BASE  2.69892  94   3.72204  110  -7.9  100   -7.9  16    0     1011.1   NA       0.0000   9999     980   0     0    
2019/07/01  15:58:00  BASE  2.66364  101  3.72204  110  -7.9  100   -7.9  16    0     1011.1   NA       0.0000   9999     980   0     0    
2019/07/01  15:59:00  BASE  2.3814   99   3.29868  88   -7.9  100   -7.9  17    0     1011.1   NA       0.0000   9999     980   0     0    
2019/07/01  16:00:00  BASE  2.34612  92   3.29868  88   -7.8  100   -7.8  17    0     1011.1   NA       0.0000   9999     950   0     0    
2019/07/01  16:01:00  BASE  2.36376  87   3.29868  88   -7.8  100   -7.8  18    0     1011.2   NA       0.0000   9999     980   0     0    
2019/07/01  16:02:00  BASE  2.1756   84   3.29868  88   -7.8  100   -7.8  18    0     1011.3   NA       0.0000   9999     1020  0     0    
2019/07/01  16:03:00  BASE  2.16384  87   3.087    113  -7.7  100   -7.7  17    0     1011.3   NA       0.0000   9999     950   0     0    
2019/07/01  16:04:00  BASE  2.24028  90   3.087    113  -7.7  100   -7.7  17    0     1011.3   NA       0.0000   9999     980   0     0    
2019/07/01  16:05:00  BASE  2.31084  92   3.087    113  -7.7  100   -7.7  17    0     1011.1   NA       0.0000   9999     980   0     0    
2019/07/01  16:06:01  BASE  2.31084  92   3.087    113  -7.6  100   -7.6  17    0     1011.3   NA       0.0000   9999     1020  0     0    
2019/07/01  16:07:01  BASE  2.2344   85   3.087    113  -7.6  100   -7.6  17    0     1011.3   NA       0.0000   9999     1020  0     0    
2019/07/01  16:08:01  BASE  1.99332  80   2.87532  85   -7.7  100   -7.7  17    0     1010.9   NA       0.0000   9999     980   0     0    
2019/07/01  16:09:01  BASE  2.05212  82   2.87532  85   -7.6  100   -7.6  18    0     1011.3   NA       0.0000   9999     1020  0     0    
2019/07/01  16:10:01  BASE  2.21088  81   2.69304  78   -7.6  100   -7.6  18    0     1011.4   NA       0.0000   9999     1020  0     0    
2019/07/01  16:11:00  BASE  1.97568  81   2.63424  94   -7.6  100   -7.6  18    0     1011.4   NA       0.0000   9999     1050  0     0    
2019/07/01  16:12:00  BASE  1.87572  87   2.63424  94   -7.6  100   -7.6  17    0     1011.4   NA       0.0000   9999     1020  0     0    
2019/07/01  16:13:00  BASE  1.9404   92   2.63424  94   -7.6  100   -7.6  17    0     1011.5   NA       0.0000   9999     1020  0     0    
2019/07/01  16:14:00  BASE  1.75812  90   2.59896  93   -7.6  100   -7.6  17    0     1011.5   NA       0.0000   9999     980   0     0    
2019/07/01  16:15:00  BASE  1.65816  82   2.56956  90   -7.7  100   -7.7  17    0     1011.5   NA       0.0000   9999     1020  0     0    
2019/07/01  16:16:00  BASE  1.74048  78   2.38728  84   -7.7  100   -7.7  17    0     1011.5   NA       0.0000   9999     980   0     0    
2019/07/01  16:17:00  BASE  1.92864  79   2.32848  78   -7.7  100   -7.7  17    0     1011.5   NA       0.0000   9999     980   0     0    
2019/07/01  16:18:00  BASE  1.96392  82   2.32848  78   -7.7  100   -7.7  16    0     1011.6   NA       0.0000   9999     980   0     0    
2019/07/01  16:19:00  BASE  1.87572  83   2.32848  78   -7.6  100   -7.6  16    0     1011.6   NA       0.0000   9999     1020  0     0    
2019/07/01  16:20:00  BASE  1.8522   89   2.24028  94   -7.5  100   -7.5  16    0     1011.6   NA       0.0000   9999     1050  0     0    
2019/07/01  16:21:00  BASE  2.02272  98   2.48136  96   -7.5  100   -7.5  16    0     1011.6   NA       0.0000   9999     1020  0     0    
2019/07/01  16:22:00  BASE  2.07564  98   2.48136  96   -7.5  100   -7.5  16    0     1011.6   NA       0.0000   9999     1050  0     0    
2019/07/01  16:23:00  BASE  1.8816   89   2.48136  96   -7.5  100   -7.5  16    0     1011.6   NA       0.0000   9999     1020  0     0    
2019/07/01  16:24:00  BASE  1.88748  82   2.48136  96   -7.5  100   -7.5  16    0     1011.6   NA       0.0000   9999     1050  0     0    
2019/07/01  16:25:00  BASE  1.75224  83   2.48136  96   -7.5  100   -7.5  16    0     1011.6   NA       0.0000   9999     1050  0     0    
2019/07/01  16:26:00  BASE  1.7052   90   2.48136  96   -7.5  100   -7.5  16    0     1011.7   NA       0.0000   9999     1050  0     0    
2019/07/01  16:27:00  BASE  1.92864  90   2.54016  102  -7.5  100   -7.5  16    0     1011.7   NA       0.0000   9999     1050  0     0    
2019/07/01  16:28:00  BASE  2.11092  105  2.54016  102  -7.5  100   -7.5  16    0     1011.7   NA       0.0000   9999     1020  0     0    
2019/07/01  16:29:00  BASE  2.205    129  2.54016  138  -7.5  100   -7.5  16    0     1011.7   NA       0.0000   9999     920   0     0    
2019/07/01  16:30:00  BASE  1.7052   145  2.54016  138  -7.4  100   -7.4  15    0     1011.6   NA       0.0000   9999     920   0     0    
2019/07/01  16:31:00  BASE  1.2054   147  2.54016  138  -7.3  100   -7.3  15    0     1011.7   NA       0.0000   9999     950   0     0    
2019/07/01  16:32:00  BASE  1.37004  125  2.54016  138  -7.2  100   -7.2  15    0     1011.7   NA       0.0000   9999     920   0     0    
2019/07/01  16:33:00  BASE  1.16424  110  2.54016  138  -7.2  100   -7.2  14    0     1011.6   NA       0.0000   9999     950   0     0    
2019/07/01  16:34:00  BASE  0.38808  121  2.54016  138  -7.3  100   -7.3  15    0     1011.5   NA       0.0000   9999     980   0     0    
2019/07/01  16:35:00  BASE  0        165  2.54016  138  -7.3  100   -7.3  15    0     1011.7   NA       0.0000   9999     1050  0     0    
2019/07/01  16:36:00  BASE  0        282  2.54016  138  -7.3  100   -7.3  15    0     1011.7   NA       0.0000   9999     1080  0     0    
2019/07/01  16:37:00  BASE  0.0294   309  2.54016  138  -7.2  100   -7.2  14    0     1011.7   NA       0.0000   9999     980   0     0    
2019/07/01  16:38:00  BASE  0.24108  316  2.54016  138  -7.1  100   -7.1  13    0     1011.7   NA       0.0000   9999     980   0     0    
2019/07/01  16:39:00  BASE  0.86436  96   1.9992   137  -7.1  100   -7.1  13    0     1011.7   NA       0.0000   9999     920   0     0    
2019/07/01  16:40:00  BASE  1.5582   104  2.21088  101  -7.1  100   -7.1  13    0     1011.7   NA       0.0000   9999     950   0     0    
2019/07/01  16:41:00  BASE  1.84632  106  2.24028  116  -7.1  100   -7.1  13    0     1011.7   NA       0.0000   9999     950   0     0    
2019/07/01  16:42:00  BASE  2.03448  122  2.54016  143  -7.2  100   -7.2  13    0     1011.7   NA       0.0000   9999     1020  0     0    
2019/07/01  16:43:00  BASE  1.86984  144  2.54016  143  -7.2  100   -7.2  13    0     1011.7   NA       0.0000   9999     1020  0     0    
2019/07/01  16:44:00  BASE  1.34652  144  2.54016  143  -7.2  100   -7.2  13    0     1011.7   NA       0.0000   9999     1020  0     0    
2019/07/01  16:45:00  BASE  0.93492  112  2.54016  143  -7.2  100   -7.2  13    0     1011.7   NA       0.0000   9999     1020  0     0    
2019/07/01  16:46:00  BASE  0.45276  97   2.54016  143  -7.2  100   -7.2  13    0     1011.7   NA       0.0000   9999     1080  0     0    
2019/07/01  16:47:00  BASE  0.09408  129  2.54016  143  -7.2  100   -7.2  12    0     1011.8   NA       0.0000   9999     1120  0     0    
2019/07/01  16:48:00  BASE  0        179  2.54016  143  -7.2  100   -7.2  11    0     1011.9   NA       0.0000   9999     1080  0     0    
2019/07/01  16:49:00  BASE  0.39396  249  2.54016  143  -7.2  100   -7.2  11    0     1011.9   NA       0.0000   9999     1080  0     0    
2019/07/01  16:50:00  BASE  1.29948  235  2.54016  143  -7.2  100   -7.2  10    0     1011.9   NA       0.0000   9999     980   0     0    
2019/07/01  16:51:00  BASE  2.0286   222  2.54016  219  -7.1  100   -7.1  10    0     1011.9   NA       0.0000   9999     950   0     0    
2019/07/01  16:52:00  BASE  1.86396  213  2.54016  219  -7.0  100   -7.0  10    0     1011.9   NA       0.0000   9999     980   0     0    
2019/07/01  16:53:00  BASE  1.7052   197  2.54016  219  -6.9  100   -6.9  9     0     1011.9   NA       0.0000   9999     950   0     0    
2019/07/01  16:54:00  BASE  1.5876   173  2.54016  219  -7.0  100   -7.0  9     0     1011.9   NA       0.0000   9999     1020  0     0    
2019/07/01  16:55:00  BASE  1.09368  167  2.54016  219  -7.0  100   -7.0  9     0     1011.9   NA       0.0000   9999     790   0     0    
2019/07/01  16:56:00  BASE  0.65268  159  2.54016  219  -7.0  100   -7.0  10    0     1011.9   NA       0.0000   9999     720   0     0    
2019/07/01  16:57:00  BASE  0.61152  110  2.54016  219  -7.1  100   -7.1  10    0     1011.9   NA       0.0000   9999     750   0     0    
2019/07/01  16:58:00  BASE  1.11132  78   2.54016  219  -7.1  100   -7.1  10    0     1011.9   NA       0.0000   9999     820   0     0    
2019/07/01  16:59:00  BASE  1.44648  73   2.54016  219  -7.1  100   -7.1  10    0     1011.9   NA       0.0000   9999     920   0     0    
2019/07/01  17:00:00  BASE  1.22304  98   2.54016  219  -7.1  100   -7.1  11    0     1011.9   NA       0.0000   9999     980   0     0    
2019/07/01  17:01:00  BASE  0.6468   104  2.38728  199  -7.1  100   -7.1  12    0     1011.9   NA       0.0000   9999     1020  0     0    
2019/07/01  17:02:00  BASE  0.19404  97   2.38728  199  -7.1  100   -7.1  12    0     1012.0   NA       0.0000   9999     1080  0     0    
2019/07/01  17:03:00  BASE  0.77616  164  2.90472  220  -7.1  100   -7.1  13    0     1012.0   NA       0.0000   9999     1050  0     0    
2019/07/01  17:04:00  BASE  2.19324  216  3.1752   201  -7.1  100   -7.1  13    0     1012.0   NA       0.0000   9999     1020  0     0    
2019/07/01  17:05:00  BASE  2.75772  196  3.1752   201  -7.1  100   -7.1  13    0     1012.0   NA       0.0000   9999     890   0     0    
2019/07/01  17:06:00  BASE  3.02232  199  3.75144  205  -7.1  100   -7.1  13    0     1012.0   NA       0.0000   9999     950   0     0    
2019/07/01  17:07:00  BASE  2.86944  211  3.75144  205  -7.1  100   -7.1  13    0     1012.0   NA       0.0000   9999     890   0     0    
2019/07/01  17:08:00  BASE  2.37552  208  3.75144  205  -7.1  100   -7.1  13    0     1012.0   NA       0.0000   9999     750   0     0    
2019/07/01  17:09:00  BASE  2.22852  193  3.75144  205  -7.1  100   -7.1  12    0     1012.0   NA       0.0000   9999     720   0     0    
2019/07/01  17:10:00  BASE  1.85808  189  3.75144  205  -7.1  100   -7.1  12    0     1012.0   NA       0.0000   9999     750   0     0    
2019/07/01  17:11:00  BASE  1.59348  192  3.75144  205  -7.1  100   -7.1  12    0     1012.0   NA       0.0000   9999     690   0     0    
2019/07/01  17:12:00  BASE  2.04624  196  3.75144  205  -7.1  100   -7.1  12    0     1012.0   NA       0.0000   9999     690   0     0    
2019/07/01  17:13:00  BASE  2.61072  198  3.75144  205  -7.1  100   -7.1  12    0     1012.0   NA       0.0000   9999     690   0     0    
2019/07/01  17:14:00  BASE  2.78124  203  3.75144  205  -7.1  100   -7.1  12    0     1011.2   NA       0.0000   9999     750   0     0    
2019/07/01  17:15:00  BASE  3.21048  208  4.35708  210  -7.1  100   -7.1  12    0     1011.7   NA       0.0000   9999     720   0     0    
2019/07/01  17:16:00  BASE  3.42804  208  4.35708  210  -7.1  100   -7.1  11    0     1011.9   NA       0.0000   9999     820   0     0    
2019/07/01  17:17:00  BASE  3.13992  200  4.35708  210  -7.1  100   -7.1  11    0     1011.9   NA       0.0000   9999     520   0     0    
2019/07/01  17:18:00  BASE  2.71656  193  4.35708  210  -7.1  100   -7.1  11    0     1011.9   NA       0.0000   9999     520   0     0    
2019/07/01  17:19:00  BASE  2.50488  189  4.35708  210  -7.1  100   -7.1  11    0     1011.9   NA       0.0000   9999     560   0     0    
2019/07/01  17:20:00  BASE  2.55192  181  4.35708  210  -7.1  100   -7.1  11    0     1011.6   NA       0.0000   9000     590   0     0    
2019/07/01  17:21:00  BASE  2.39904  180  4.35708  210  -7.1  100   -7.1  10    0     1011.3   NA       0.0000   8000     520   0     0    
2019/07/01  17:22:00  BASE  1.94628  181  4.35708  210  -7.2  100   -7.2  10    0     1012.0   NA       0.0000   BR       5000  430   0    
2019/07/01  17:23:00  BASE  1.50528  187  4.35708  210  -7.2  100   -7.2  10    0     1012.1   NA       0.0000   BR       4500  490   0    
2019/07/01  17:24:00  BASE  1.75812  190  4.35708  210  -7.2  100   -7.2  10    0     1012.1   NA       0.0000   BR       5000  460   0    
2019/07/01  17:25:00  BASE  2.13444  183  4.116    203  -7.2  100   -7.2  10    0     1012.1   NA       0.0000   BR       6000  560   0    
2019/07/01  17:26:00  BASE  2.0286   182  3.29868  196  -7.2  100   -7.2  10    0     1012.1   NA       0.0000   BR       7000  560   0    
2019/07/01  17:27:00  BASE  2.3226   188  3.1752   196  -7.2  100   -7.2  10    0     1012.1   NA       0.0000   BR       8000  520   0    
2019/07/01  17:28:00  BASE  2.48724  187  3.1752   196  -7.2  100   -7.2  9     0     1012.2   NA       0.0000   BR       8000  460   0    
2019/07/01  17:29:00  BASE  2.53428  183  3.1752   196  -7.2  100   -7.2  9     0     1012.2   NA       0.0000   BR       8000  520   0    
2019/07/01  17:30:00  BASE  2.59308  187  3.1752   196  -7.2  100   -7.2  9     0     1012.2   NA       0.0000   BR       9000  490   0    
2019/07/01  17:31:00  BASE  2.33436  182  3.1752   196  -7.2  100   -7.2  9     0     1012.2   NA       0.0000   BR       8000  520   0    
2019/07/01  17:32:00  BASE  2.36376  176  3.35748  178  -7.2  100   -7.2  9     0     1012.1   NA       0.0000   BR       9000  590   0    
2019/07/01  17:33:00  BASE  2.66364  181  3.35748  178  -7.2  100   -7.2  8     0     1011.8   NA       0.0000   BR       8000  560   0    
2019/07/01  17:34:00  BASE  2.62836  181  3.35748  178  -7.2  100   -7.2  8     0     1012.2   NA       0.0000   BR       7000  490   0    
2019/07/01  17:35:00  BASE  2.45196  185  3.35748  178  -7.2  100   -7.2  8     0     1012.3   NA       0.0000   BR       7000  460   0    
2019/07/01  17:36:00  BASE  2.59308  186  3.35748  178  -7.2  100   -7.2  7     0     1012.4   NA       0.0000   BR       7000  560   0    
2019/07/01  17:37:00  BASE  2.68128  178  3.35748  178  -7.2  100   -7.2  7     0     1012.5   NA       0.0000   BR       8000  520   0    
2019/07/01  17:38:00  BASE  2.6166   174  3.35748  178  -7.2  100   -7.2  7     0     1012.5   NA       0.0000   BR       7000  560   0    
2019/07/01  17:39:00  BASE  2.62836  170  3.35748  178  -7.2  100   -7.2  7     0     1012.5   NA       0.0000   BR       7000  560   0    
2019/07/01  17:40:00  BASE  2.36376  177  3.35748  178  -7.2  100   -7.2  7     0     1012.5   NA       0.0000   BR       8000  590   0    
2019/07/01  17:41:00  BASE  1.84044  190  3.35748  178  -7.2  100   -7.2  7     0     1012.5   NA       0.0000   BR       9999  690   0    
2019/07/01  17:42:00  BASE  1.87572  197  3.26928  193  -7.2  100   -7.2  7     0     1012.5   NA       0.0000   BR       9999  660   0    
2019/07/01  17:43:00  BASE  2.79888  200  4.05132  205  -7.2  100   -7.2  6     0     1012.5   NA       0.0000   BR       9999  890   0    
2019/07/01  17:44:00  BASE  3.83376  204  4.75104  201  -7.2  100   -7.2  6     0     1012.5   NA       0.0000   BR       9999  980   0    
2019/07/01  17:45:00  BASE  3.77496  210  4.75104  201  -7.2  100   -7.2  6     0     1012.6   NA       0.0000   BR       9999  820   0    
2019/07/01  17:46:00  BASE  3.39864  216  4.75104  201  -7.2  100   -7.2  6     0     1012.6   NA       0.0000   BR       9999  590   0    
2019/07/01  17:47:00  BASE  3.43392  211  4.75104  201  -7.2  100   -7.2  6     0     1012.7   NA       0.0000   9999     790   0     0    
2019/07/01  17:48:00  BASE  3.8514   212  4.75104  201  -7.3  100   -7.3  6     0     1012.7   NA       0.0000   9999     820   0     0    
2019/07/01  17:49:00  BASE  3.88668  217  4.75104  201  -7.3  100   -7.3  6     0     1012.7   NA       0.0000   9999     620   0     0    
2019/07/01  17:50:00  BASE  3.08112  211  4.75104  201  -7.3  100   -7.3  6     0     1012.7   NA       0.0000   9999     590   0     0    
2019/07/01  17:51:00  BASE  2.9694   200  4.75104  201  -7.3  100   -7.3  5     0     1012.7   NA       0.0000   9999     620   0     0    
2019/07/01  17:52:00  BASE  3.234    196  4.75104  201  -7.3  100   -7.3  5     0     1012.7   NA       0.0000   9999     820   0     0    
2019/07/01  17:53:00  BASE  3.05172  184  4.75104  201  -7.3  100   -7.3  5     0     1012.8   NA       0.0000   9999     1050  0     0    
2019/07/01  17:54:00  BASE  2.8518   180  4.68636  226  -7.3  100   -7.3  5     0     1012.8   NA       0.0000   9999     950   0     0    
2019/07/01  17:55:00  BASE  3.528    212  4.80984  237  -7.3  100   -7.3  5     0     1012.8   NA       0.0000   9999     950   0     0    
2019/07/01  17:56:00  BASE  3.6162   230  4.80984  237  -7.3  100   -7.3  5     0     1012.8   NA       0.0000   9999     950   0     0    
2019/07/01  17:57:00  BASE  2.2344   229  4.80984  237  -7.3  100   -7.3  5     0     1012.8   NA       0.0000   9999     820   1410  0    
2019/07/01  17:58:00  BASE  1.38768  233  4.80984  237  -7.3  100   -7.3  5     0     1012.8   NA       0.0000   9999     1210  0     0    
2019/07/01  17:59:00  BASE  0.92904  238  4.80984  237  -7.3  100   -7.3  5     0     1012.8   NA       0.0000   9999     950   2070  0    
2019/07/01  18:00:00  BASE  0.8232   254  4.80984  237  -7.3  100   -7.3  6     0     1012.8   NA       0.0000   9999     950   0     0    
2019/07/01  18:01:00  BASE  1.0584   259  4.80984  237  -7.3  100   -7.3  6     0     1012.8   NA       0.0000   9999     1050  0     0    
2019/07/01  18:02:00  BASE  1.2348   254  4.80984  237  -7.3  100   -7.3  6     0     1012.8   NA       0.0000   9999     920   0     0    
2019/07/01  18:03:00  BASE  1.01136  256  4.80984  237  -7.3  100   -7.3  6     0     1012.8   NA       0.0000   9999     1080  0     0    
2019/07/01  18:04:00  BASE  0.882    254  4.80984  237  -7.3  100   -7.3  5     0     1012.8   NA       0.0000   9999     1020  0     0    
2019/07/01  18:05:00  BASE  1.00548  242  3.75144  229  -7.2  100   -7.2  6     0     1012.8   NA       0.0000   9999     980   0     0    
2019/07/01  18:06:00  BASE  0.95256  228  2.35788  229  -7.2  100   -7.2  6     0     1012.8   NA       0.0000   9999     850   0     0    
2019/07/01  18:07:00  BASE  1.21128  200  1.87572  176  -7.2  100   -7.2  6     0     1012.8   NA       0.0000   9999     890   0     0    
2019/07/01  18:08:00  BASE  1.74636  173  2.63424  170  -7.2  100   -7.2  6     0     1012.8   NA       0.0000   9999     1020  0     0    
2019/07/01  18:09:00  BASE  2.2344   160  2.63424  162  -7.1  100   -7.1  6     0     1012.8   NA       0.0000   9999     1120  0     0    
2019/07/01  18:10:00  BASE  2.39316  160  2.75184  172  -7.1  100   -7.1  5     0     1012.8   NA       0.0000   9999     1080  0     0    
2019/07/01  18:11:00  BASE  2.36964  168  2.81064  179  -7.0  100   -7.0  5     0     1012.8   NA       0.0000   9999     1120  0     0    
2019/07/01  18:12:00  BASE  2.3226   173  2.93412  174  -7.0  100   -7.0  5     0     1012.8   NA       0.0000   9999     1120  0     0    
2019/07/01  18:13:00  BASE  2.22852  165  2.93412  174  -7.0  100   -7.0  5     0     1012.9   NA       0.0000   9999     1120  0     0    
2019/07/01  18:14:00  BASE  2.11092  152  2.93412  174  -7.0  100   -7.0  5     0     1012.9   NA       0.0000   9999     1280  0     0    
2019/07/01  18:15:00  BASE  2.31084  162  3.02232  170  -7.1  100   -7.1  5     0     1012.9   NA       0.0000   9999     1510  0     0    
2019/07/01  18:16:00  BASE  2.62248  184  3.1458   202  -7.1  100   -7.1  4     0     1012.9   NA       0.0000   9999     1480  0     0    
2019/07/01  18:17:00  BASE  3.61032  190  5.145    183  -7.1  100   -7.1  4     0     1012.9   NA       0.0000   9999     1480  0     0    
2019/07/01  18:18:00  BASE  4.42176  186  5.145    183  -7.2  100   -7.2  4     0     1012.9   NA       0.0000   9999     1410  0     0    
2019/07/01  18:19:00  BASE  4.06896  193  5.145    183  -7.2  100   -7.2  4     0     1012.9   NA       0.0000   9999     1540  0     0    
2019/07/01  18:20:00  BASE  3.95136  202  5.47428  203  -7.3  100   -7.3  4     0     1012.9   NA       0.0000   9999     1440  0     0    
2019/07/01  18:21:00  BASE  4.57464  204  5.86824  204  -7.3  100   -7.3  4     0     1012.9   NA       0.0000   9999     1410  0     0    
2019/07/01  18:22:00  BASE  4.66284  200  5.86824  204  -7.3  100   -7.3  4     0     1012.9   NA       0.0000   9999     1510  0     0    
2019/07/01  18:23:00  BASE  4.116    195  5.86824  204  -7.3  100   -7.3  4     0     1013.0   NA       0.0000   9999     1410  0     0    
2019/07/01  18:24:00  BASE  3.83376  189  5.86824  204  -7.4  100   -7.4  4     0     1013.0   NA       0.0000   9999     750   0     0    
2019/07/01  18:25:00  BASE  3.21048  176  5.86824  204  -7.4  100   -7.4  4     0     1013.0   NA       0.0000   9999     720   0     0    
2019/07/01  18:26:00  BASE  2.89296  167  5.86824  204  -7.4  100   -7.4  4     0     1013.0   NA       0.0000   9999     850   0     0    
2019/07/01  18:27:00  BASE  3.29868  158  5.86824  204  -7.4  100   -7.4  4     0     1013.0   NA       0.0000   9999     690   0     0    
2019/07/01  18:28:00  BASE  3.48096  144  5.86824  204  -7.4  100   -7.4  4     0     1013.1   NA       0.0000   9999     720   0     0    
2019/07/01  18:29:00  BASE  2.66952  144  5.86824  204  -7.4  100   -7.4  4     0     1013.1   NA       0.0000   9999     750   0     0    
2019/07/01  18:30:00  BASE  1.48176  157  5.86824  204  -7.4  100   -7.4  4     0     1013.2   NA       0.0000   9999     850   0     0    
2019/07/01  18:31:00  BASE  1.08192  163  5.65656  188  -7.4  100   -7.4  4     0     1013.2   NA       0.0000   9999     950   0     0    
2019/07/01  18:32:00  BASE  1.33476  148  5.65656  188  -7.4  100   -7.4  3     0     1013.2   NA       0.0000   9999     820   0     0    
2019/07/01  18:33:00  BASE  1.11132  112  4.35708  185  -7.4  100   -7.4  3     0     1013.3   NA       0.0000   9999     890   0     0    
2019/07/01  18:34:00  BASE  0.92904  94   4.08072  140  -7.3  100   -7.3  3     0     1013.3   NA       0.0000   9999     950   0     0    
2019/07/01  18:35:00  BASE  1.0878   100  4.08072  140  -7.3  100   -7.3  3     0     1013.3   NA       0.0000   9999     1020  0     0    
2019/07/01  18:36:00  BASE  1.14072  100  4.08072  140  -7.3  100   -7.3  3     0     1013.3   NA       0.0000   9999     1050  0     0    
2019/07/01  18:37:00  BASE  1.7052   104  3.90432  136  -7.3  100   -7.3  3     0     1013.3   NA       0.0000   9999     1020  0     0    
2019/07/01  18:38:00  BASE  2.35788  119  2.99292  133  -7.4  100   -7.4  3     0     1013.3   NA       0.0000   9999     1020  0     0    
2019/07/01  18:39:00  BASE  2.37552  125  2.99292  133  -7.4  100   -7.4  3     0     1013.3   NA       0.0000   9999     950   0     0    
2019/07/01  18:40:00  BASE  1.96392  121  2.99292  133  -7.4  100   -7.4  2     0     1013.3   NA       0.0000   9999     1080  0     0    
2019/07/01  18:41:00  BASE  1.59936  124  2.99292  133  -7.3  100   -7.3  2     0     1013.3   NA       0.0000   9999     1080  0     0    
2019/07/01  18:42:00  BASE  1.7052   129  2.99292  133  -7.3  100   -7.3  2     0     1013.3   NA       0.0000   9999     1150  0     0    
2019/07/01  18:43:00  BASE  1.87572  130  2.99292  133  -7.3  100   -7.3  2     0     1013.3   NA       0.0000   9999     1210  0     0    
2019/07/01  18:44:00  BASE  1.8228   134  2.99292  133  -7.3  100   -7.3  2     0     1013.3   NA       0.0000   9999     1120  0     0    
2019/07/01  18:45:00  BASE  2.03448  129  2.99292  133  -7.3  100   -7.3  2     0     1013.3   NA       0.0000   9999     1210  0     0    
2019/07/01  18:46:00  BASE  2.07564  126  2.99292  133  -7.3  100   -7.3  2     0     1013.3   NA       0.0000   9999     1210  0     0    
2019/07/01  18:47:00  BASE  1.59936  137  2.99292  133  -7.3  100   -7.3  2     0     1013.3   NA       0.0000   9999     1180  0     0    
2019/07/01  18:48:00  BASE  1.12896  160  2.56956  131  -7.3  100   -7.3  2     0     1013.4   NA       0.0000   9999     1210  0     0    
2019/07/01  18:49:00  BASE  0.64092  185  2.45196  123  -7.3  100   -7.3  2     0     1013.4   NA       0.0000   9999     1180  0     0    
2019/07/01  18:50:00  BASE  0.97608  204  2.69304  221  -7.3  100   -7.3  2     0     1013.3   NA       0.0000   9999     1180  0     0    
2019/07/01  18:51:00  BASE  2.06388  219  2.72244  214  -7.3  100   -7.3  2     0     1013.3   NA       0.0000   9999     1120  0     0    
2019/07/01  18:52:00  BASE  2.7636   219  3.35748  223  -7.3  100   -7.3  2     0     1013.3   NA       0.0000   9999     1050  0     0    
2019/07/01  18:53:00  BASE  2.7636   218  3.35748  223  -7.2  100   -7.2  2     0     1013.3   NA       0.0000   9999     980   0     0    
2019/07/01  18:54:00  BASE  2.59308  221  3.35748  223  -7.2  100   -7.2  2     0     1013.3   NA       0.0000   9999     980   0     0    
2019/07/01  18:55:00  BASE  2.91648  233  3.48096  244  -7.1  100   -7.1  2     0     1013.3   NA       0.0000   9999     1050  0     0    
2019/07/01  18:56:00  BASE  2.86356  238  3.48096  244  -7.1  100   -7.1  1     0     1013.3   NA       0.0000   9999     980   0     0    
2019/07/01  18:57:00  BASE  2.26968  233  3.48096  244  -7.2  100   -7.2  1     0     1013.3   NA       0.0000   9999     1050  0     0    
2019/07/01  18:58:00  BASE  1.7934   237  3.48096  244  -7.2  100   -7.2  1     0     1013.2   NA       0.0000   9999     1080  0     0    
2019/07/01  18:59:00  BASE  2.25204  245  3.59856  247  -7.2  100   -7.2  1     0     1013.2   NA       0.0000   9999     1050  0     0    
2019/07/01  19:00:00  BASE  2.71068  241  3.59856  247  -7.2  100   -7.2  1     0     1013.2   NA       0.0000   9999     980   0     0    
2019/07/01  19:01:00  BASE  2.94     231  4.29828  232  -7.2  100   -7.2  1     0     1013.2   NA       0.0000   9999     1020  0     0    
2019/07/01  19:02:00  BASE  3.29868  225  4.29828  232  -7.1  100   -7.1  1     0     1013.2   NA       0.0000   9999     1020  0     0    
2019/07/01  19:03:00  BASE  2.9988   216  4.29828  232  -7.1  100   -7.1  1     0     1013.3   NA       0.0000   9999     1020  0     0    
2019/07/01  19:04:00  BASE  2.98116  214  4.38648  218  -7.1  100   -7.1  1     0     1013.3   NA       0.0000   9999     1050  0     0    
2019/07/01  19:05:00  BASE  3.78672  206  5.68596  211  -7.1  100   -7.1  1     0     1013.3   NA       0.0000   9999     980   0     0    
2019/07/01  19:06:01  BASE  4.09836  195  5.68596  211  -7.1  100   -7.1  1     0     1013.4   NA       0.0000   9999     820   0     0    
2019/07/01  19:07:00  BASE  3.88668  189  5.68596  211  -7.1  100   -7.1  1     0     1013.4   NA       0.0000   9999     920   0     0    
2019/07/01  19:08:00  BASE  3.84552  181  5.68596  211  -7.1  100   -7.1  1     0     1013.4   NA       0.0000   9999     890   0     0    
2019/07/01  19:09:00  BASE  3.42804  176  5.68596  211  -7.1  100   -7.1  1     0     1013.4   NA       0.0000   9999     790   0     0    
2019/07/01  19:10:00  BASE  2.84592  171  5.68596  211  -7.1  100   -7.1  1     0     1013.4   NA       0.0000   9999     490   0     0    
2019/07/01  19:11:00  BASE  2.3814   165  5.68596  211  -7.1  100   -7.1  1     0     1013.4   NA       0.0000   9999     490   0     0    
2019/07/01  19:12:00  BASE  2.09328  157  5.68596  211  -7.1  100   -7.1  1     0     1013.4   NA       0.0000   9999     560   0     0    
2019/07/01  19:13:00  BASE  2.0874   156  5.68596  211  -7.1  100   -7.1  0     0     1013.4   NA       0.0000   9999     890   0     0    
2019/07/01  19:14:00  BASE  2.07564  168  5.68596  211  -7.1  100   -7.1  0     0     1013.4   NA       0.0000   9999     720   0     0    
2019/07/01  19:15:00  BASE  1.764    177  4.41588  184  -7.1  100   -7.1  0     0     1013.4   NA       0.0000   9999     590   0     0    
2019/07/01  19:16:00  BASE  1.3524   177  4.41588  184  -7.1  100   -7.1  0     0     1013.6   NA       0.0000   9999     690   0     0    
2019/07/01  19:17:00  BASE  1.4994   185  4.41588  184  -7.1  100   -7.1  0     0     1013.6   NA       0.0000   9999     790   0     0    
2019/07/01  19:18:00  BASE  1.98156  203  3.35748  181  -7.1  100   -7.1  0     0     1013.6   NA       0.0000   9999     750   0     0    
2019/07/01  19:19:00  BASE  2.12856  212  3.0576   173  -7.1  100   -7.1  0     0     1013.6   NA       0.0000   9999     560   0     0    
2019/07/01  19:20:00  BASE  2.42844  213  3.29868  210  -7.1  100   -7.1  0     0     1013.6   NA       0.0000   9999     590   0     0    
2019/07/01  19:21:00  BASE  2.59308  209  3.29868  210  -7.1  100   -7.1  0     0     1013.6   NA       0.0000   9999     890   0     0    
2019/07/01  19:22:00  BASE  2.28732  207  3.29868  210  -7.1  100   -7.1  0     0     1013.6   NA       0.0000   9999     490   0     0    
2019/07/01  19:23:00  BASE  1.74048  207  3.29868  210  -7.1  100   -7.1  0     0     1013.6   NA       0.0000   9999     660   0     0    
2019/07/01  19:24:00  BASE  1.22304  197  3.29868  210  -7.1  100   -7.1  0     0     1013.6   NA       0.0000   9999     660   0     0    
2019/07/01  19:25:00  BASE  1.43472  199  3.29868  210  -7.1  100   -7.1  0     0     1013.6   NA       0.0000   9999     850   0     0    
2019/07/01  19:26:00  BASE  1.68168  217  3.29868  210  -7.1  100   -7.1  0     0     1013.6   NA       0.0000   9999     850   0     0    
2019/07/01  19:27:00  BASE  1.47     224  3.29868  210  -7.1  100   -7.1  0     0     1013.6   NA       0.0000   9999     660   0     0    
2019/07/01  19:28:00  BASE  1.39356  216  3.29868  210  -7.1  100   -7.1  0     0     1013.6   NA       0.0000   9999     460   0     0    
2019/07/01  19:29:00  BASE  1.51116  217  3.29868  210  -7.0  100   -7.0  0     0     1013.6   NA       0.0000   9999     560   0     0    
2019/07/01  19:30:00  BASE  1.7934   223  2.75184  208  -7.0  100   -7.0  0     0     1013.7   NA       0.0000   9999     720   0     0    
2019/07/01  19:31:00  BASE  2.52252  215  3.59856  205  -7.0  100   -7.0  0     0     1013.7   NA       0.0000   9999     790   0     0    
2019/07/01  19:32:00  BASE  2.92824  209  3.59856  205  -7.0  100   -7.0  0     0     1013.8   NA       0.0000   9999     660   0     0    
2019/07/01  19:33:00  BASE  2.72832  205  3.59856  205  -7.0  100   -7.0  0     0     1013.8   NA       0.0000   9999     430   0     0    
2019/07/01  19:34:00  BASE  2.78124  206  3.83964  212  -6.9  100   -6.9  0     0     1013.8   NA       0.0000   9000     430   0     0    
2019/07/01  19:35:00  BASE  3.31044  210  4.02192  221  -6.9  100   -6.9  0     0     1013.8   NA       0.0000   9999     850   0     0    
2019/07/01  19:36:00  BASE  3.44568  208  4.02192  221  -6.9  100   -6.9  0     0     1013.9   NA       0.0000   9999     620   0     0    
2019/07/01  19:37:00  BASE  2.92824  203  4.02192  221  -6.9  100   -6.9  0     0     1014.0   NA       0.0000   9999     690   0     0    
2019/07/01  19:38:00  BASE  2.97528  208  4.35708  204  -6.9  100   -6.9  0     0     1014.0   NA       0.0000   9999     660   0     0    
2019/07/01  19:39:00  BASE  3.4104   207  4.35708  204  -6.9  100   -6.9  0     0     1013.8   NA       0.0000   9999     720   0     0    
2019/07/01  19:40:00  BASE  3.2634   200  4.35708  204  -6.9  100   -6.9  0     0     1014.1   NA       0.0000   9999     590   0     0    
2019/07/01  19:41:00  BASE  3.10464  202  4.35708  204  -6.9  100   -6.9  0     0     1014.1   NA       0.0000   9999     720   0     0    
2019/07/01  19:42:00  BASE  2.9988   204  4.35708  204  -6.9  100   -6.9  0     0     1014.1   NA       0.0000   9999     660   0     0    
2019/07/01  19:43:00  BASE  2.59308  210  4.35708  204  -6.9  100   -6.9  0     0     1014.2   NA       0.0000   9999     660   0     0    
2019/07/01  19:44:00  BASE  2.74596  225  4.35708  204  -6.9  100   -6.9  0     0     1014.2   NA       0.0000   9999     660   0     0    
2019/07/01  19:45:01  BASE  2.98116  232  4.35708  204  -6.9  100   -6.9  0     0     1014.2   NA       0.0000   9999     660   0     0    
2019/07/01  19:46:00  BASE  3.03996  224  4.35708  204  -6.9  100   -6.9  0     0     1014.2   NA       0.0000   9999     460   0     0    
2019/07/01  19:47:00  BASE  3.0576   225  4.35708  204  -6.9  100   -6.9  0     0     1014.2   NA       0.0000   9999     520   0     0    
2019/07/01  19:48:00  BASE  2.9106   228  4.08072  202  -6.8  100   -6.8  0     0     1014.2   NA       0.0000   9999     590   0     0    
2019/07/01  19:49:00  BASE  3.31044  230  4.75104  225  -6.8  100   -6.8  0     0     1014.2   NA       0.0000   9999     560   0     0    
2019/07/01  19:50:00  BASE  3.78084  235  4.75104  225  -6.8  100   -6.8  0     0     1014.2   NA       0.0000   9999     750   0     0    
2019/07/01  19:51:00  BASE  3.72792  231  4.75104  225  -6.8  100   -6.8  0     0     1014.2   NA       0.0000   9999     820   0     0    
2019/07/01  19:52:00  BASE  4.34532  219  5.71536  209  -6.8  100   -6.8  0     0     1014.2   NA       0.0000   9999     750   0     0    
2019/07/01  19:53:00  BASE  5.06856  220  5.95644  213  -6.8  100   -6.8  0     0     1014.2   NA       0.0000   9999     430   0     0    
2019/07/01  19:54:00  BASE  4.99212  222  5.95644  213  -6.8  100   -6.8  0     0     1014.2   NA       0.0000   9999     750   0     0    
2019/07/01  19:55:00  BASE  5.2038   217  5.95644  213  -6.8  100   -6.8  0     0     1014.2   NA       0.0000   9999     520   0     0    
2019/07/01  19:56:00  BASE  5.34492  217  5.95644  213  -6.8  100   -6.8  0     0     1014.2   NA       0.0000   9999     430   0     0    
2019/07/01  19:57:00  BASE  4.72752  220  5.95644  213  -6.8  100   -6.8  0     0     1014.3   NA       0.0000   9999     360   0     0    
2019/07/01  19:58:00  BASE  3.675    222  5.95644  213  -6.8  100   -6.8  0     0     1014.4   NA       0.0000   9999     390   0     0    
2019/07/01  19:59:00  BASE  2.95764  223  5.95644  213  -6.8  100   -6.8  0     0     1014.4   NA       0.0000   9999     430   0     0    
2019/07/01  20:00:00  BASE  2.87532  226  5.95644  213  -6.8  100   -6.8  0     0     1014.4   NA       0.0000   9999     460   0     0    
2019/07/01  20:01:00  BASE  2.646    231  5.95644  213  -6.9  100   -6.9  0     0     1014.4   NA       0.0000   9999     690   0     0    
2019/07/01  20:02:00  BASE  2.5578   233  5.95644  213  -6.9  100   -6.9  0     0     1014.4   NA       0.0000   9999     490   0     0    
2019/07/01  20:03:00  BASE  2.59896  224  5.80944  208  -6.9  100   -6.9  0     0     1014.4   NA       0.0000   9999     490   0     0    
2019/07/01  20:04:00  BASE  2.38728  211  5.80944  208  -6.9  100   -6.9  0     0     1014.4   NA       0.0000   9999     660   0     0    
2019/07/01  20:05:00  BASE  2.34612  205  5.80944  208  -6.9  100   -6.9  0     0     1014.5   NA       0.0000   9999     660   0     0    
2019/07/01  20:06:00  BASE  2.2638   208  4.93332  221  -6.9  100   -6.9  0     0     1014.5   NA       0.0000   9999     820   0     0    
2019/07/01  20:07:00  BASE  2.2932   215  3.48096  220  -6.9  100   -6.9  0     0     1014.5   NA       0.0000   9999     820   0     0    
2019/07/01  20:08:00  BASE  2.55192  219  3.26928  236  -6.8  100   -6.8  0     0     1014.5   NA       0.0000   9999     820   0     0    
2019/07/01  20:09:00  BASE  2.69304  224  3.26928  236  -6.8  100   -6.8  0     0     1014.5   NA       0.0000   9999     820   0     0    
2019/07/01  20:10:00  BASE  2.8518   226  3.35748  227  -6.8  100   -6.8  0     0     1014.5   NA       0.0000   9999     790   0     0    
2019/07/01  20:11:00  BASE  3.31632  229  4.2336   237  -6.8  100   -6.8  0     0     1014.4   NA       0.0000   9999     820   0     0    
2019/07/01  20:12:00  BASE  4.31592  229  5.68596  229  -6.8  100   -6.8  0     0     1014.4   NA       0.0000   9999     620   0     0    
2019/07/01  20:13:00  BASE  5.1156   225  5.68596  222  -6.8  100   -6.8  0     0     1014.4   NA       0.0000   9999     520   0     0    
2019/07/01  20:14:00  BASE  5.15676  221  5.68596  222  -6.8  100   -6.8  0     0     1014.5   NA       0.0000   9999     490   0     0    
2019/07/01  20:15:00  BASE  4.50996  224  5.68596  222  -6.8  100   -6.8  0     0     1014.5   NA       0.0000   9999     390   0     0    
2019/07/01  20:16:00  BASE  4.16892  229  5.68596  222  -6.8  100   -6.8  0     0     1014.5   NA       0.0000   9999     560   0     0    
2019/07/01  20:17:00  BASE  4.13952  232  5.68596  222  -6.8  100   -6.8  0     0     1014.5   NA       0.0000   9999     560   0     0    
2019/07/01  20:18:00  BASE  3.94548  234  5.68596  222  -6.8  100   -6.8  0     0     1014.5   NA       0.0000   9999     430   0     0    
2019/07/01  20:19:00  BASE  3.60444  232  5.68596  222  -6.8  100   -6.8  0     0     1014.6   NA       0.0000   9999     390   0     0    
2019/07/01  20:20:00  BASE  3.39276  234  5.68596  222  -6.8  100   -6.8  0     0     1014.6   NA       0.0000   9999     430   0     0    
2019/07/01  20:21:00  BASE  3.62796  238  5.68596  222  -6.8  100   -6.8  0     0     1014.6   NA       0.0000   9999     460   0     0    
2019/07/01  20:22:00  BASE  3.62796  225  5.68596  222  -6.8  100   -6.8  0     0     1014.6   NA       0.0000   9999     430   0     0    
2019/07/01  20:23:00  BASE  3.3516   219  5.56836  222  -6.8  100   -6.8  0     0     1014.6   NA       0.0000   9999     720   0     0    
2019/07/01  20:24:00  BASE  3.40452  227  4.86864  227  -6.8  100   -6.8  0     0     1014.6   NA       0.0000   9999     690   0     0    
2019/07/01  20:25:00  BASE  4.09248  225  5.2626   222  -6.8  100   -6.8  0     0     1014.6   NA       0.0000   9999     430   0     0    
2019/07/01  20:26:00  BASE  4.6746   221  5.44488  211  -6.8  100   -6.8  0     0     1014.6   NA       0.0000   9999     360   0     0    
2019/07/01  20:27:00  BASE  4.80984  218  5.44488  211  -6.8  100   -6.8  0     0     1014.6   NA       0.0000   9999     390   0     0    
2019/07/01  20:28:00  BASE  4.36884  222  5.44488  211  -6.8  100   -6.8  0     0     1014.6   NA       0.0000   9999     360   0     0    
2019/07/01  20:29:00  BASE  3.822    227  5.44488  211  -6.8  100   -6.8  0     0     1014.6   NA       0.0000   8000     360   0     0    
2019/07/01  20:30:00  BASE  3.38688  229  5.44488  211  -6.7  100   -6.7  0     0     1014.6   NA       0.0000   9999     460   0     0    
2019/07/01  20:31:00  BASE  3.48684  231  5.44488  211  -6.8  100   -6.8  0     0     1014.6   NA       0.0000   9999     390   0     0    
2019/07/01  20:32:00  BASE  3.6456   236  5.44488  211  -6.8  100   -6.8  0     0     1014.6   NA       0.0000   9999     520   0     0    
2019/07/01  20:33:00  BASE  3.46332  241  5.44488  211  -6.8  100   -6.8  0     0     1014.6   NA       0.0000   9999     560   0     0    
2019/07/01  20:34:00  BASE  3.37512  239  5.44488  211  -6.8  100   -6.8  0     0     1014.6   NA       0.0000   9999     590   0     0    
2019/07/01  20:35:00  BASE  3.21636  239  5.44488  211  -6.8  100   -6.8  0     0     1014.6   NA       0.0000   9999     520   0     0    
2019/07/01  20:36:00  BASE  3.15168  240  5.145    218  -6.9  100   -6.9  0     0     1014.6   NA       0.0000   9999     620   0     0    
2019/07/01  20:37:00  BASE  3.06936  245  4.47468  225  -6.9  100   -6.9  0     0     1014.6   NA       0.0000   9999     890   0     0    
2019/07/01  20:38:00  BASE  3.10464  250  4.35708  233  -6.9  100   -6.9  0     0     1014.6   NA       0.0000   9999     750   0     0    
2019/07/01  20:39:00  BASE  3.81612  241  5.38608  237  -6.9  100   -6.9  0     0     1014.6   NA       0.0000   9999     790   0     0    
2019/07/01  20:40:00  BASE  4.44528  227  5.92704  234  -6.9  100   -6.9  0     0     1014.6   NA       0.0000   9999     720   1510  0    
2019/07/01  20:41:00  BASE  4.85688  229  5.92704  234  -6.8  100   -6.8  0     0     1014.6   NA       0.0000   9999     620   1570  0    
2019/07/01  20:42:00  BASE  4.93332  236  5.92704  234  -6.8  100   -6.8  0     0     1014.6   NA       0.0000   9999     430   1480  0    
2019/07/01  20:43:00  BASE  4.3218   236  5.92704  234  -6.8  100   -6.8  0     0     1014.7   NA       0.0000   9999     690   1800  0    
2019/07/01  20:44:00  BASE  3.88668  237  5.92704  234  -6.8  100   -6.8  0     0     1014.6   NA       0.0000   9999     920   0     0    
2019/07/01  20:45:00  BASE  3.86316  238  5.92704  234  -6.8  100   -6.8  0     0     1014.6   NA       0.0000   9999     750   0     0    
2019/07/01  20:46:00  BASE  4.15128  235  5.92704  234  -6.8  100   -6.8  0     0     1014.6   NA       0.0000   9999     590   0     0    
2019/07/01  20:47:00  BASE  4.33944  228  5.92704  234  -6.8  100   -6.8  0     0     1014.6   NA       0.0000   9999     660   0     0    
2019/07/01  20:48:00  BASE  4.33356  222  5.92704  234  -6.8  100   -6.8  0     0     1014.6   NA       0.0000   9999     460   0     0    
2019/07/01  20:49:00  BASE  4.1454   219  5.92704  234  -6.8  100   -6.8  0     0     1014.6   NA       0.0000   9999     360   0     0    
2019/07/01  20:50:00  BASE  3.83376  218  5.86824  233  -6.9  100   -6.9  0     0     1014.6   NA       0.0000   9999     360   0     0    
2019/07/01  20:51:00  BASE  3.49272  216  5.35668  241  -6.8  100   -6.8  0     0     1014.7   NA       0.0000   9999     330   0     0    
2019/07/01  20:52:00  BASE  2.95176  213  4.93332  235  -6.9  100   -6.9  0     0     1014.7   NA       0.0000   9999     360   0     0    
2019/07/01  20:53:00  BASE  2.499    210  4.93332  235  -6.9  100   -6.9  0     0     1014.7   NA       0.0000   9999     460   0     0    
2019/07/01  20:54:00  BASE  2.21676  208  4.93332  235  -6.8  100   -6.8  0     0     1014.7   NA       0.0000   9999     520   0     0    
2019/07/01  20:55:00  BASE  1.9992   204  4.93332  235  -6.8  100   -6.8  0     0     1014.7   NA       0.0000   9999     590   0     0    
2019/07/01  20:56:00  BASE  2.25792  202  4.75104  223  -6.9  100   -6.9  0     0     1014.7   NA       0.0000   9999     620   0     0    
2019/07/01  20:57:01  BASE  2.6754   205  4.65696  219  -6.8  100   -6.8  0     0     1014.7   NA       0.0000   9999     790   0     0    
2019/07/01  20:58:01  BASE  2.94     206  4.263    221  -6.8  100   -6.8  0     0     1014.7   NA       0.0000   9999     490   0     0    
2019/07/01  20:59:01  BASE  3.234    210  4.1454   217  -6.8  100   -6.8  0     0     1014.7   NA       0.0000   9999     590   0     0    
2019/07/01  21:00:01  BASE  3.7338   218  4.53936  227  -6.8  100   -6.8  0     0     1014.7   NA       0.0000   9999     460   0     0    
2019/07/01  21:01:01  BASE  3.85728  223  4.53936  227  -6.8  100   -6.8  0     0     1014.7   NA       0.0000   9999     460   0     0    
2019/07/01  21:02:01  BASE  3.28692  229  4.53936  227  -6.8  100   -6.8  0     0     1014.7   NA       0.0000   9999     1050  0     0    
2019/07/01  21:03:01  BASE  3.44568  227  5.292    228  -6.8  100   -6.8  0     0     1014.7   NA       0.0000   9999     1080  0     0    
2019/07/01  21:04:01  BASE  4.28652  223  5.292    228  -6.8  100   -6.8  0     0     1014.7   NA       0.0000   9999     1050  0     0    
2019/07/01  21:05:01  BASE  5.12148  226  6.07992  221  -6.8  100   -6.8  0     0     1014.6   NA       0.0000   9999     820   0     0    
2019/07/01  21:06:01  BASE  5.58012  224  6.07992  221  -6.8  100   -6.8  0     0     1014.7   NA       0.0000   9999     660   0     0    
2019/07/01  21:07:01  BASE  5.06856  224  6.07992  221  -6.8  100   -6.8  0     0     1014.7   NA       0.0000   9999     850   0     0    
2019/07/01  21:08:01  BASE  5.08032  226  6.2034   224  -6.8  100   -6.8  0     0     1014.6   NA       0.0000   9999     1050  0     0    
2019/07/01  21:09:01  BASE  5.49192  229  6.2034   224  -6.8  100   -6.8  0     0     1014.6   NA       0.0000   9999     460   0     0    
2019/07/01  21:10:01  BASE  5.22732  229  6.2034   224  -6.8  100   -6.8  0     0     1014.6   NA       0.0000   9999     620   0     0    
2019/07/01  21:11:01  BASE  5.09796  228  6.2034   224  -6.8  100   -6.8  0     0     1014.6   NA       0.0000   9999     790   0     0    
2019/07/01  21:12:01  BASE  5.10972  229  6.2034   224  -6.8  100   -6.8  0     0     1014.7   NA       0.0000   9999     1180  0     0    
2019/07/01  21:13:01  BASE  5.03328  223  6.2034   224  -6.8  100   -6.8  0     0     1014.7   NA       0.0000   9999     1150  1710  0    
2019/07/01  21:14:01  BASE  4.45704  220  6.2034   224  -6.8  100   -6.8  0     0     1014.7   NA       0.0000   9999     1380  0     0    
2019/07/01  21:15:01  BASE  3.4692   223  6.2034   224  -6.8  100   -6.8  0     0     1014.7   NA       0.0000   9999     590   0     0    
2019/07/01  21:16:01  BASE  2.75184  227  6.2034   224  -6.8  100   -6.8  0     0     1014.8   NA       0.0000   9999     790   0     0    
2019/07/01  21:17:01  BASE  3.0576   225  6.2034   224  -6.8  100   -6.8  0     0     1014.8   NA       0.0000   9999     1210  0     0    
2019/07/01  21:18:01  BASE  4.37472  223  6.50328  223  -6.8  100   -6.8  0     0     1014.8   NA       0.0000   9999     1310  0     0    
2019/07/01  21:19:01  BASE  4.92156  224  6.50328  223  -6.8  100   -6.8  0     0     1014.8   NA       0.0000   9999     1210  0     0    
2019/07/01  21:20:01  BASE  4.6158   227  6.50328  223  -6.9  100   -6.9  0     0     1014.8   NA       0.0000   9999     460   1250  0    
2019/07/01  21:21:01  BASE  4.30416  223  6.50328  223  -6.9  100   -6.9  0     0     1014.8   NA       0.0000   9999     430   0     0    
2019/07/01  21:22:01  BASE  4.08072  212  6.50328  223  -6.9  100   -6.9  0     0     1014.8   NA       0.0000   9999     430   0     0    
2019/07/01  21:23:01  BASE  3.83376  206  6.50328  223  -6.9  100   -6.9  0     0     1014.8   NA       0.0000   9999     390   0     0    
2019/07/01  21:24:01  BASE  3.56328  202  6.50328  223  -6.9  100   -6.9  0     0     1014.8   NA       0.0000   9999     560   0     0    
2019/07/01  21:25:01  BASE  3.234    203  6.50328  223  -6.9  100   -6.9  0     0     1014.8   NA       0.0000   9999     850   0     0    
2019/07/01  21:26:01  BASE  2.52252  205  6.50328  223  -6.9  100   -6.9  0     0     1014.8   NA       0.0000   9999     920   0     0    
2019/07/01  21:27:01  BASE  2.58132  206  6.50328  223  -6.9  100   -6.9  0     0     1014.8   NA       0.0000   9999     1050  0     0    
2019/07/01  21:28:01  BASE  3.36336  212  5.2626   241  -6.9  100   -6.9  0     0     1014.8   NA       0.0000   9999     980   0     0    
2019/07/01  21:29:01  BASE  4.07484  217  5.2626   241  -6.9  100   -6.9  0     0     1014.8   NA       0.0000   9999     920   0     0    
2019/07/01  21:30:01  BASE  4.34532  214  4.99212  200  -6.9  100   -6.9  0     0     1014.8   NA       0.0000   9999     850   0     0    
2019/07/01  21:31:01  BASE  4.37472  213  5.35668  221  -6.9  100   -6.9  0     0     1014.8   NA       0.0000   9999     1180  0     0    
2019/07/01  21:32:01  BASE  4.50996  213  5.35668  221  -6.9  100   -6.9  0     0     1014.8   NA       0.0000   9999     1020  0     0    
2019/07/01  21:33:01  BASE  4.4394   210  5.35668  221  -6.8  100   -6.8  0     0     1014.8   NA       0.0000   9999     950   0     0    
2019/07/01  21:34:01  BASE  4.34532  206  5.35668  221  -6.9  100   -6.9  0     0     1014.9   NA       0.0000   9999     1020  0     0    
2019/07/01  21:35:01  BASE  4.19244  200  5.35668  221  -6.9  100   -6.9  0     0     1015.0   NA       0.0000   9999     790   0     0    
2019/07/01  21:36:01  BASE  3.65736  189  5.35668  221  -6.9  100   -6.9  0     0     1015.0   NA       0.0000   9999     790   0     0    
2019/07/01  21:37:01  BASE  3.37512  190  5.35668  221  -6.9  100   -6.9  0     0     1015.0   NA       0.0000   9999     820   0     0    
2019/07/01  21:38:01  BASE  3.13404  200  5.35668  221  -6.9  100   -6.9  0     0     1015.0   NA       0.0000   9999     750   0     0    
2019/07/01  21:39:01  BASE  2.71068  205  5.35668  221  -6.9  100   -6.9  0     0     1015.0   NA       0.0000   9999     660   0     0    
2019/07/01  21:40:01  BASE  2.8224   204  5.35668  221  -6.9  100   -6.9  0     0     1015.0   NA       0.0000   9999     660   0     0    
2019/07/01  21:41:01  BASE  2.93412  201  5.02152  208  -6.9  100   -6.9  0     0     1015.0   NA       0.0000   9999     850   0     0    
2019/07/01  21:42:01  BASE  2.7342   195  4.78044  206  -6.9  100   -6.9  0     0     1015.0   NA       0.0000   9999     750   0     0    
2019/07/01  21:43:01  BASE  2.7048   192  4.78044  206  -6.9  100   -6.9  0     0     1015.0   NA       0.0000   9999     690   0     0    
2019/07/01  21:44:01  BASE  2.79888  188  4.78044  206  -6.9  100   -6.9  0     0     1015.0   NA       0.0000   9999     790   0     0    
2019/07/01  21:45:01  BASE  3.11052  185  4.32768  196  -6.9  100   -6.9  0     0     1015.0   NA       0.0000   9999     790   0     0    
2019/07/01  21:46:01  BASE  2.94588  181  4.32768  196  -6.9  100   -6.9  0     0     1015.0   NA       0.0000   9999     820   0     0    
2019/07/01  21:47:01  BASE  2.24616  185  3.81024  183  -6.9  100   -6.9  0     0     1015.0   NA       0.0000   9999     890   0     0    
2019/07/01  21:48:01  BASE  2.19324  199  3.81024  183  -6.9  100   -6.9  0     0     1015.0   NA       0.0000   9999     920   0     0    
2019/07/01  21:49:01  BASE  2.47548  199  3.81024  183  -6.9  100   -6.9  0     0     1015.0   NA       0.0000   9999     980   0     0    
2019/07/01  21:50:01  BASE  3.56916  202  4.93332  212  -6.8  100   -6.8  0     0     1015.0   NA       0.0000   9999     1120  0     0    
2019/07/01  21:51:01  BASE  4.88628  212  5.65656  215  -6.8  100   -6.8  0     0     1014.9   NA       0.0000   9999     1410  0     0    
2019/07/01  21:52:01  BASE  5.292    209  5.86824  208  -6.8  100   -6.8  0     0     1015.0   NA       0.0000   9999     1310  2170  0    
2019/07/01  21:53:01  BASE  5.5272   208  6.68556  207  -6.8  100   -6.8  0     0     1015.0   NA       0.0000   9999     1940  0     0    
2019/07/01  21:54:01  BASE  5.78592  208  6.68556  207  -6.8  100   -6.8  0     0     1015.0   NA       0.0000   9999     1800  0     0    
2019/07/01  21:55:01  BASE  5.53308  203  6.68556  207  -6.9  100   -6.9  0     0     1015.0   NA       0.0000   9999     1710  0     0    
2019/07/01  21:56:01  BASE  4.62756  196  6.68556  207  -6.9  100   -6.9  0     0     1015.0   NA       0.0000   9999     1800  0     0    
2019/07/01  21:57:01  BASE  4.06308  192  6.68556  207  -6.9  100   -6.9  0     0     1015.0   NA       0.0000   9999     890   1940  0    
2019/07/01  21:58:01  BASE  3.80436  194  6.68556  207  -7.0  100   -7.0  0     0     1015.0   NA       0.0000   9999     1800  0     0    
2019/07/01  21:59:01  BASE  3.36336  195  6.68556  207  -7.0  100   -7.0  0     0     1015.0   NA       0.0000   9999     1710  0     0    
2019/07/01  22:00:01  BASE  3.15756  198  6.68556  207  -7.0  100   -7.0  0     0     1015.0   NA       0.0000   9999     1380  0     0    
2019/07/01  22:01:00  BASE  3.42804  202  6.68556  207  -7.0  100   -7.0  0     0     1015.0   NA       0.0000   9999     1210  0     0    
2019/07/01  22:02:00  BASE  3.72204  203  6.68556  207  -6.9  100   -6.9  0     0     1015.0   NA       0.0000   9999     1210  0     0    
2019/07/01  22:03:00  BASE  3.7044   209  6.321    207  -6.9  100   -6.9  0     0     1015.0   NA       0.0000   9999     1350  0     0    
2019/07/01  22:04:00  BASE  3.94548  224  5.80944  202  -6.9  100   -6.9  0     0     1015.0   NA       0.0000   9999     1440  0     0    
2019/07/01  22:05:00  BASE  4.09248  235  4.75104  227  -6.9  100   -6.9  0     0     1015.0   NA       0.0000   9999     1350  0     0    
2019/07/01  22:06:00  BASE  3.90432  235  4.75104  227  -6.9  100   -6.9  0     0     1015.0   NA       0.0000   9999     790   0     0    
2019/07/01  22:07:00  BASE  3.47508  229  4.75104  227  -6.9  100   -6.9  0     0     1015.1   NA       0.0000   9999     690   0     0    
2019/07/01  22:08:00  BASE  2.98704  228  4.75104  227  -6.9  100   -6.9  0     0     1015.1   NA       0.0000   9999     920   0     0    
2019/07/01  22:09:00  BASE  2.8224   228  4.75104  227  -6.9  100   -6.9  0     0     1015.1   NA       0.0000   9999     890   0     0    
2019/07/01  22:10:01  BASE  3.01056  221  4.75104  227  -6.9  100   -6.9  0     0     1015.1   NA       0.0000   9999     820   0     0    
2019/07/01  22:11:01  BASE  3.43392  220  4.75104  227  -6.9  100   -6.9  0     0     1015.1   NA       0.0000   9999     720   0     0    
2019/07/01  22:12:01  BASE  3.66912  224  4.75104  227  -6.8  100   -6.8  0     0     1015.1   NA       0.0000   9999     660   0     0    
2019/07/01  22:13:01  BASE  3.969    221  4.65696  218  -6.8  100   -6.8  0     0     1015.1   NA       0.0000   9999     720   1440  0    
2019/07/01  22:14:01  BASE  4.03956  217  4.68636  221  -6.8  100   -6.8  0     0     1015.1   NA       0.0000   9999     850   0     0    
2019/07/01  22:15:01  BASE  3.45744  221  4.68636  221  -6.8  100   -6.8  0     0     1015.1   NA       0.0000   9999     920   0     0    
2019/07/01  22:16:01  BASE  2.98704  220  4.68636  221  -6.8  100   -6.8  0     0     1015.1   NA       0.0000   9999     850   0     0    
2019/07/01  22:17:01  BASE  2.71068  210  4.68636  221  -6.8  100   -6.8  0     0     1015.1   NA       0.0000   9999     890   0     0    
2019/07/01  22:18:01  BASE  2.63424  209  4.68636  221  -6.8  100   -6.8  0     0     1015.0   NA       0.0000   9999     950   0     0    
2019/07/01  22:19:01  BASE  3.29868  208  4.68636  221  -6.8  100   -6.8  0     0     1015.0   NA       0.0000   9999     1510  0     0    
2019/07/01  22:20:01  BASE  4.35708  203  5.02152  208  -6.8  100   -6.8  0     0     1015.0   NA       0.0000   9999     1310  1770  0    
2019/07/01  22:21:01  BASE  4.62756  206  5.02152  208  -6.8  100   -6.8  0     0     1015.0   NA       0.0000   9999     1310  0     0    
2019/07/01  22:22:01  BASE  4.3512   210  5.02152  208  -6.8  100   -6.8  0     0     1015.1   NA       0.0000   9999     1380  0     0    
2019/07/01  22:23:01  BASE  4.0572   215  5.02152  208  -6.8  100   -6.8  0     0     1015.1   NA       0.0000   9999     1310  0     0    
2019/07/01  22:24:01  BASE  3.675    212  5.02152  208  -6.8  100   -6.8  0     0     1015.1   NA       0.0000   9999     1180  0     0    
2019/07/01  22:25:01  BASE  3.54564  206  5.02152  208  -6.8  100   -6.8  0     0     1015.1   NA       0.0000   9999     1050  0     0    
2019/07/01  22:26:01  BASE  4.53936  207  5.68596  210  -6.7  100   -6.7  0     0     1015.0   NA       0.0000   9999     1210  0     0    
2019/07/01  22:27:01  BASE  5.29788  209  6.53268  202  -6.7  100   -6.7  0     0     1015.1   NA       0.0000   9999     1440  0     0    
2019/07/01  22:28:01  BASE  5.01564  200  6.53268  202  -6.8  100   -6.8  0     0     1015.1   NA       0.0000   9999     1610  0     0    
2019/07/01  22:29:01  BASE  4.90392  197  6.53268  202  -6.8  100   -6.8  0     0     1015.0   NA       0.0000   9999     1250  0     0    
2019/07/01  22:30:01  BASE  5.09208  200  6.53268  202  -6.8  100   -6.8  0     0     1015.0   NA       0.0000   9999     1080  0     0    
2019/07/01  22:31:01  BASE  5.06856  197  6.53268  202  -6.9  100   -6.9  0     0     1015.0   NA       0.0000   9999     1050  0     0    
2019/07/01  22:32:01  BASE  4.63932  195  6.53268  202  -6.9  100   -6.9  0     0     1015.0   NA       0.0000   9999     950   0     0    
2019/07/01  22:33:01  BASE  4.09836  195  6.53268  202  -6.9  100   -6.9  0     0     1015.0   NA       0.0000   9999     750   0     0    
2019/07/01  22:34:01  BASE  3.9102   194  6.53268  202  -6.9  100   -6.9  0     0     1015.0   NA       0.0000   9999     790   0     0    
2019/07/01  22:35:01  BASE  3.91608  196  6.53268  202  -6.9  100   -6.9  0     0     1015.0   NA       0.0000   9999     950   0     0    
2019/07/01  22:36:01  BASE  3.822    196  6.53268  202  -6.9  100   -6.9  0     0     1015.0   NA       0.0000   9999     890   0     0    
2019/07/01  22:37:01  BASE  3.71616  186  6.02112  197  -6.8  100   -6.8  0     0     1015.0   NA       0.0000   9999     750   0     0    
2019/07/01  22:38:01  BASE  3.86316  176  5.80944  204  -6.8  100   -6.8  0     0     1015.0   NA       0.0000   9999     890   0     0    
2019/07/01  22:39:01  BASE  4.43352  179  5.65656  200  -6.8  100   -6.8  0     0     1015.0   NA       0.0000   9999     690   0     0    
2019/07/01  22:40:01  BASE  3.98076  182  5.47428  201  -6.8  100   -6.8  0     0     1015.0   NA       0.0000   9999     590   0     0    
2019/07/01  22:41:01  BASE  3.22224  186  5.3214   189  -6.8  100   -6.8  0     0     1015.0   NA       0.0000   9999     750   0     0    
2019/07/01  22:42:01  BASE  3.1458   193  5.3214   189  -6.8  100   -6.8  0     0     1015.0   NA       0.0000   9999     980   0     0    
2019/07/01  22:43:01  BASE  3.12816  196  5.3214   189  -6.8  100   -6.8  0     0     1015.0   NA       0.0000   9999     1080  0     0    
2019/07/01  22:44:01  BASE  2.9106   195  5.3214   189  -6.8  100   -6.8  0     0     1015.0   NA       0.0000   9999     950   0     0    
2019/07/01  22:45:01  BASE  2.62248  193  5.3214   189  -6.8  100   -6.8  0     0     1015.0   NA       0.0000   9999     1050  0     0    
2019/07/01  22:46:01  BASE  2.39904  199  5.3214   189  -6.8  100   -6.8  0     0     1015.0   NA       0.0000   9999     1050  0     0    
2019/07/01  22:47:01  BASE  2.26968  206  5.3214   189  -6.8  100   -6.8  0     0     1015.0   NA       0.0000   9999     1080  0     0    
2019/07/01  22:48:01  BASE  2.10504  199  5.3214   189  -6.8  100   -6.8  0     0     1015.0   NA       0.0000   9999     920   0     0    
2019/07/01  22:49:01  BASE  1.4994   195  4.05132  183  -6.8  100   -6.8  0     0     1015.0   NA       0.0000   9999     950   0     0    
2019/07/01  22:50:01  BASE  1.1172   206  3.65736  185  -6.8  100   -6.8  0     0     1015.0   NA       0.0000   9999     980   0     0    
2019/07/01  22:51:01  BASE  1.74048  214  3.48096  204  -6.7  100   -6.7  0     0     1014.9   NA       0.0000   9999     1020  0     0    
2019/07/01  22:52:01  BASE  2.92824  216  3.81024  218  -6.7  100   -6.7  0     0     1014.9   NA       0.0000   9999     890   0     0    
2019/07/01  22:53:01  BASE  3.16344  217  3.81024  218  -6.7  100   -6.7  0     0     1014.8   NA       0.0000   9999     820   0     0    
2019/07/01  22:54:01  BASE  2.352    218  3.81024  218  -6.7  100   -6.7  0     0     1014.8   NA       0.0000   9999     890   0     0    
2019/07/01  22:55:01  BASE  2.01684  214  3.81024  218  -6.7  100   -6.7  0     0     1014.8   NA       0.0000   9999     1080  0     0    
2019/07/01  22:56:01  BASE  2.18736  209  3.81024  218  -6.7  100   -6.7  0     0     1014.8   NA       0.0000   9999     1150  0     0    
2019/07/01  22:57:01  BASE  2.36376  205  3.81024  218  -6.8  100   -6.8  0     0     1014.8   NA       0.0000   9999     1120  0     0    
2019/07/01  22:58:01  BASE  2.7342   208  3.81024  218  -6.8  100   -6.8  0     0     1014.8   NA       0.0000   9999     1150  0     0    
2019/07/01  22:59:01  BASE  3.19872  220  3.81024  218  -6.8  100   -6.8  0     0     1014.8   NA       0.0000   9999     1020  0     0    
2019/07/01  23:00:01  BASE  3.38688  222  3.86904  223  -6.8  100   -6.8  0     0     1014.8   NA       0.0000   9999     1120  0     0    
2019/07/01  23:01:01  BASE  3.54564  219  4.53936  213  -6.8  100   -6.8  0     0     1014.8   NA       0.0000   9999     1210  0     0    
2019/07/01  23:02:01  BASE  3.69264  214  4.53936  213  -6.7  100   -6.7  0     0     1014.8   NA       0.0000   9999     1380  0     0    
2019/07/01  23:03:01  BASE  3.65736  211  4.53936  213  -6.8  100   -6.8  0     0     1014.9   NA       0.0000   9999     1410  0     0    
2019/07/01  23:04:01  BASE  3.74556  221  4.53936  213  -6.7  100   -6.7  0     0     1014.9   NA       0.0000   9999     1210  0     0    
2019/07/01  23:05:01  BASE  3.65736  219  4.53936  213  -6.7  100   -6.7  0     0     1014.9   NA       0.0000   9999     1180  0     0    
2019/07/01  23:06:01  BASE  3.50448  204  4.53936  213  -6.7  100   -6.7  0     0     1015.0   NA       0.0000   9999     1210  0     0    
2019/07/01  23:07:01  BASE  3.28692  197  4.53936  213  -6.7  100   -6.7  0     0     1014.9   NA       0.0000   9999     1180  0     0    
2019/07/01  23:08:01  BASE  2.98704  189  4.53936  213  -6.7  100   -6.7  0     0     1014.9   NA       0.0000   9999     1210  0     0    
2019/07/01  23:09:01  BASE  2.95764  181  4.53936  213  -6.8  100   -6.8  0     0     1015.0   NA       0.0000   9999     1020  0     0    
2019/07/01  23:10:01  BASE  2.79888  184  4.53936  213  -6.8  100   -6.8  0     0     1015.0   NA       0.0000   9999     950   1480  0    
2019/07/01  23:11:01  BASE  2.4696   197  4.2042   233  -6.8  100   -6.8  0     0     1014.9   NA       0.0000   9999     1020  0     0    
2019/07/01  23:12:01  BASE  2.10504  205  4.2042   233  -6.8  100   -6.8  0     0     1014.9   NA       0.0000   9999     1080  0     0    
2019/07/01  23:13:01  BASE  1.7052   201  4.2042   233  -6.8  100   -6.8  0     0     1014.8   NA       0.0000   9999     790   0     0    
2019/07/01  23:14:01  BASE  1.76988  197  3.81024  212  -6.8  100   -6.8  0     0     1014.8   NA       0.0000   9999     980   0     0    
2019/07/01  23:15:01  BASE  1.93452  202  3.65736  199  -6.8  100   -6.8  0     0     1014.8   NA       0.0000   9999     1150  0     0    
2019/07/01  23:16:01  BASE  2.10504  217  3.59856  195  -6.8  100   -6.8  0     0     1014.8   NA       0.0000   9999     1150  0     0    
2019/07/01  23:17:01  BASE  2.41668  230  3.29868  176  -6.8  100   -6.8  0     0     1014.8   NA       0.0000   9999     980   0     0    
2019/07/01  23:18:01  BASE  2.47548  231  3.29868  176  -6.8  100   -6.8  0     0     1014.8   NA       0.0000   9999     980   0     0    
2019/07/01  23:19:01  BASE  2.18736  223  3.2046   191  -6.8  100   -6.8  0     0     1014.9   NA       0.0000   9999     950   0     0    
2019/07/01  23:20:01  BASE  1.9698   221  2.72244  228  -6.8  100   -6.8  0     0     1014.9   NA       0.0000   9999     1080  0     0    
2019/07/01  23:21:00  BASE  2.42256  228  3.35748  234  -6.8  100   -6.8  0     0     1014.9   NA       0.0000   9999     1150  0     0    
2019/07/01  23:22:01  BASE  3.16344  233  4.02192  230  -6.8  100   -6.8  0     0     1014.8   NA       0.0000   9999     1080  0     0    
2019/07/01  23:23:00  BASE  3.33396  234  4.02192  230  -6.8  100   -6.8  0     0     1014.9   NA       0.0000   9999     1050  0     0    
2019/07/01  23:24:00  BASE  2.94     232  4.02192  230  -6.8  100   -6.8  0     0     1014.9   NA       0.0000   9999     1120  0     0    
2019/07/01  23:25:01  BASE  2.68128  220  4.02192  230  -6.8  100   -6.8  0     0     1014.9   NA       0.0000   9999     890   0     0    
2019/07/01  23:26:00  BASE  2.66952  205  4.02192  230  -6.8  100   -6.8  0     0     1014.9   NA       0.0000   9999     920   0     0    
2019/07/01  23:27:00  BASE  2.90472  199  4.02192  230  -6.7  100   -6.7  0     0     1014.9   NA       0.0000   9999     950   0     0    
2019/07/01  23:28:00  BASE  2.93412  204  4.02192  230  -6.7  100   -6.7  0     0     1014.9   NA       0.0000   9999     920   0     0    
2019/07/01  23:29:00  BASE  2.59308  215  4.02192  230  -6.7  100   -6.7  0     0     1014.8   NA       0.0000   9999     950   0     0    
2019/07/01  23:30:01  BASE  2.28144  224  4.02192  230  -6.7  100   -6.7  0     0     1014.8   NA       0.0000   9999     920   0     0    
2019/07/01  23:31:00  BASE  2.51076  225  4.02192  230  -6.7  100   -6.7  0     0     1014.8   NA       0.0000   9999     1020  0     0    
2019/07/01  23:32:01  BASE  2.94588  225  3.59856  238  -6.7  100   -6.7  0     0     1014.8   NA       0.0000   9999     980   0     0    
2019/07/01  23:33:00  BASE  2.68716  224  3.48096  200  -6.6  100   -6.6  0     0     1014.8   NA       0.0000   9999     1080  0     0    
2019/07/01  23:34:00  BASE  2.22264  230  3.48096  200  -6.6  100   -6.6  0     0     1014.8   NA       0.0000   9999     1020  0     0    
2019/07/01  23:35:01  BASE  2.058    224  3.48096  200  -6.6  100   -6.6  0     0     1014.8   NA       0.0000   9999     980   0     0    
2019/07/01  23:36:00  BASE  1.39356  205  3.38688  222  -6.6  100   -6.6  0     0     1014.8   NA       0.0000   9999     1020  0     0    
2019/07/01  23:37:00  BASE  0.87612  169  3.38688  222  -6.7  100   -6.7  0     0     1014.9   NA       0.0000   9999     1050  0     0    
2019/07/01  23:38:00  BASE  1.08192  125  3.38688  222  -6.7  100   -6.7  0     0     1014.9   NA       0.0000   9999     950   0     0    
2019/07/01  23:39:00  BASE  0.77616  128  3.38688  222  -6.7  100   -6.7  0     0     1015.0   NA       0.0000   9999     850   0     0    
2019/07/01  23:40:01  BASE  0.19992  146  3.38688  222  -6.8  100   -6.8  0     0     1015.0   NA       0.0000   9999     1020  0     0    
2019/07/01  23:41:00  BASE  0        143  3.26928  227  -6.8  100   -6.8  0     0     1014.9   NA       0.0000   9999     950   0     0    
2019/07/01  23:42:00  BASE  0        111  2.75184  213  -6.8  100   -6.8  0     0     1014.8   NA       0.0000   9999     850   0     0    
2019/07/01  23:43:00  BASE  0.02352  103  2.69304  204  -6.8  100   -6.8  0     0     1014.8   NA       0.0000   9999     850   0     0    
2019/07/01  23:44:00  BASE  0.38808  131  2.69304  204  -6.8  100   -6.8  0     0     1014.8   NA       0.0000   9999     850   0     0    
2019/07/01  23:45:00  BASE  0.69972  146  1.32888  108  -6.8  100   -6.8  0     0     1014.8   NA       0.0000   9999     820   0     0    
2019/07/01  23:46:00  BASE  0.53508  166  1.32888  108  -6.8  100   -6.8  0     0     1014.8   NA       0.0000   9999     1080  0     0    
2019/07/01  23:47:00  BASE  0.22344  197  1.32888  108  -6.8  100   -6.8  0     0     1014.8   NA       0.0000   9999     890   0     0    
2019/07/01  23:48:00  BASE  0.42924  220  1.21128  146  -6.8  100   -6.8  0     0     1014.8   NA       0.0000   9999     750   0     0    
2019/07/01  23:49:00  BASE  1.28184  245  2.48136  264  -6.8  100   -6.8  0     0     1014.8   NA       0.0000   9999     950   0     0    
2019/07/01  23:50:01  BASE  2.14032  255  2.84592  246  -6.7  100   -6.7  0     0     1014.8   NA       0.0000   9999     1150  0     0    
2019/07/01  23:51:00  BASE  2.84592  256  3.75144  253  -6.7  100   -6.7  0     0     1014.8   NA       0.0000   9999     1150  0     0    
2019/07/01  23:52:00  BASE  3.10464  253  3.75144  253  -6.7  100   -6.7  0     0     1014.8   NA       0.0000   9999     950   0     0    
2019/07/01  23:53:00  BASE  2.72832  249  3.75144  253  -6.7  100   -6.7  0     0     1014.8   NA       0.0000   9999     980   0     0    
2019/07/01  23:54:01  BASE  2.35788  250  3.75144  253  -6.7  100   -6.7  0     0     1014.8   NA       0.0000   9999     1080  0     0    
2019/07/01  23:55:00  BASE  2.37552  248  3.75144  253  -6.7  100   -6.7  0     0     1014.8   NA       0.0000   9999     1080  0     0    
2019/07/01  23:56:00  BASE  2.37552  244  3.75144  253  -6.7  100   -6.7  0     0     1014.8   NA       0.0000   9999     1180  0     0    
2019/07/01  23:57:00  BASE  2.29908  244  3.75144  253  -6.6  100   -6.6  0     0     1014.8   NA       0.0000   9999     1150  0     0    
2019/07/01  23:58:00  BASE  2.48724  242  3.75144  253  -6.6  100   -6.6  0     0     1014.9   NA       0.0000   9999     1150  0     0    
2019/07/01  23:59:00  BASE  2.57544  232  3.75144  253  -6.6  100   -6.6  0     0     1014.9   NA       0.0000   9999     1210  0     0